[[{"header":{"parameterUnit":"m.s-1","parameterCategory":1,"la1":30.6,"la2":28.766,"lo1":-90.7593,"lo2":-88.6598,"dy":0.0162,"dx":0.0183,"nx":116,"ny":114,"refTime":"2023-10-15T18:00:00:Z","depth":0,"parameterNumber":2,"parameterNumberName":"U-component_of_WINDS"},"data":[0.0,0.0,0.0,0.0,0.0,0.0,0.0,0.0,0.0,0.0,0.0,0.0,0.0,0.0,0.0,0.0,0.0,0.0,0.0,0.0,0.0,0.0,0.0,0.0,0.0,0.0,0.0,0.0,0.0,0.0,0.0,0.0,0.0,0.0,0.0,0.0,0.0,0.0,0.0,0.0,0.0,0.0,0.0,0.0,0.0,0.0,0.0,0.0,0.0,0.0,0.0,0.0,0.0,0.0,0.0,0.0,0.0,0.0,0.0,0.0,0.0,0.0,0.0,0.0,0.0,0.0,0.0,0.0,0.0,0.0,0.0,0.0,0.0,0.0,0.0,0.0,0.0,0.0,0.0,0.0,0.0,0.0,0.0,0.0,0.0,0.0,0.0,0.0,0.0,0.0,0.0,0.0,0.0,0.0,0.0,0.0,0.0,0.0,0.0,0.0,0.0,0.0,0.0,0.0,0.0,0.0,0.0,0.0,0.0,0.0,0.0,0.0,0.0,0.0,0.0,0.0,0.0,0.0,0.0,0.0,0.0,0.0,0.0,0.0,0.0,0.0,0.0,0.0,0.0,0.0,0.0,0.0,0.0,0.0,0.0,0.0,0.0,0.0,0.0,0.0,0.0,0.0,0.0,0.0,0.0,0.0,0.0,0.0,0.0,0.0,0.0,0.0,0.0,0.0,0.0,0.0,0.0,0.0,0.0,0.0,0.0,0.0,0.0,0.0,0.0,0.0,0.0,0.0,0.0,0.0,0.0,0.0,0.0,0.0,0.0,0.0,0.0,0.0,0.0,0.0,0.0,0.0,0.0,0.0,0.0,0.0,0.0,0.0,0.0,0.0,0.0,0.0,0.0,0.0,0.0,0.0,0.0,0.0,0.0,0.0,0.0,0.0,0.0,0.0,0.0,0.0,0.0,0.0,0.0,0.0,0.0,0.0,0.0,0.0,0.0,0.0,0.0,0.0,0.0,0.0,0.0,0.0,0.0,0.0,0.0,0.0,0.0,0.0,0.0,0.0,0.0,0.0,0.0,0.0,0.0,0.0,0.0,0.0,0.0,0.0,0.0,0.0,0.0,0.0,0.0,0.0,0.0,0.0,0.0,0.0,0.0,0.0,0.0,0.0,0.0,0.0,0.0,0.0,0.0,0.0,0.0,0.0,0.0,0.0,0.0,0.0,0.0,0.0,0.0,0.0,0.0,0.0,0.0,0.0,0.0,0.0,0.0,0.0,0.0,0.0,0.0,0.0,0.0,0.0,0.0,0.0,0.0,0.0,0.0,0.0,0.0,0.0,0.0,0.0,0.0,0.0,0.0,0.0,0.0,0.0,0.0,0.0,0.0,0.0,0.0,0.0,0.0,0.0,0.0,0.0,0.0,0.0,0.0,0.0,0.0,0.0,0.0,0.0,0.0,0.0,0.0,0.0,0.0,0.0,0.0,0.0,0.0,0.0,0.0,0.0,0.0,0.0,0.0,0.0,0.0,0.0,0.0,0.0,0.0,0.0,0.0,0.0,0.0,0.0,0.0,0.0,0.0,0.0,0.0,0.0,0.0,0.0,0.0,0.0,0.0,0.0,0.0,0.0,0.0,0.0,0.0,0.0,0.0,0.0,0.0,0.0,0.0,0.0,0.0,0.0,0.0,0.0,0.0,0.0,0.0,0.0,0.0,0.0,0.0,0.0,0.0,0.0,0.0,0.0,0.0,0.0,0.0,0.0,0.0,0.0,0.0,0.0,0.0,0.0,0.0,0.0,0.0,0.0,0.0,0.0,0.0,0.0,0.0,0.0,0.0,0.0,0.0,0.0,0.0,0.0,0.0,0.0,0.0,0.0,0.0,0.0,0.0,0.0,0.0,0.0,0.0,0.0,0.0,0.0,0.0,0.0,0.0,0.0,0.0,0.0,0.0,0.0,0.0,0.0,0.0,0.0,0.0,0.0,0.0,0.0,0.0,0.0,0.0,0.0,0.0,0.0,0.0,0.0,0.0,0.0,0.0,0.0,0.0,0.0,0.0,0.0,0.0,0.0,0.0,0.0,0.0,0.0,0.0,0.0,0.0,0.0,0.0,0.0,0.0,0.0,0.0,0.0,0.0,0.0,0.0,0.0,0.0,0.0,0.0,0.0,0.0,0.0,0.0,0.0,0.0,0.0,0.0,0.0,0.0,0.0,0.0,0.0,0.0,0.0,0.0,0.0,0.0,0.0,0.0,0.0,0.0,0.0,0.0,0.0,0.0,0.0,0.0,0.0,0.0,0.0,0.0,0.0,0.0,0.0,0.0,0.0,0.0,0.0,0.0,0.0,0.0,0.0,0.0,0.0,0.0,0.0,0.0,0.0,0.0,0.0,0.0,0.0,0.0,0.0,0.0,0.0,0.0,0.0,0.0,0.0,0.0,0.0,0.0,0.0,0.0,0.0,0.0,0.0,0.0,0.0,0.0,0.0,0.0,0.0,0.0,0.0,0.0,0.0,0.0,0.0,0.0,0.0,0.0,0.0,0.0,0.0,0.0,0.0,0.0,0.0,0.0,0.0,0.0,0.0,0.0,0.0,0.0,0.0,0.0,0.0,0.0,0.0,0.0,0.0,0.0,0.0,0.0,0.0,0.0,0.0,0.0,0.0,0.0,0.0,0.0,0.0,0.0,0.0,0.0,0.0,0.0,0.0,0.0,0.0,0.0,0.0,0.0,0.0,0.0,0.0,0.0,0.0,0.0,0.0,0.0,0.0,0.0,0.0,0.0,0.0,0.0,0.0,0.0,0.0,0.0,0.0,0.0,0.0,0.0,0.0,0.0,0.0,0.0,0.0,0.0,0.0,0.0,0.0,0.0,0.0,0.0,0.0,0.0,0.0,0.0,0.0,0.0,0.0,0.0,0.0,0.0,0.0,0.0,0.0,0.0,0.0,0.0,0.0,0.0,0.0,0.0,0.0,0.0,0.0,0.0,0.0,0.0,0.0,0.0,0.0,0.0,0.0,0.0,0.0,0.0,0.0,0.0,0.0,0.0,0.0,0.0,0.0,0.0,0.0,0.0,0.0,0.0,0.0,0.0,0.0,0.0,0.0,0.0,0.0,0.0,0.0,0.0,0.0,0.0,0.0,0.0,0.0,0.0,0.0,0.0,0.0,0.0,0.0,0.0,0.0,0.0,0.0,0.0,0.0,0.0,0.0,0.0,0.0,0.0,0.0,0.0,0.0,0.0,0.0,0.0,0.0,0.0,0.0,0.0,0.0,0.0,0.0,0.0,0.0,0.0,0.0,0.0,0.0,0.0,0.0,0.0,0.0,0.0,0.0,0.0,0.0,0.0,0.0,0.0,0.0,0.0,0.0,0.0,0.0,0.0,0.0,0.0,0.0,0.0,0.0,0.0,0.0,0.0,0.0,0.0,0.0,0.0,0.0,0.0,0.0,0.0,0.0,0.0,0.0,0.0,0.0,0.0,0.0,0.0,0.0,0.0,0.0,0.0,0.0,0.0,0.0,0.0,0.0,0.0,0.0,0.0,0.0,0.0,0.0,0.0,0.0,0.0,0.0,0.0,0.0,0.0,0.0,0.0,0.0,0.0,0.0,0.0,0.0,0.0,0.0,0.0,0.0,0.0,0.0,0.0,0.0,0.0,0.0,0.0,0.0,0.0,0.0,0.0,0.0,0.0,0.0,0.0,0.0,0.0,0.0,0.0,0.0,0.0,0.0,0.0,0.0,0.0,0.0,0.0,0.0,0.0,0.0,0.0,0.0,0.0,0.0,0.0,0.0,0.0,0.0,0.0,0.0,0.0,0.0,0.0,0.0,0.0,0.0,0.0,0.0,0.0,0.0,0.0,0.0,0.0,0.0,0.0,0.0,0.0,0.0,0.0,0.0,0.0,0.0,0.0,0.0,0.0,0.0,0.0,0.0,0.0,0.0,0.0,0.0,0.0,0.0,0.0,0.0,0.0,0.0,0.0,0.0,0.0,0.0,0.0,0.0,0.0,0.0,0.0,0.0,0.0,0.0,0.0,0.0,0.0,0.0,0.0,0.0,0.0,0.0,0.0,0.0,0.0,0.0,0.0,0.0,0.0,0.0,0.0,0.0,0.0,0.0,0.0,0.0,0.0,0.0,0.0,0.0,0.0,0.0,0.0,0.0,0.0,0.0,0.0,0.0,0.0,0.0,0.0,0.0,0.0,0.0,0.0,0.0,0.0,0.0,0.0,0.0,0.0,0.0,0.0,0.0,0.0,0.0,0.0,0.0,0.0,0.0,0.0,0.0,0.0,0.0,0.0,0.0,0.0,0.0,0.0,0.0,0.0,0.0,0.0,0.0,0.0,0.0,0.0,0.0,0.0,0.0,0.0,0.0,0.0,0.0,0.0,0.0,0.0,0.0,0.0,0.0,0.0,0.0,0.0,0.0,0.0,0.0,0.0,0.0,0.0,0.0,0.0,0.0,0.0,0.0,0.0,0.0,0.0,0.0,0.0,0.0,0.0,0.0,0.0,0.0,0.0,0.0,0.0,0.0,0.0,0.0,0.0,0.0,0.0,0.0,0.0,0.0,0.0,0.0,0.0,0.0,0.0,0.0,0.0,0.0,0.0,0.0,0.0,0.0,0.0,0.0,0.0,0.0,0.0,0.0,0.0,0.0,0.0,0.0,0.0,0.0,0.0,0.0,0.0,0.0,0.0,0.0,0.0,0.0,0.0,0.0,0.0,0.0,0.0,0.0,0.0,0.0,0.0,0.0,0.0,0.0,0.0,0.0,0.0,0.0,0.0,0.0,0.0,0.0,0.0,0.0,0.0,0.0,0.0,0.0,0.0,0.0,0.0,0.0,0.0,0.0,0.0,0.0,0.0,0.0,0.0,0.0,0.0,0.0,0.0,0.0,0.0,0.0,0.0,0.0,0.0,0.0,0.0,0.0,0.0,0.0,0.0,0.0,0.0,0.0,0.0,0.0,0.0,0.0,0.0,0.0,0.0,0.0,0.0,0.0,0.0,0.0,0.0,0.0,0.0,0.0,0.0,0.0,0.0,0.0,0.0,0.0,0.0,0.0,0.0,0.0,0.0,0.0,0.0,0.0,0.0,0.0,0.0,0.0,0.0,0.0,0.0,0.0,0.0,0.0,0.0,0.0,0.0,0.0,0.0,0.0,0.0,0.0,0.0,0.0,0.0,0.0,0.0,0.0,0.0,0.0,0.0,0.0,0.0,0.0,0.0,0.0,0.0,0.0,0.0,0.0,0.0,0.0,0.0,0.0,0.0,0.0,0.0,0.0,0.0,0.0,0.0,0.0,0.0,0.0,0.0,0.0,0.0,0.0,0.0,0.0,0.0,0.0,0.0,0.0,0.0,0.0,0.0,0.0,0.0,0.0,0.0,0.0,0.0,0.0,0.0,0.0,0.0,0.0,0.0,0.0,0.0,0.0,0.0,0.0,0.0,0.0,0.0,0.0,0.0,0.0,0.0,0.0,0.0,0.0,0.0,0.0,0.0,0.0,0.0,0.0,0.0,0.0,0.0,0.0,0.0,0.0,0.0,0.0,0.0,0.0,0.0,0.0,0.0,0.0,0.0,0.0,0.0,0.0,0.0,0.0,0.0,0.0,0.0,0.0,0.0,0.0,0.0,0.0,0.0,0.0,0.0,0.0,0.0,0.0,0.0,0.0,0.0,0.0,0.0,0.0,0.0,0.0,0.0,0.0,0.0,0.0,0.0,0.0,0.0,0.0,0.0,0.0,0.0,0.0,0.0,0.0,0.0,0.0,0.0,0.0,0.0,0.0,0.0,0.0,0.0,0.0,0.0,0.0,0.0,0.0,0.0,0.0,0.0,0.0,0.0,0.0,0.0,0.0,0.0,0.0,0.0,0.0,0.0,0.0,0.0,0.0,0.0,0.0,0.0,0.0,0.0,0.0,0.0,0.0,0.0,0.0,0.0,0.0,0.0,0.0,0.0,0.0,0.0,0.0,0.0,0.0,0.0,0.0,0.0,0.0,0.0,0.0,0.0,0.0,0.0,0.0,0.0,0.0,0.0,0.0,0.0,0.0,0.0,0.0,0.0,0.0,0.0,0.0,0.0,0.0,0.0,0.0,0.0,0.0,0.0,0.0,0.0,0.0,0.0,0.0,0.0,0.0,-1.5205,-1.3053,0.0,0.0,0.0,0.0,0.0,0.0,0.0,0.0,0.0,0.0,0.0,0.0,0.0,0.0,0.0,0.0,0.0,0.0,0.0,0.0,0.0,0.0,0.0,0.0,0.0,0.0,0.0,0.0,0.0,0.0,0.0,0.0,0.0,0.0,0.0,0.0,0.0,0.0,0.0,0.0,0.0,0.0,0.0,0.0,0.0,0.0,0.0,0.0,0.0,0.0,0.0,0.0,0.0,0.0,0.0,0.0,0.0,0.0,0.0,0.0,0.0,0.0,0.0,0.0,0.0,0.0,0.0,0.0,0.0,0.0,0.0,0.0,0.0,0.0,0.0,0.0,0.0,0.0,0.0,0.0,0.0,0.0,0.0,0.0,0.0,0.0,0.0,0.0,0.0,0.0,0.0,0.0,0.0,0.0,0.0,0.0,0.0,0.0,0.0,0.0,0.0,0.0,0.0,0.0,0.0,0.0,0.0,0.0,0.0,0.0,0.0,0.0,0.0,0.0,-1.7001,-1.5495,0.0,0.0,0.0,0.0,0.0,0.0,0.0,0.0,0.0,0.0,0.0,0.0,0.0,0.0,0.0,0.0,0.0,0.0,0.0,0.0,0.0,0.0,0.0,0.0,0.0,0.0,0.0,0.0,0.0,0.0,0.0,0.0,0.0,0.0,0.0,0.0,0.0,0.0,0.0,0.0,0.0,0.0,0.0,0.0,0.0,0.0,0.0,0.0,0.0,0.0,0.0,0.0,0.0,0.0,0.0,0.0,0.0,0.0,0.0,0.0,0.0,0.0,0.0,0.0,0.0,0.0,0.0,0.0,0.0,0.0,0.0,0.0,0.0,0.0,0.0,0.0,0.0,0.0,0.0,0.0,0.0,0.0,0.0,0.0,0.0,0.0,0.0,0.0,0.0,0.0,0.0,0.0,0.0,0.0,0.0,0.0,0.0,0.0,0.0,0.0,0.0,0.0,0.0,0.0,0.0,0.0,0.0,0.0,-1.7913,-1.8305,-1.8709,-1.8606,-1.9219,-2.0313,-1.9316,-1.869,-1.8184,-1.6462,0.0,0.0,0.0,0.0,0.0,0.0,0.0,0.0,0.0,0.0,0.0,0.0,0.0,0.0,0.0,0.0,0.0,0.0,0.0,0.0,0.0,0.0,0.0,0.0,0.0,0.0,0.0,0.0,0.0,0.0,0.0,0.0,0.0,0.0,0.0,0.0,0.0,0.0,-2.3733,-2.4436,-2.4466,-2.3924,-2.257,0.0,0.0,0.0,0.0,0.0,0.0,0.0,0.0,0.0,0.0,0.0,0.0,0.0,0.0,0.0,0.0,0.0,0.0,0.0,0.0,0.0,0.0,0.0,0.0,0.0,0.0,0.0,0.0,0.0,0.0,0.0,0.0,0.0,0.0,0.0,0.0,0.0,0.0,0.0,0.0,0.0,0.0,0.0,-1.8006,-1.7845,0.0,0.0,0.0,0.0,0.0,0.0,0.0,0.0,0.0,0.0,0.0,0.0,0.0,-1.8611,-1.9191,-1.998,-2.0783,-2.1627,-2.2309,-2.2958,-2.3587,-2.3561,-2.3636,-2.3848,-2.3664,0.0,-1.8804,-1.7612,0.0,0.0,0.0,0.0,0.0,0.0,0.0,0.0,0.0,0.0,0.0,0.0,0.0,0.0,0.0,0.0,0.0,0.0,0.0,0.0,0.0,0.0,0.0,0.0,0.0,0.0,0.0,0.0,0.0,0.0,0.0,0.0,0.0,0.0,0.0,0.0,-2.4784,-2.5615,-2.5873,-2.625,-2.6325,-2.6194,-2.5612,-2.4463,-2.296,-2.2238,0.0,0.0,0.0,0.0,0.0,0.0,0.0,0.0,0.0,0.0,0.0,0.0,0.0,0.0,0.0,0.0,0.0,0.0,0.0,0.0,0.0,0.0,0.0,0.0,0.0,0.0,0.0,0.0,0.0,0.0,0.0,0.0,0.0,0.0,0.0,0.0,0.0,0.0,0.0,-1.6999,-1.7449,-1.7637,-1.7062,-1.6327,0.0,0.0,0.0,0.0,0.0,0.0,0.0,0.0,0.0,-2.0798,-2.1062,-2.147,-2.2158,-2.2858,-2.3432,-2.3845,-2.3711,-2.4241,-2.5284,-2.4811,-2.477,-2.5016,-2.4418,-2.3166,-2.1491,-2.023,-1.8712,-1.7003,0.0,0.0,0.0,0.0,-1.3994,-1.4124,0.0,0.0,0.0,0.0,0.0,0.0,0.0,0.0,0.0,0.0,0.0,0.0,0.0,0.0,0.0,-2.2395,0.0,0.0,0.0,0.0,0.0,0.0,0.0,0.0,0.0,0.0,0.0,-2.5165,-2.5833,-2.6629,-2.749,-2.7646,-2.7745,-2.7745,-2.7745,-2.6462,-2.4327,-2.3779,-2.2807,0.0,0.0,0.0,0.0,0.0,0.0,0.0,0.0,0.0,0.0,0.0,0.0,0.0,0.0,0.0,0.0,0.0,0.0,0.0,0.0,0.0,0.0,0.0,0.0,0.0,0.0,0.0,0.0,0.0,0.0,0.0,0.0,0.0,0.0,0.0,0.0,0.0,0.0,-1.754,-1.7782,-1.7817,-1.7676,-1.7062,0.0,0.0,0.0,0.0,0.0,0.0,-2.0501,-2.0651,-2.158,-2.3385,-2.3778,-2.4334,-2.4988,-2.5498,-2.5828,-2.5946,-2.5148,-2.529,-2.6282,-2.528,-2.5049,-2.5401,-2.4444,-2.391,-2.3613,-2.1926,-2.0464,-1.9179,-1.7726,-1.6652,-1.5899,-1.5754,-1.5679,-1.5745,0.0,0.0,0.0,0.0,0.0,0.0,0.0,0.0,0.0,0.0,0.0,0.0,0.0,0.0,-2.3197,-2.3739,-2.3725,-2.3242,0.0,0.0,0.0,0.0,0.0,0.0,0.0,0.0,0.0,-2.5668,-2.6832,-2.743,-2.7503,-2.8085,-2.8368,-2.8368,-2.8368,-2.796,-2.722,-2.6031,-2.5501,-2.5219,0.0,0.0,0.0,0.0,0.0,0.0,0.0,0.0,0.0,0.0,0.0,0.0,0.0,0.0,0.0,0.0,0.0,0.0,0.0,0.0,0.0,0.0,0.0,0.0,0.0,0.0,0.0,0.0,0.0,0.0,0.0,0.0,0.0,0.0,0.0,0.0,0.0,0.0,0.0,-1.9426,-1.9619,0.0,0.0,0.0,0.0,-1.9397,-2.0036,-2.1241,-2.3127,-2.324,-2.4004,-2.567,-2.6182,-2.665,-2.7151,-2.7597,-2.8111,-2.8604,-2.7755,-2.7369,-2.7379,-2.595,-2.5266,-2.5266,-2.4723,-2.4342,-2.3889,-2.1485,-2.0026,-1.9307,-1.8306,-1.7349,-1.6578,-1.7497,-1.7442,-1.7032,0.0,0.0,0.0,0.0,0.0,0.0,0.0,0.0,0.0,0.0,0.0,0.0,0.0,-2.2745,-2.4416,-2.4948,-2.5706,-2.5587,-2.4215,0.0,0.0,0.0,0.0,0.0,0.0,0.0,-2.578,-2.6845,-2.7696,-2.8072,-2.8085,-2.8686,-2.8996,-2.8996,-2.8996,-2.8843,-2.8595,-2.738,-2.6242,-2.5208,-2.4604,-2.3067,0.0,0.0,0.0,0.0,0.0,0.0,0.0,0.0,0.0,0.0,0.0,0.0,0.0,0.0,0.0,0.0,0.0,0.0,0.0,0.0,0.0,0.0,0.0,0.0,0.0,0.0,0.0,0.0,0.0,0.0,0.0,0.0,0.0,0.0,0.0,0.0,0.0,-2.0095,-2.0783,0.0,-2.0183,-2.0951,-2.1664,-2.2025,-2.3229,-2.4395,-2.5389,-2.5743,-2.6336,-2.7206,-2.8047,-2.8549,-2.8713,-2.9194,-2.9521,-2.9696,-2.8913,-2.8756,-2.9193,-2.8198,-2.7439,-2.6824,-2.5903,-2.4849,-2.3651,-2.2096,-2.1262,-2.0921,-2.0576,-1.9743,-1.875,-1.9075,-1.9051,-1.8924,0.0,0.0,0.0,0.0,0.0,0.0,0.0,0.0,0.0,0.0,0.0,-2.0938,-2.1901,-2.4229,-2.5855,-2.6206,-2.7013,-2.6842,-2.5288,0.0,0.0,0.0,0.0,0.0,0.0,-2.5785,-2.6724,-2.7811,-2.8399,-2.8686,-2.8734,-2.9287,-2.9575,-2.9575,-2.9575,-2.9575,-2.951,-2.8529,-2.7348,-2.6127,-2.5818,-2.4418,-2.252,0.0,0.0,0.0,0.0,0.0,0.0,0.0,0.0,0.0,0.0,0.0,0.0,0.0,0.0,0.0,0.0,0.0,0.0,0.0,0.0,0.0,0.0,0.0,0.0,0.0,0.0,0.0,0.0,0.0,0.0,0.0,0.0,0.0,0.0,-1.977,-2.0858,-2.0809,-2.1877,-2.2462,-2.1968,-2.3084,-2.4065,-2.4566,-2.5776,-2.678,-2.7433,-2.7838,-2.8265,-2.871,-2.9543,-3.0046,-3.0209,-3.0701,-3.1018,-3.1171,-3.0298,-3.0155,-3.0563,-2.9467,-2.8669,-2.8022,-2.7107,-2.6105,-2.4937,-2.3799,-2.3245,-2.2954,-2.2172,-2.1324,-2.0626,-2.0626,-2.0496,-2.0384,0.0,0.0,0.0,0.0,0.0,0.0,0.0,0.0,0.0,0.0,-2.1444,-2.3139,-2.4809,-2.6504,-2.749,-2.749,-2.749,-2.681,-2.525,-2.4981,0.0,0.0,0.0,0.0,-2.5871,-2.6536,-2.7361,-2.8446,-2.9048,-2.9314,-2.9375,-2.9879,-3.0166,-3.0179,-3.0179,-3.0179,-3.014,-2.9588,-2.9035,-2.8325,-2.6518,-2.5519,-2.4841,0.0,0.0,0.0,0.0,0.0,0.0,0.0,0.0,0.0,0.0,0.0,0.0,0.0,0.0,0.0,0.0,0.0,0.0,0.0,0.0,0.0,0.0,0.0,0.0,0.0,0.0,0.0,0.0,0.0,0.0,0.0,0.0,0.0,-1.9806,-2.0627,-2.1504,-2.173,-2.3094,-2.4075,-2.42,-2.5134,-2.6057,-2.6915,-2.7478,-2.8157,-2.9106,-2.94,-2.9773,-3.0264,-3.0723,-3.1192,-3.1662,-3.2154,-3.2634,-3.3071,-3.1983,-3.1439,-3.1384,-2.9708,-2.8869,-2.8812,-2.8163,-2.7871,-2.7757,-2.6451,-2.5726,-2.5128,-2.2879,-2.2035,-2.2027,-2.2019,-2.1751,-2.1365,0.0,0.0,0.0,0.0,0.0,0.0,0.0,0.0,0.0,0.0,-2.1419,-2.3082,-2.4809,-2.6504,-2.749,-2.749,-2.749,-2.7077,-2.611,0.0,0.0,0.0,0.0,0.0,-2.6527,-2.7477,-2.8334,-2.9039,-2.9614,-3.0111,-3.0529,-3.1066,-3.1549,-3.1993,-3.1993,-3.1993,-3.1927,-3.0934,-3.0424,-3.0163,-2.8837,-2.7417,-2.6005,0.0,0.0,0.0,0.0,0.0,0.0,0.0,0.0,0.0,0.0,0.0,0.0,0.0,0.0,0.0,0.0,0.0,0.0,0.0,0.0,0.0,0.0,0.0,0.0,0.0,0.0,0.0,0.0,0.0,0.0,0.0,-2.1172,-2.2312,-2.2016,-2.291,-2.398,-2.5046,-2.5737,-2.633,-2.6827,-2.7619,-2.8222,-2.8466,-2.8977,-2.9543,-3.0384,-3.0604,-3.1066,-3.1771,-3.223,-3.2536,-3.2667,-3.2809,-3.2993,-3.3124,-3.2792,-3.2631,-3.2631,-3.1908,-3.1014,-2.9947,-2.8643,-2.7464,-2.6394,-2.5136,-2.4569,-2.434,-2.3199,-2.2569,-2.2307,-2.2107,-2.1955,-2.1806,0.0,0.0,0.0,0.0,0.0,0.0,0.0,0.0,0.0,0.0,-2.1878,-2.3356,-2.5897,-2.6968,-2.749,-2.749,-2.7235,-2.6713,-2.5917,0.0,0.0,0.0,0.0,-2.6868,-2.7456,-2.8547,-2.9287,-2.964,-3.0414,-3.0988,-3.1352,-3.1889,-3.2372,-3.2685,-3.2685,-3.2685,-3.2646,-3.198,-3.1705,-3.164,-3.0973,-2.9502,-2.763,-2.7003,-2.6018,-2.4865,-2.4277,-2.4014,-2.3871,-2.3132,0.0,0.0,0.0,0.0,0.0,0.0,0.0,0.0,0.0,0.0,0.0,0.0,0.0,0.0,0.0,0.0,0.0,0.0,0.0,0.0,0.0,0.0,0.0,0.0,-2.3061,-2.4395,-2.471,-2.506,-2.5779,-2.7268,-2.7603,-2.7999,-2.861,-2.9214,-2.9676,-2.994,-3.0393,-3.0917,-3.1421,-3.1817,-3.2162,-3.2497,-3.2954,-3.3258,-3.3366,-3.3476,-3.3519,-3.3519,-3.341,-3.3246,-3.3136,-3.2795,-3.1878,-3.0558,-2.9641,-2.8485,-2.7108,-2.583,-2.5312,-2.5179,0.0,0.0,0.0,0.0,-2.2625,-2.2601,0.0,0.0,0.0,0.0,0.0,0.0,0.0,0.0,0.0,0.0,0.0,-2.3822,-2.7439,-2.7656,-2.7523,-2.7523,-2.6856,-2.6046,0.0,0.0,0.0,-2.6154,-2.6889,-2.7631,-2.8464,-2.9562,-3.0166,-3.0283,-3.1301,-3.1863,-3.2006,-3.2555,-3.2829,-3.2881,-3.2881,-3.2881,-3.2881,-3.2816,-3.279,-3.279,-3.2725,-3.1392,-2.9369,-2.8257,-2.7376,-2.6665,-2.5521,-2.4768,-2.4328,-2.4284,0.0,0.0,0.0,0.0,0.0,0.0,0.0,0.0,0.0,0.0,0.0,0.0,0.0,0.0,0.0,0.0,0.0,0.0,0.0,0.0,0.0,0.0,0.0,0.0,-2.5434,-2.6874,-2.7382,-2.704,-2.7283,-2.8693,-2.8928,-2.9276,-2.9949,-3.0216,-3.0632,-3.1256,-3.1738,-3.2073,-3.2318,-3.2825,0.0,0.0,0.0,-3.3539,-3.3879,-3.4038,-3.4153,-3.4142,-3.3805,-3.3523,-3.3306,-3.2784,-3.2008,-3.1063,-3.0587,-2.9816,-2.8801,-2.7375,-2.6779,-2.6591,-2.4841,-2.4145,-2.4074,-2.3713,-2.3544,-2.3554,0.0,0.0,0.0,0.0,0.0,0.0,0.0,0.0,0.0,-2.2365,-2.2751,-2.4078,-2.766,-2.7855,-2.7756,-2.7756,-2.6922,-2.6078,0.0,0.0,-2.6058,-2.6343,-2.752,-2.8469,-2.9127,-2.9784,-3.0544,-3.1471,-3.1693,-3.2293,-3.326,-3.3365,-3.3652,-3.4071,-3.4071,-3.4071,-3.4031,-3.36,-3.3417,-3.3378,-3.2894,-3.1875,-3.0647,-3.0405,-2.9642,-2.8668,-2.7946,-2.7614,-2.7301,-2.5858,-2.5357,-2.5004,-2.3082,-2.2389,0.0,0.0,0.0,0.0,0.0,0.0,0.0,0.0,0.0,0.0,0.0,0.0,0.0,0.0,0.0,0.0,0.0,0.0,0.0,-2.4763,-2.6228,-2.7455,-2.8235,-2.9086,-2.9647,-2.9725,-2.9951,-3.0432,-3.1338,-3.1859,-3.2105,-3.1987,-3.2351,-3.2717,-3.3071,-3.2994,-3.3286,-3.4118,-3.4004,-3.4058,-3.4382,-3.4424,-3.4412,-3.4412,-3.4142,0.0,-3.3861,-3.2285,-3.1998,-3.2545,-2.9216,-2.8206,-2.8742,-2.6424,-2.5472,-2.5423,-2.4763,-2.436,-2.4106,-2.4034,-2.3951,-2.3943,0.0,0.0,0.0,0.0,0.0,0.0,0.0,0.0,0.0,0.0,-2.2079,-2.3098,-2.6032,-2.6449,-2.6464,-2.6401,-2.6134,0.0,0.0,-2.5981,-2.67,-2.7384,-2.8325,-2.9104,-2.9693,-3.0505,-3.1236,-3.1797,-3.2385,-3.3025,-3.36,-3.3862,-3.4136,-3.4397,-3.4397,-3.4397,-3.4384,-3.411,-3.3992,-3.3966,-3.3666,-3.2868,-3.181,-3.1522,-3.0882,-3.0059,-2.947,-2.8882,-2.8247,-2.7369,-2.6848,-2.6332,-2.4874,-2.4234,-2.3615,0.0,0.0,0.0,0.0,0.0,0.0,0.0,0.0,0.0,0.0,0.0,0.0,0.0,0.0,-2.1746,-2.3105,0.0,-2.5092,-2.6396,-2.7541,-2.8524,-2.9208,-3.0005,-3.0494,-3.0399,-3.0894,-3.1433,-3.1745,-3.2368,-3.2769,-3.2769,-3.3005,-3.3306,-3.3709,-3.3553,-3.3727,-3.43,-3.4142,-3.4255,-3.4524,-3.4367,-3.4311,-3.4311,-3.3963,-3.3805,-3.3579,-3.2477,-3.2008,-3.1883,-2.9806,-2.892,-2.8742,-2.684,-2.5709,-2.5087,-2.4913,-2.4738,-2.4555,-2.438,-2.4376,-2.4352,0.0,0.0,0.0,0.0,0.0,0.0,0.0,0.0,0.0,0.0,-2.1399,-2.2117,-2.4438,-2.493,-2.5001,0.0,0.0,0.0,0.0,-2.6181,-2.7176,-2.8368,-2.8996,-2.9549,-3.0087,-3.1223,-3.1863,-3.1967,-3.3077,-3.3639,-3.3757,-3.4188,-3.4397,-3.4397,-3.4397,-3.4397,-3.4397,-3.4397,-3.4397,-3.4397,-3.4397,-3.3783,-3.2803,-3.2189,-3.1588,-3.0908,-3.0309,-2.9457,-2.8564,-2.8446,-2.8007,-2.7356,-2.662,-2.621,-2.5502,-2.2902,-2.2658,0.0,0.0,0.0,0.0,0.0,0.0,0.0,0.0,-2.076,-2.0762,-2.2382,-2.2845,-2.3433,-2.4999,-2.5875,-2.6758,-2.7999,-2.8887,-2.9601,-3.0067,-3.0605,-3.0946,-3.0946,-3.1746,-3.2228,-3.206,-3.2672,-3.3106,-3.3272,-3.3524,-3.3749,-3.3918,-3.3974,-3.403,-3.4086,-3.403,-3.4142,-3.4412,-3.4199,-3.4086,-3.3974,-3.3692,-3.3409,-3.3193,-3.2602,-3.1903,-3.1179,-3.0878,-2.9933,-2.8444,-2.7435,-2.6241,-2.5111,-2.5111,-2.5111,-2.5071,-2.4785,-2.4682,-2.4642,0.0,0.0,0.0,0.0,0.0,0.0,0.0,0.0,0.0,0.0,0.0,0.0,0.0,0.0,0.0,0.0,0.0,0.0,-2.5326,-2.6785,-2.7874,-2.8381,-2.8996,-2.9549,-3.0087,-3.1223,-3.2045,-3.2594,-3.326,-3.3835,-3.4306,-3.4371,-3.4397,-3.4397,-3.4397,-3.4397,-3.4397,-3.4397,-3.4397,-3.4397,-3.4397,-3.4031,-3.343,-3.2829,-3.1927,-3.0908,-3.0309,-2.9719,-2.914,-2.859,-2.8007,-2.7356,-2.662,-2.6738,-2.6449,-2.2937,-2.2659,-2.2841,-2.0005,-2.0103,-2.125,-2.2139,-2.1937,-2.2271,0.0,-2.4619,-2.4054,-2.6011,-2.6415,-2.6601,-2.7165,-2.7486,-2.803,-2.9001,-2.958,-3.0077,-3.0543,-3.135,-3.1833,-3.1833,-3.2218,-3.2629,-3.2993,-3.336,-3.3438,-3.3222,-3.3727,-3.3816,-3.3306,-3.3523,-3.3794,-3.4097,-3.3805,-3.3805,-3.4142,-3.4086,-3.3974,-3.3625,-3.3353,-3.325,-3.3136,-3.171,-3.1536,-3.243,-3.1295,-2.9453,-2.7194,-2.7073,-2.6241,-2.5111,-2.5111,-2.5111,-2.5103,-2.5063,-2.5048,-2.504,0.0,0.0,0.0,0.0,0.0,0.0,0.0,0.0,0.0,0.0,0.0,0.0,0.0,0.0,0.0,0.0,0.0,0.0,-2.495,-2.6622,-2.7852,-2.8394,-2.8996,-2.9549,-3.0087,-3.1223,-3.1915,-3.2163,-3.2777,-3.3365,-3.3927,-3.3927,-3.4097,-3.4397,-3.4397,-3.4397,-3.4397,-3.4397,-3.4214,-3.3927,-3.3927,-3.3378,-3.2502,-3.1927,-3.1196,-3.0377,-2.9574,-2.8905,0.0,0.0,-2.7179,-2.6773,-2.7391,-2.721,-2.6372,-2.426,-2.3897,-2.391,-2.2792,-2.2613,-2.2903,-2.3781,-2.4001,-2.4399,-2.5765,-2.5513,-2.548,-2.72,-2.7713,-2.7977,-2.8515,-2.8796,-2.913,-2.9601,-3.0098,-3.0563,-3.1029,-3.164,-3.2081,-3.2349,-3.273,-3.2926,-3.2887,-3.3353,-3.3466,-3.325,-3.3579,-3.3805,-3.3759,-3.3636,-3.3749,-3.4097,-3.3974,-3.3974,-3.4086,-3.4086,-3.4086,-3.4132,-3.3625,-3.3409,-3.3409,-3.2363,-3.2201,-3.2612,-3.1363,-2.9757,-2.8026,-2.7315,-2.6241,-2.5111,-2.5111,-2.5111,-2.5111,-2.5111,-2.5111,-2.5111,0.0,0.0,0.0,0.0,0.0,0.0,0.0,0.0,0.0,0.0,0.0,0.0,0.0,0.0,0.0,0.0,0.0,0.0,0.0,-2.6237,-2.7511,-2.8381,-2.8839,-2.9301,-2.9889,-3.0988,-3.1562,-3.1562,-3.2333,-3.2921,-3.3339,-3.3339,-3.3548,-3.3927,-3.3927,-3.3927,-3.3927,-3.3927,-3.3705,-3.3339,-3.3339,-3.2646,-3.1523,-3.1143,-3.0418,-2.9548,-2.8872,-2.8248,0.0,0.0,-2.6456,-2.6154,-2.7192,-2.6981,-2.6079,-2.4744,-2.3995,-2.3699,-2.4261,-2.4249,-2.4284,-2.5062,-2.5795,-2.6361,-2.6411,-2.6543,-2.6972,-2.8158,-2.8591,-2.8872,-2.934,-2.9609,-2.9848,-2.9995,-3.0491,-3.0998,-3.1319,-3.1868,-3.2297,-3.2638,-3.2898,-3.2965,-3.2737,-3.3182,-3.3353,-3.3079,-3.3353,-3.3579,-3.3692,-3.3579,-3.3636,-3.3974,-3.3974,-3.3974,-3.3974,-3.3974,-3.3974,-3.4019,-3.3568,-3.3353,-3.3353,-3.2898,-3.2669,-3.2669,-3.172,-3.0587,-2.9335,-2.8444,-2.7073,-2.5647,-2.5647,-2.541,-2.5111,-2.5111,-2.5111,-2.5111,0.0,0.0,0.0,0.0,0.0,0.0,0.0,0.0,0.0,0.0,0.0,0.0,0.0,0.0,0.0,0.0,0.0,0.0,0.0,-2.5616,-2.6801,-2.8342,-2.8433,-2.8721,-2.9287,-3.0424,-3.1013,-3.1013,-3.2136,-3.2698,-3.2725,-3.2725,-3.2725,-3.2738,-3.2738,-3.2738,-3.2738,-3.2738,-3.2738,-3.2725,-3.2725,-3.2032,-3.1013,-3.0999,-2.9936,-2.8437,-2.8437,0.0,0.0,0.0,-2.6066,-2.5604,-2.543,-2.572,-2.5672,-2.3565,-2.2038,-2.1326,-2.2841,-2.375,-2.4576,-2.569,-2.6973,-2.7987,-2.8269,-2.866,-2.9096,-2.9323,-2.9513,-2.9658,-2.9679,-2.9839,-2.9984,-2.9994,-3.076,-3.135,-3.1295,-3.2081,-3.2659,-3.2669,-3.2727,-3.2727,-3.2669,-3.3022,-3.3079,-3.2737,-3.3012,-3.3079,-3.2784,-3.3022,-3.3363,-3.3636,-3.3625,-3.3625,-3.3625,-3.3625,-3.3342,-3.2727,-3.2737,-3.2727,-3.2727,-3.2727,-3.2669,-3.2669,-3.2669,-3.1893,-3.0762,-3.0704,-2.9216,-2.6952,-2.6952,-2.6181,-2.5111,-2.5111,-2.5111,-2.5111,0.0,0.0,0.0,0.0,0.0,0.0,0.0,0.0,0.0,0.0,0.0,0.0,0.0,0.0,0.0,0.0,0.0,0.0,0.0,-2.4887,-2.6136,-2.6661,-2.7771,-2.8512,-2.8708,-2.948,-2.9849,-2.9849,-3.0278,-3.062,-3.0949,-3.0949,-3.1367,-3.2084,-3.2084,-3.2084,-3.2084,-3.2084,-3.1692,-3.0949,-3.0949,-3.0542,-2.9735,-2.8634,-2.7777,-2.6971,0.0,0.0,0.0,0.0,-2.4873,-2.479,-2.5732,-2.5457,-2.4486,-2.3,-2.2518,-2.2685,-2.3819,-2.5211,-2.6608,-2.759,-2.8664,-2.9474,-2.9589,-2.9797,-2.9988,-2.9899,-2.9302,-2.8745,-2.8391,-2.8503,-2.8605,-2.8462,-2.9845,-3.1029,-3.1329,-3.1888,-3.2328,-3.2638,-3.2669,-3.2669,-3.2669,-3.3022,-3.3079,-3.2727,-3.3022,-3.3136,-3.3022,-3.3136,-3.3306,-3.3568,-3.3409,-3.3409,-3.3625,-3.3625,-3.3512,-3.3296,-3.3296,-3.3069,-3.2737,-3.2908,-3.2898,-3.2669,-3.1835,-3.1179,-3.0645,-2.8979,-2.7787,-2.6892,-2.6067,-2.5464,-2.5111,-2.5111,-2.5111,-2.5111,0.0,0.0,0.0,0.0,0.0,0.0,0.0,0.0,0.0,0.0,0.0,0.0,0.0,0.0,0.0,0.0,0.0,-2.2339,0.0,0.0,-2.4839,-2.5258,-2.63,-2.6948,-2.719,-2.7712,-2.8069,-2.8265,-2.8682,-2.9073,-2.9451,-2.9696,-3.0179,-3.0921,-3.0921,-3.0921,-3.0921,-3.0921,-3.0181,-2.9019,-2.9019,-2.8351,-2.7237,-2.6159,-2.5515,0.0,0.0,0.0,0.0,0.0,-2.3885,-2.408,-2.4913,-2.4469,-2.3553,-2.314,-2.316,-2.3676,-2.5285,-2.6524,-2.7693,-2.8969,-2.9871,-3.0411,-3.0313,-3.0342,-3.0266,-3.0013,-2.8844,-2.7762,-2.7412,-2.7643,-2.7583,-2.6823,-2.8579,-3.0148,-3.0445,-3.1007,-3.1676,-3.2597,-3.2669,-3.2669,-3.2669,-3.2898,-3.2908,-3.2737,-3.2908,-3.3022,-3.3022,-3.3136,-3.3306,-3.3466,-3.3353,-3.3353,-3.3466,-3.3466,-3.3409,-3.3285,-3.3285,-3.3069,-3.2737,-3.2908,-3.2908,-3.2669,-3.1835,-3.1237,-3.0645,-2.9039,-2.7787,-2.6892,-2.612,-2.5525,-2.5111,-2.5111,-2.5111,-2.5111,0.0,0.0,0.0,0.0,0.0,0.0,0.0,0.0,0.0,0.0,0.0,0.0,0.0,0.0,0.0,0.0,0.0,0.0,0.0,0.0,0.0,-2.4171,-2.4144,-2.4374,-2.494,-2.5335,-2.5773,-2.6291,-2.7426,-2.8006,-2.8018,-2.8682,-2.9039,-2.9052,-2.9052,-2.9052,-2.9052,-2.9017,-2.8213,-2.6894,-2.6894,-2.567,-2.3854,-2.3798,0.0,0.0,0.0,0.0,0.0,-2.2663,-2.312,-2.3497,-2.3135,-2.2906,-2.2961,-2.3967,-2.3961,-2.4259,-2.6969,-2.7635,-2.7986,-2.9796,-3.0592,-3.088,-3.0558,-3.0317,-3.0003,-2.9635,-2.8084,-2.6764,-2.6685,-2.7103,-2.6922,-2.537,-2.7202,-2.888,-2.9023,-2.9753,-3.0893,-3.2509,-3.2669,-3.2669,-3.2669,-3.2669,-3.2669,-3.2669,-3.2669,-3.2669,-3.2669,-3.3022,-3.3193,-3.3193,-3.3409,-3.3466,-3.3193,-3.3193,-3.3022,-3.2727,-3.2727,-3.2737,-3.2669,-3.2727,-3.2727,-3.2669,-3.2737,-3.2018,-3.0878,-3.0762,-2.9275,-2.7073,-2.6952,-2.6181,-2.5111,-2.5111,-2.5111,-2.5111,0.0,0.0,0.0,0.0,0.0,0.0,0.0,0.0,0.0,0.0,0.0,0.0,0.0,0.0,0.0,0.0,0.0,0.0,0.0,0.0,0.0,0.0,0.0,0.0,0.0,0.0,0.0,0.0,0.0,-2.5105,-2.5,-2.5174,-2.5454,-2.5787,-2.5621,-2.5576,-2.5576,-2.5461,-2.4969,-2.4284,0.0,-2.3925,-2.3356,0.0,0.0,0.0,0.0,0.0,-2.1745,-2.2193,-2.2581,-2.2914,-2.3393,-2.3672,-2.3956,-2.4522,-2.5367,-2.6356,-2.7414,-2.8553,-2.9682,-3.0488,-3.1083,-3.1244,-3.0644,-3.0457,-2.9952,-2.8241,-2.6592,-2.5063,-2.3945,-2.4622,-2.5237,-2.5129,-2.7371,-2.9568,-3.0594,-3.0943,-3.148,-3.2566,-3.2669,-3.2669,-3.2669,-3.2669,-3.2669,-3.2669,-3.2669,-3.2669,-3.2669,-3.2784,-3.2955,-3.3193,-3.3012,-3.3012,-3.3193,-3.2965,-3.2898,-3.3079,-3.3079,-3.2955,-3.2737,-3.3182,-3.3126,-3.2727,-3.2965,-3.2727,-3.2076,-3.0168,-2.8979,-2.8206,-2.6302,-2.541,-2.5111,-2.5111,-2.5111,-2.5111,0.0,0.0,0.0,0.0,0.0,0.0,0.0,0.0,0.0,0.0,0.0,0.0,0.0,0.0,0.0,0.0,0.0,0.0,0.0,0.0,0.0,0.0,0.0,0.0,0.0,0.0,0.0,0.0,0.0,0.0,0.0,-2.3589,-2.3884,-2.4206,-2.3968,-2.3895,-2.3956,-2.3877,0.0,0.0,0.0,0.0,0.0,0.0,0.0,0.0,0.0,0.0,-2.1353,-2.1797,-2.2324,-2.2864,-2.3482,-2.3944,-2.4378,-2.538,-2.6411,-2.7523,-2.8513,-2.9644,-3.0624,-3.1094,-3.1258,-3.103,-3.0153,-2.9427,-2.8467,-2.6726,-2.4916,-2.3364,-2.2545,-2.3551,-2.4336,-2.3813,-2.6389,-2.8757,-2.9625,-3.0184,-3.1007,-3.2256,-3.2545,-3.2669,-3.2669,-3.2669,-3.2669,-3.2669,-3.2669,-3.2669,-3.2669,-3.2851,-3.2965,-3.2965,-3.2965,-3.2965,-3.2965,-3.2784,-3.2784,-3.2965,-3.2965,-3.2908,-3.2727,-3.3069,-3.3012,-3.2727,-3.2908,-3.2545,-3.172,-2.9698,-2.8564,-2.7847,-2.5884,-2.5111,-2.5111,-2.5111,-2.5111,-2.5111,0.0,0.0,0.0,0.0,0.0,0.0,0.0,0.0,0.0,0.0,0.0,0.0,0.0,0.0,0.0,0.0,0.0,0.0,0.0,0.0,0.0,0.0,0.0,0.0,0.0,0.0,0.0,0.0,0.0,0.0,0.0,0.0,0.0,0.0,0.0,0.0,0.0,0.0,0.0,0.0,0.0,0.0,0.0,0.0,0.0,0.0,0.0,0.0,-2.1185,-2.1521,-2.2207,-2.3012,-2.3635,-2.4085,-2.4711,-2.6268,-2.7258,-2.8286,-2.9801,-3.0548,-3.0996,-3.1371,-3.1153,-3.0535,-2.9201,-2.7897,-2.6581,-2.5132,-2.3298,-2.1961,-2.1824,-2.3075,-2.3777,-2.251,-2.5159,-2.7471,-2.7853,-2.8966,-3.0287,-3.1828,-3.239,-3.2669,-3.2669,-3.2669,-3.2669,-3.2669,-3.2669,-3.2669,-3.2669,-3.2965,-3.3022,-3.2727,-3.2965,-3.3022,-3.2669,-3.2669,-3.2669,-3.2669,-3.2669,-3.2669,-3.2669,-3.2784,-3.2784,-3.2669,-3.2612,-3.1893,-3.0704,-2.9216,-2.7966,-2.69,-2.5586,-2.5111,-2.5103,-2.5226,-2.5226,-2.5226,0.0,0.0,0.0,0.0,0.0,0.0,0.0,0.0,0.0,0.0,0.0,0.0,0.0,0.0,0.0,0.0,0.0,0.0,0.0,0.0,0.0,0.0,0.0,0.0,0.0,-2.0705,-2.0655,-2.0746,-2.0682,0.0,0.0,0.0,0.0,0.0,0.0,0.0,0.0,0.0,0.0,0.0,0.0,0.0,0.0,0.0,0.0,0.0,0.0,-2.0955,-2.1375,0.0,-2.2059,-2.2663,-2.3951,-2.4945,-2.581,-2.6889,-2.8111,-2.9332,-3.0035,-3.0548,-3.0869,-3.0716,-3.0813,-3.0262,-2.7914,-2.7164,-2.6209,-2.3427,-2.2401,-2.1705,-2.0757,-2.1605,-2.2778,-2.3881,-2.5693,-2.7593,-2.9332,-3.0455,-3.1278,-3.1926,-3.239,-3.2669,-3.2669,-3.2669,-3.2669,-3.2669,-3.2669,-3.2669,-3.2669,-3.2737,-3.2784,-3.2669,-3.2737,-3.2784,-3.2669,-3.2669,-3.2669,-3.2669,-3.2669,-3.2669,-3.2737,-3.3239,-3.3182,-3.2669,-3.2102,-3.1449,-3.0645,-2.8265,-2.7194,-2.69,-2.5586,-2.5111,-2.5173,-2.5709,-2.5953,-2.6014,0.0,0.0,0.0,0.0,0.0,0.0,0.0,0.0,0.0,0.0,0.0,0.0,0.0,0.0,0.0,0.0,0.0,0.0,0.0,0.0,0.0,0.0,0.0,0.0,0.0,-2.0637,-2.0524,-2.0347,0.0,-2.0105,-1.9888,-1.9823,-1.9772,-1.9708,-1.9565,-1.9473,-1.942,0.0,0.0,0.0,-1.921,-1.9158,0.0,0.0,0.0,0.0,0.0,-2.0758,-2.123,-2.1191,-2.1609,-2.2407,-2.3989,-2.5142,-2.6092,-2.7031,-2.8342,-2.9587,-3.0078,-3.0373,-3.0553,-3.0693,-3.0144,-2.9053,-2.6944,-2.5809,-2.448,-2.2026,-2.1281,-2.09,-2.0235,-2.1133,-2.2317,-2.3353,-2.5199,-2.7022,-2.8441,-2.9804,-3.0915,-3.1609,-3.2095,-3.2411,-3.2706,-3.2669,-3.2669,-3.2669,-3.2669,-3.2669,-3.2669,-3.2669,-3.2669,-3.2669,-3.2669,-3.2669,-3.2669,-3.2669,-3.2669,-3.2669,-3.2669,-3.2669,-3.2737,-3.3182,-3.3126,-3.2669,-3.1862,-3.1217,-3.0587,-2.8026,-2.7013,-2.69,-2.5586,-2.5111,-2.5173,-2.5831,-2.5892,-2.5717,0.0,0.0,0.0,0.0,0.0,0.0,0.0,0.0,-1.8498,-1.8498,-1.8498,-1.8439,0.0,0.0,0.0,0.0,0.0,0.0,0.0,0.0,0.0,0.0,0.0,0.0,0.0,0.0,0.0,-2.0207,-2.0144,0.0,0.0,0.0,0.0,0.0,-1.9539,-1.9486,-1.9565,-1.9565,0.0,0.0,0.0,-1.9237,0.0,0.0,0.0,0.0,0.0,-2.0351,-2.0853,-2.0716,-2.1075,-2.1901,-2.348,-2.4653,-2.5661,-2.6715,-2.7976,-2.9161,-2.9796,-3.0035,-3.0144,-3.0247,-2.931,-2.7828,-2.5976,-2.4467,-2.296,-2.0995,-2.0428,-2.0201,-1.9928,-2.0844,-2.184,-2.2474,-2.4288,-2.5986,-2.721,-2.8724,-3.0166,-3.1267,-3.1774,-3.2163,-3.2628,-3.2669,-3.2669,-3.2669,-3.2669,-3.2669,-3.2669,-3.2669,-3.2669,-3.2669,-3.2669,-3.2669,-3.2669,-3.2669,-3.2669,-3.2669,-3.2669,-3.2669,-3.2727,-3.3079,-3.2965,-3.244,-3.1353,-3.0636,-2.9992,-2.7615,-2.6598,-2.6485,-2.5464,-2.5111,-2.5173,-2.5831,-2.5831,-2.5656,0.0,0.0,0.0,0.0,0.0,0.0,0.0,0.0,-1.8498,-1.8498,-1.8498,-1.8445,0.0,0.0,0.0,0.0,0.0,0.0,0.0,0.0,0.0,0.0,0.0,0.0,0.0,0.0,0.0,-2.0207,-1.9965,0.0,0.0,0.0,0.0,0.0,0.0,-1.9512,-1.942,-1.942,0.0,0.0,0.0,0.0,0.0,0.0,0.0,0.0,0.0,-2.016,-2.0238,-2.0641,-2.0633,-2.0655,-2.1945,-2.309,-2.426,-2.568,-2.6836,-2.7822,-2.8934,-2.9532,-2.9591,-2.8534,-2.8199,-2.7378,-2.4651,-2.3719,-2.2915,-2.0769,-2.0337,-2.0201,-1.9928,-2.0181,-2.0942,-2.2382,-2.3156,-2.4438,-2.7059,-2.8289,-2.955,-3.1213,-3.1774,-3.2163,-3.2628,-3.2669,-3.2669,-3.2669,-3.2669,-3.2669,-3.2669,-3.2669,-3.2669,-3.2669,-3.2669,-3.2669,-3.2669,-3.2669,-3.2669,-3.2669,-3.2669,-3.2669,-3.2727,-3.3079,-3.2727,-3.1787,-3.0275,-2.9089,-2.8095,-2.6128,-2.5288,-2.5288,-2.5173,-2.5111,-2.5173,-2.5831,-2.638,-2.6935,0.0,0.0,0.0,0.0,0.0,0.0,0.0,0.0,-1.8615,-1.8615,-1.8556,0.0,0.0,0.0,0.0,0.0,0.0,0.0,0.0,0.0,0.0,0.0,0.0,0.0,0.0,0.0,-1.9484,-1.9609,-1.9484,0.0,0.0,0.0,0.0,0.0,0.0,-1.9682,-1.963,-1.9473,0.0,0.0,0.0,0.0,0.0,0.0,0.0,0.0,0.0,0.0,-1.9987,-1.9917,-2.0005,-2.0249,-2.0612,-2.1302,-2.241,-2.4693,-2.5945,-2.6802,-2.78,-2.8075,-2.8025,-2.7743,-2.6781,-2.5538,-2.4137,-2.2974,-2.1807,-2.0363,-1.9965,-1.9783,-1.9517,-1.9563,-2.0025,-2.1246,-2.2005,-2.3032,-2.4836,-2.6628,-2.8269,-2.9852,-3.0966,-3.193,-3.2607,-3.2669,-3.2669,-3.2669,-3.2669,-3.2669,-3.2669,-3.2669,-3.2669,-3.2669,-3.2669,-3.2669,-3.2669,-3.2669,-3.2669,-3.2669,-3.2669,-3.2669,-3.2727,-3.3079,-3.2669,-3.173,-3.0451,-2.9384,-2.8385,-2.6485,-2.5709,-2.5647,-2.5288,-2.5111,-2.5234,-2.6258,-2.6562,-2.6684,0.0,0.0,0.0,0.0,0.0,0.0,0.0,0.0,0.0,0.0,0.0,0.0,0.0,0.0,0.0,0.0,0.0,0.0,0.0,0.0,0.0,0.0,0.0,0.0,0.0,0.0,-1.884,-1.8902,-1.8854,-1.8982,0.0,0.0,-1.917,-1.9195,0.0,0.0,0.0,0.0,0.0,0.0,0.0,0.0,0.0,0.0,0.0,0.0,0.0,0.0,0.0,0.0,0.0,-1.9723,-1.9722,-2.0052,0.0,-2.3402,-2.4734,-2.5614,-2.6457,-2.6798,-2.687,-2.6849,-2.5623,-2.4256,-2.3628,-2.2354,-2.0997,-2.0019,-1.9654,-1.9417,-1.9234,-1.9188,-1.9515,0.0,-2.1117,-2.1985,-2.3398,-2.4899,-2.6413,-2.793,-2.8996,-3.0138,-3.1578,-3.2333,-3.2669,-3.2669,-3.2669,-3.2669,-3.2669,-3.2669,-3.2669,-3.2669,-3.2669,-3.2669,-3.2669,-3.2669,-3.2669,-3.2669,-3.2669,-3.2669,-3.2737,-3.2955,-3.2487,-3.1421,-3.0577,-2.9571,-2.8522,-2.6788,-2.6075,-2.6014,-2.5349,-2.5111,-2.5234,-2.6327,-2.6441,-2.638,0.0,0.0,0.0,0.0,0.0,0.0,0.0,0.0,0.0,0.0,0.0,0.0,0.0,0.0,0.0,0.0,0.0,0.0,0.0,0.0,0.0,0.0,0.0,0.0,0.0,0.0,-1.8463,-1.8213,-1.8084,-1.8013,-1.8025,-1.775,-1.769,-1.7798,0.0,0.0,0.0,0.0,0.0,0.0,0.0,0.0,0.0,0.0,0.0,0.0,0.0,0.0,0.0,0.0,0.0,0.0,0.0,-1.9618,-1.9955,-2.177,-2.3134,-2.4158,-2.4854,-2.5777,-2.6464,-2.5777,-2.4893,-2.3964,-2.3037,-2.1882,-2.0736,-1.9808,-1.9387,-1.9188,-1.9188,-1.9188,-1.9515,-2.0545,-2.0717,-2.1384,-2.3347,-2.3384,-2.386,-2.5547,-2.5513,-2.6461,-2.9182,-3.1424,-3.2669,-3.2669,-3.2669,-3.2669,-3.2669,-3.2669,-3.2669,-3.2669,-3.2669,-3.2669,-3.2669,-3.2669,-3.2669,-3.2669,-3.2669,-3.2669,-3.2669,-3.2669,-3.2018,-3.0762,-3.0177,-2.9185,-2.79,-2.6623,-2.6075,-2.6014,-2.5349,-2.5111,-2.5173,-2.5831,-2.6136,-2.625,0.0,0.0,0.0,0.0,0.0,0.0,0.0,0.0,0.0,0.0,0.0,0.0,0.0,0.0,0.0,0.0,0.0,0.0,0.0,0.0,0.0,0.0,0.0,0.0,0.0,0.0,0.0,-1.7384,-1.7338,-1.7512,-1.7846,-1.7774,-1.775,-1.781,-1.7702,-1.7654,0.0,0.0,0.0,0.0,0.0,0.0,-1.7299,0.0,0.0,0.0,0.0,0.0,0.0,0.0,0.0,0.0,0.0,0.0,0.0,-2.0214,-2.136,-2.2443,-2.2808,-2.3016,-2.3188,-2.3272,-2.2481,-2.1697,-2.181,-2.1042,-2.011,-1.9679,-1.9104,-1.8773,-1.892,-1.8635,-1.8816,-1.995,-2.0022,-2.0253,-2.1323,-2.3177,-2.4877,-2.6054,-2.8622,-3.0704,-3.1542,-3.2266,-3.2669,-3.2669,-3.2669,-3.2669,-3.2669,-3.2669,-3.2669,-3.2669,-3.2669,-3.2669,-3.2669,-3.2669,-3.2669,-3.2669,-3.2669,-3.2669,-3.2669,-3.1777,-3.1179,-3.0762,-2.9698,-2.9007,-2.8558,-2.7228,-2.6692,-2.6631,-2.5533,-2.5111,-2.5173,-2.5831,-2.6075,-2.625,0.0,0.0,0.0,0.0,0.0,0.0,0.0,0.0,0.0,0.0,0.0,0.0,0.0,0.0,0.0,0.0,0.0,0.0,0.0,0.0,0.0,0.0,0.0,0.0,0.0,0.0,0.0,-1.6704,-1.6614,-1.675,-1.7126,-1.6986,-1.6963,-1.6986,-1.6858,-1.6872,0.0,0.0,0.0,0.0,0.0,0.0,-1.7117,0.0,0.0,0.0,0.0,0.0,0.0,0.0,0.0,0.0,0.0,0.0,0.0,0.0,-2.0131,-2.0816,-2.1281,-2.1545,-2.179,-2.2119,-2.1401,-2.0738,-2.1132,-2.051,-1.9708,-1.9487,-1.8874,-1.8404,-1.8651,-1.8388,-1.846,-1.9441,-1.9546,-1.9964,-2.121,-2.291,-2.4517,-2.5838,-2.9208,-3.1445,-3.1445,-3.2225,-3.2669,-3.2669,-3.2669,-3.2669,-3.2669,-3.2669,-3.2669,-3.2669,-3.2669,-3.2669,-3.2669,-3.2669,-3.2669,-3.2669,-3.2669,-3.2669,-3.2669,-3.1363,-3.082,-3.0704,-2.9453,-2.8948,0.0,-2.784,-2.7358,-2.7297,-2.6205,-2.5839,-2.59,-2.6562,-2.6684,-2.6623,0.0,0.0,0.0,0.0,0.0,0.0,0.0,0.0,0.0,0.0,0.0,0.0,0.0,0.0,0.0,0.0,0.0,0.0,0.0,0.0,0.0,0.0,0.0,0.0,0.0,-1.6457,-1.6362,-1.6156,-1.5903,-1.5871,-1.6005,-1.5695,-1.5641,-1.5778,-1.5507,-1.5556,-1.5837,-1.6081,-1.6553,-1.7085,-1.6817,-1.6987,0.0,0.0,0.0,0.0,0.0,0.0,0.0,0.0,0.0,0.0,0.0,0.0,0.0,0.0,0.0,0.0,0.0,-2.1029,-2.1661,-2.1934,-2.1287,-2.0667,-2.0855,-2.0201,0.0,-1.9242,-1.8589,-1.8179,-1.8435,-1.8337,-1.8375,-1.8999,-1.9334,-2.0335,-2.2491,-2.284,-2.3504,-2.5281,-2.795,-2.959,-2.942,-3.1424,-3.2669,-3.2669,-3.2669,-3.2669,-3.2669,-3.2669,-3.2669,-3.2669,-3.2669,-3.2669,-3.2669,-3.2669,-3.2669,-3.2669,-3.2737,-3.2737,-3.2669,-3.1295,-3.0704,-3.0645,-2.9275,-2.8769,-2.8865,-2.8199,-2.796,-2.796,-2.7237,-2.6995,-2.7056,-2.7719,-2.7539,-2.7177,0.0,0.0,0.0,0.0,0.0,0.0,0.0,0.0,0.0,0.0,0.0,0.0,0.0,0.0,0.0,0.0,0.0,0.0,0.0,0.0,0.0,0.0,0.0,0.0,0.0,-1.6078,-1.5925,-1.5826,-1.576,-1.5873,-1.6161,-1.6068,-1.628,-1.668,-1.6414,-1.6213,-1.6115,-1.6177,-1.63,-1.6434,-1.662,-1.6708,0.0,0.0,0.0,0.0,-1.6426,-1.6502,0.0,0.0,0.0,0.0,0.0,0.0,0.0,0.0,-1.9121,-1.91,-1.9119,0.0,-1.8877,-1.9715,-1.9342,-1.9042,0.0,-1.97,-1.9288,-1.9188,-1.8589,-1.8133,-1.8179,-1.8187,-1.8327,-1.8739,-1.907,-2.0015,-2.2181,-2.5209,-2.7239,-2.7374,-3.0087,-3.1251,-2.959,-3.1424,-3.2669,-3.2669,-3.2669,-3.2669,-3.2669,-3.2669,-3.2669,-3.2669,-3.2669,-3.2669,-3.2669,-3.2669,-3.2669,-3.2669,-3.2965,-3.2965,-3.2612,-3.0636,-2.9865,-3.0001,-2.7735,-2.734,-2.8199,-2.7539,-2.7539,-2.796,-2.7237,-2.6995,-2.6995,-2.7177,-2.7116,-2.7116,0.0,0.0,0.0,0.0,0.0,0.0,0.0,0.0,0.0,0.0,0.0,0.0,0.0,0.0,0.0,0.0,0.0,0.0,0.0,0.0,0.0,0.0,0.0,0.0,0.0,-1.5991,-1.5836,-1.576,-1.5886,-1.602,-1.6209,-1.6264,-1.6457,-1.6721,-1.661,-1.6506,-1.6451,-1.6541,-1.6614,-1.67,-1.6738,0.0,0.0,0.0,0.0,0.0,-1.6455,-1.6515,0.0,-1.6901,-1.698,-1.7,0.0,0.0,0.0,0.0,-1.8492,-1.8523,-1.8411,-1.825,-1.8269,-1.8982,-1.8866,-1.8745,-1.943,-1.9371,-1.9142,-1.8928,-1.8458,-1.804,-1.7947,-1.8618,-1.901,-1.8614,-2.01,-2.1824,-2.3211,-2.5583,-2.745,-2.8226,-3.0042,-3.1134,-3.094,-3.2019,-3.2669,-3.2669,-3.2669,-3.2669,-3.2669,-3.2669,-3.2669,-3.2669,-3.2669,-3.2669,-3.2669,-3.2669,-3.2784,-3.2908,-3.2965,-3.2965,-3.2841,-3.0334,-2.9453,-2.9766,-2.7513,-2.7108,-2.802,-2.796,-2.814,-2.8439,-2.808,-2.79,-2.79,-2.79,-2.79,-2.796,0.0,0.0,0.0,0.0,0.0,0.0,0.0,0.0,0.0,0.0,0.0,0.0,0.0,0.0,0.0,0.0,0.0,0.0,0.0,0.0,0.0,0.0,0.0,0.0,0.0,0.0,0.0,-1.58,-1.6033,-1.6208,-1.6348,-1.6432,-1.6443,-1.6479,-1.6565,-1.6634,-1.6731,-1.6905,-1.706,-1.7194,-1.6902,0.0,0.0,0.0,0.0,0.0,0.0,0.0,0.0,-1.6805,-1.6691,-1.65,-1.6641,0.0,0.0,0.0,0.0,0.0,-1.7919,-1.8316,-1.8776,-1.8948,-1.8964,-1.8938,-1.9152,-1.9188,-1.9012,-1.8574,-1.828,-1.8102,-1.8015,-1.9122,-1.9698,-1.8745,-2.1635,-2.4246,-2.4997,-2.5786,-2.6857,-2.8517,-2.943,-3.0535,-3.2039,-3.2473,-3.2669,-3.2669,-3.2669,-3.2669,-3.2669,-3.2669,-3.2669,-3.2669,-3.2669,-3.2612,-3.243,-3.243,-3.2487,-3.2659,-3.243,-3.2487,-3.2716,-3.0041,-2.9098,-2.9521,-2.7581,-2.7116,-2.7771,-2.8439,-2.8737,-2.8865,-2.8984,-2.8984,-2.8984,-2.8984,-2.8984,-2.8984,0.0,0.0,0.0,0.0,0.0,0.0,0.0,0.0,0.0,0.0,0.0,0.0,0.0,0.0,0.0,0.0,0.0,0.0,0.0,0.0,0.0,0.0,0.0,0.0,0.0,0.0,0.0,0.0,0.0,-1.6264,-1.7034,-1.6789,-1.6741,-1.6906,-1.6926,-1.6875,-1.6796,-1.6803,-1.6835,-1.6874,-1.6694,0.0,0.0,0.0,0.0,0.0,0.0,0.0,0.0,-1.6589,-1.6307,-1.5998,-1.6542,0.0,0.0,0.0,0.0,0.0,-1.7554,-1.8404,-1.9229,-1.8707,-1.8482,-1.8526,-1.9061,-1.9004,-1.8781,-1.8574,-1.828,-1.8396,-1.931,-1.8989,-1.8916,-1.9912,-2.2545,-2.5209,-2.7203,-2.9227,-2.9993,-2.8842,-3.0776,-3.1562,-3.0066,-3.1619,-3.2669,-3.2669,-3.2669,-3.2669,-3.2669,-3.2669,-3.2669,-3.2669,-3.2669,-3.219,-3.1121,-3.1063,-3.0878,-3.0412,-3.0568,-3.0869,-3.1121,-2.9316,-2.8435,-2.8155,-2.625,-2.577,-2.6441,-2.7047,-2.7659,-2.8199,-2.8806,-2.8984,-2.8984,-2.8984,-2.8984,-2.8984,0.0,0.0,0.0,0.0,0.0,0.0,0.0,0.0,0.0,0.0,0.0,0.0,0.0,0.0,0.0,0.0,0.0,0.0,0.0,0.0,0.0,0.0,0.0,0.0,0.0,0.0,0.0,0.0,0.0,-1.6692,-1.704,-1.6922,-1.6834,-1.6768,-1.6722,-1.6637,-1.6573,-1.6381,-1.6314,-1.6285,0.0,0.0,0.0,0.0,0.0,0.0,0.0,0.0,0.0,0.0,-1.6026,-1.5645,-1.5698,0.0,0.0,0.0,0.0,0.0,-1.7425,-1.801,-1.8714,-1.9219,-1.9727,-2.0223,-2.0494,-2.0447,-2.013,-1.9234,-1.895,-1.9046,-1.9703,-2.0156,-2.1428,-2.4343,-2.4499,-2.509,-2.7631,-2.8037,-2.8327,-2.8995,-3.0158,-3.097,-3.1154,-3.2127,-3.2669,-3.2669,-3.2669,-3.2669,-3.2669,-3.2669,-3.2669,-3.2669,-3.2669,-3.1777,-2.9806,-2.9747,-2.9747,-2.963,-2.9924,-3.0217,-3.0509,-2.9266,-2.8614,-2.8394,-2.6796,-2.6327,-2.6623,-2.6874,-2.7177,-2.7539,-2.8199,-2.8439,-2.8498,-2.8865,-2.8984,-2.8984,0.0,0.0,0.0,0.0,0.0,0.0,0.0,0.0,0.0,0.0,0.0,0.0,0.0,0.0,0.0,0.0,0.0,0.0,0.0,0.0,0.0,0.0,0.0,0.0,0.0,0.0,-1.5969,-1.6001,-1.6683,-1.6953,-1.6877,-1.6922,-1.6786,-1.6485,-1.6392,-1.6288,-1.623,-1.5941,-1.5826,-1.5768,0.0,0.0,0.0,0.0,0.0,0.0,0.0,0.0,0.0,0.0,0.0,0.0,0.0,0.0,0.0,-1.5707,-1.6086,-1.667,-1.7106,-1.7651,-1.8341,-1.9452,-2.0359,-2.1069,-2.1606,-2.1472,-2.1015,-2.0113,-1.9999,-2.0096,-2.0179,-2.1518,-2.3689,-2.7023,-2.5961,-2.5641,-2.8403,-2.758,-2.7592,-2.9912,-3.0171,-3.0844,-3.254,-3.2669,-3.2669,-3.2669,-3.2669,-3.2669,-3.2669,-3.2669,-3.2669,-3.2669,-3.2669,-3.1478,-2.892,-2.892,-2.8801,-2.8614,-2.9048,-2.9403,-2.9747,-2.9048,-2.8692,-2.8641,-2.7461,-2.6995,-2.6995,-2.6995,-2.7116,-2.7297,-2.7779,-2.808,-2.8319,-2.8797,-2.8984,-2.8984,0.0,0.0,0.0,0.0,0.0,0.0,0.0,0.0,0.0,0.0,0.0,0.0,0.0,0.0,0.0,0.0,0.0,0.0,0.0,0.0,0.0,0.0,0.0,0.0,0.0,-1.5806,-1.6079,-1.6649,-1.6689,-1.6765,-1.6821,-1.6825,-1.6581,-1.6142,-1.6114,-1.598,-1.5759,-1.573,-1.5604,-1.5449,-1.5679,0.0,0.0,0.0,0.0,0.0,0.0,0.0,0.0,0.0,0.0,0.0,0.0,0.0,-1.5451,-1.5573,-1.5845,-1.6136,-1.62,-1.75,-1.8784,-1.8637,-1.8677,-1.9242,-2.1248,-2.0836,-2.0249,-2.1033,-2.15,-2.1769,-2.1511,-2.2538,-2.3655,-2.4334,-2.5886,-2.8002,-3.0799,-3.1018,-3.1347,-3.2339,-3.2452,-3.254,-3.2659,-3.2669,-3.2669,-3.2669,-3.2669,-3.2669,-3.2669,-3.2669,-3.2669,-3.2669,-3.2669,-3.1478,-2.892,-2.892,-2.8026,-2.6311,-2.6926,-2.753,-2.8131,-2.808,-2.8071,-2.8011,-2.7297,-2.6995,-2.6995,-2.6995,-2.7358,-2.796,-2.796,-2.8379,-2.8925,-2.8984,-2.8984,-2.8984,0.0,0.0,0.0,0.0,0.0,0.0,0.0,0.0,0.0,0.0,0.0,0.0,0.0,0.0,0.0,0.0,0.0,0.0,0.0,0.0,0.0,0.0,0.0,-1.5229,-1.5919,-1.6016,-1.6252,-1.6696,-1.6819,-1.6766,-1.6545,-1.6545,0.0,-1.5846,-1.571,-1.5575,-1.5391,-1.5167,-1.5133,-1.5207,-1.5173,-1.5345,0.0,0.0,0.0,0.0,0.0,0.0,0.0,0.0,-1.5109,-1.4843,-1.4895,-1.5172,-1.5495,-1.537,-1.5601,-1.5918,-1.6171,-1.744,-1.8707,-1.8578,-1.8823,-1.9675,-2.181,-2.1987,-2.148,-2.0971,-2.1925,-2.2657,-2.1915,-2.4248,-2.6005,-2.5252,-2.7072,-2.9183,-3.112,-3.1381,-3.1712,-3.2623,-3.2669,-3.2669,-3.2669,-3.2669,-3.2669,-3.2669,-3.2669,-3.2669,-3.2669,-3.2669,-3.2669,-3.2669,-3.2669,-3.1478,-2.892,-2.892,-2.7735,-2.5472,-2.6136,-2.6744,-2.7418,-2.7779,-2.8199,-2.8558,-2.79,-2.7599,-2.7599,-2.7177,-2.7177,-2.7418,-2.784,-2.8379,-2.8984,-2.8984,-2.8984,-2.8984,0.0,0.0,0.0,0.0,0.0,0.0,0.0,0.0,0.0,0.0,0.0,0.0,0.0,0.0,0.0,0.0,0.0,0.0,0.0,0.0,0.0,0.0,0.0,-1.5189,-1.5869,-1.6096,-1.6416,-1.6781,-1.6804,-1.6637,-1.6306,0.0,0.0,-1.5614,-1.543,-1.5302,-1.5199,-1.495,-1.497,-1.5178,-1.5128,-1.5269,0.0,0.0,0.0,0.0,0.0,0.0,0.0,0.0,-1.498,-1.4808,-1.4834,-1.5149,-1.5431,-1.5294,-1.5677,-1.6208,-1.6638,-1.7491,-1.841,-1.9023,-1.9207,-1.9904,-2.2384,-2.2618,-2.2298,-2.21,-2.2905,-2.3507,-2.3125,-2.5392,-2.7051,-2.6265,-2.8015,-2.9953,-3.1205,-3.1381,-3.1712,-3.2623,-3.2669,-3.2669,-3.2669,-3.2669,-3.2669,-3.2669,-3.2669,-3.2669,-3.2669,-3.2669,-3.2669,-3.2669,-3.2669,-3.1594,-2.9216,-2.8979,-2.7735,-2.541,-2.5656,-2.6197,-2.6995,-2.7719,-2.8379,-2.8984,-2.8319,-2.814,-2.8259,-2.7599,-2.7297,-2.7358,-2.808,-2.8618,-2.8984,-2.8984,-2.8984,-2.8984,0.0,0.0,0.0,0.0,0.0,0.0,0.0,0.0,0.0,0.0,0.0,0.0,0.0,0.0,0.0,0.0,0.0,0.0,0.0,0.0,0.0,0.0,0.0,-1.526,-1.5584,-1.6068,-1.6531,-1.6972,-1.6591,-1.6278,-1.6085,-1.5817,0.0,-1.5381,-1.5264,-1.5246,-1.5287,-1.5164,-1.5214,-1.542,-1.5622,-1.5477,-1.5223,0.0,0.0,0.0,0.0,0.0,0.0,0.0,-1.4843,-1.481,-1.4958,-1.5097,-1.5234,-1.5369,-1.6139,-1.7082,-1.7555,-1.7619,-1.8002,-1.9991,-1.9614,-1.9552,-2.2666,-2.2491,-2.2309,-2.4727,-2.4621,-2.4368,-2.5344,-2.5849,-2.6276,-2.6693,-2.858,-3.0315,-3.1236,-3.1381,-3.1712,-3.2613,-3.2669,-3.2669,-3.2669,-3.2669,-3.2669,-3.2669,-3.2669,-3.2669,-3.2669,-3.2669,-3.2669,-3.2669,-3.2669,-3.1777,-2.9884,-2.9216,-2.7975,-2.6075,-2.541,-2.5778,-2.6995,-2.7659,-2.8319,-2.8925,-2.8259,-2.8379,-2.8925,-2.8259,-2.802,-2.808,-2.8746,-2.8984,-2.8984,-2.8984,-2.8984,-2.8984,0.0,0.0,0.0,0.0,0.0,0.0,0.0,0.0,0.0,0.0,0.0,0.0,0.0,0.0,0.0,0.0,0.0,0.0,0.0,0.0,0.0,0.0,0.0,0.0,0.0,0.0,-1.6303,-1.6591,-1.621,-1.5912,0.0,0.0,0.0,-1.4931,-1.5153,-1.5136,-1.4947,-1.5079,-1.5159,-1.5262,-1.518,-1.5171,-1.5196,0.0,0.0,0.0,0.0,0.0,0.0,0.0,0.0,0.0,-1.5033,-1.5249,-1.534,-1.5401,-1.5624,-1.588,-1.5853,-1.7535,-1.9091,-1.8464,-1.9947,-2.1759,-2.2817,-2.2971,-2.3499,-2.5747,-2.5461,-2.491,-2.515,-2.6913,-2.7985,-2.6759,-2.8528,-3.0201,-3.0801,-3.1174,-3.1588,-3.2122,-3.2473,-3.2669,-3.2669,-3.2669,-3.2669,-3.2669,-3.2669,-3.2669,-3.2669,-3.2669,-3.2315,-3.1421,-3.1353,-3.047,-2.8573,-2.7915,-2.7263,-2.6753,-2.651,-2.638,-2.638,-2.6562,-2.6987,-2.7599,-2.79,-2.814,-2.8319,-2.8618,-2.8677,-2.8737,-2.8925,-2.8984,-2.8984,-2.8984,-2.8984,-2.8984,0.0,0.0,0.0,0.0,0.0,0.0,0.0,0.0,0.0,0.0,-1.4548,-1.4817,0.0,0.0,0.0,0.0,0.0,0.0,0.0,0.0,0.0,0.0,0.0,0.0,0.0,-1.5378,-1.5684,0.0,0.0,0.0,0.0,0.0,-1.4967,-1.4856,0.0,-1.5025,-1.5065,-1.514,-1.5221,-1.5307,-1.5099,-1.4988,-1.4955,0.0,0.0,0.0,0.0,0.0,0.0,0.0,0.0,0.0,-1.5103,-1.5275,-1.5465,-1.5899,-1.6057,-1.6275,-1.7365,-1.8639,-1.9722,-2.0132,-2.1463,-2.2949,-2.4108,-2.4526,-2.5107,-2.6589,-2.6502,-2.6261,-2.6478,-2.8036,-2.9004,-2.806,-2.9093,-3.016,-3.0626,-3.0926,-3.134,-3.1915,-3.2225,-3.2473,-3.2659,-3.2669,-3.2669,-3.2669,-3.2669,-3.2669,-3.2669,-3.219,-3.1594,-3.082,-3.0285,-2.9521,-2.8394,-2.7735,-2.7392,-2.7418,-2.7116,-2.6805,-2.6441,-2.6744,-2.7228,-2.784,-2.8199,-2.8379,-2.8439,-2.8797,-2.8984,-2.8984,-2.8984,-2.8984,-2.8984,-2.8984,-2.8984,-2.8984,0.0,0.0,0.0,0.0,0.0,0.0,0.0,0.0,0.0,0.0,-1.3696,-1.3941,0.0,0.0,0.0,0.0,0.0,0.0,0.0,0.0,0.0,0.0,0.0,0.0,0.0,0.0,0.0,0.0,0.0,0.0,0.0,0.0,-1.4844,-1.5095,0.0,-1.498,-1.547,-1.5291,-1.529,-1.5426,-1.5204,-1.4919,-1.4569,-1.4533,0.0,0.0,0.0,0.0,0.0,0.0,0.0,0.0,-1.5108,-1.5297,-1.5582,-1.6568,-1.6919,-1.7638,-2.0439,-2.0228,-2.003,-2.3438,-2.357,-2.355,-2.6028,-2.6646,-2.6801,-2.7216,-2.7645,-2.8061,-2.8535,-2.9032,-2.9508,-2.9922,-2.9994,-3.0139,-3.0563,-3.0657,-3.0988,-3.176,-3.1895,-3.2101,-3.2566,-3.2607,-3.2628,-3.2545,-3.2555,-3.2498,-3.2373,-3.1237,-3.0587,-3.047,-2.9335,-2.8742,-2.8742,-2.8155,-2.7933,-2.808,-2.7418,-2.7116,-2.7177,-2.7719,-2.8259,-2.8925,-2.8925,-2.8925,-2.8984,-2.8984,-2.8984,-2.8984,-2.8984,-2.8984,-2.8984,-2.8984,-2.8984,-2.8984,0.0,0.0,0.0,0.0,0.0,0.0,0.0,0.0,0.0,0.0,0.0,0.0,0.0,0.0,0.0,0.0,0.0,0.0,0.0,0.0,0.0,0.0,0.0,0.0,0.0,0.0,0.0,0.0,0.0,0.0,0.0,0.0,0.0,-1.5121,0.0,-1.528,-1.5274,-1.521,-1.5138,-1.5007,-1.4721,-1.4533,-1.4397,-1.4072,-1.4036,0.0,0.0,0.0,0.0,0.0,0.0,0.0,-1.5259,-1.5372,-1.5465,-1.5665,-1.6329,-1.718,-1.8079,-1.9647,-2.1259,-2.22,-2.3833,-2.5425,-2.6367,-2.6895,-2.7185,-2.7289,-2.7903,-2.8493,-2.8597,-2.929,-2.988,-2.9973,-2.9994,-3.0036,-3.0129,-3.046,-3.076,-3.0957,-3.1298,-3.1702,-3.2091,-3.2132,-3.187,-3.1275,-3.1237,-3.0762,-2.9747,-2.9453,-2.8861,-2.7847,-2.7555,-2.7383,-2.7401,-2.6796,-2.728,-2.8806,-2.808,-2.808,-2.8558,-2.7659,-2.7599,-2.8199,-2.8199,-2.8498,-2.8984,-2.8984,-2.8984,-2.8984,-2.8984,-2.8984,-2.8984,-2.8984,-2.8984,-2.8984,0.0,0.0,0.0,0.0,0.0,0.0,0.0,0.0,0.0,0.0,0.0,0.0,0.0,0.0,0.0,0.0,0.0,0.0,0.0,0.0,0.0,0.0,0.0,0.0,0.0,0.0,0.0,0.0,0.0,0.0,0.0,0.0,0.0,-1.5157,0.0,-1.5146,-1.5053,-1.5067,-1.4892,-1.4649,-1.4461,-1.4289,-1.4132,-1.4182,-1.4132,-1.4074,-1.4119,0.0,0.0,0.0,0.0,0.0,0.0,0.0,-1.534,-1.5865,-1.5966,-1.6381,-1.8598,-1.9898,-2.1095,-2.2981,-2.4686,-2.6044,-2.6511,-2.6978,-2.7309,-2.7309,-2.78,-2.8349,-2.8566,-2.9187,-2.9735,-2.9953,-2.9994,-2.9994,-2.9994,-3.0201,-3.0439,-3.0657,-3.0905,-3.1226,-3.1681,-3.1723,-3.1386,-3.0536,-3.045,-3.0016,-2.897,-2.8325,-2.7675,-2.7013,-2.6424,-2.625,-2.6562,-2.6562,-2.7228,-2.8498,-2.8498,-2.8677,-2.8984,-2.8259,-2.814,-2.8498,-2.8498,-2.8677,-2.8984,-2.8984,-2.8984,-2.8984,-2.8984,-2.8984,-2.8984,-2.8984,-2.8984,-2.8984,0.0,0.0,0.0,0.0,0.0,0.0,0.0,0.0,0.0,0.0,0.0,0.0,0.0,0.0,0.0,0.0,0.0,0.0,0.0,0.0,0.0,0.0,0.0,0.0,0.0,0.0,0.0,0.0,-1.4515,-1.4737,-1.4885,-1.5045,0.0,-1.524,0.0,-1.4889,-1.4908,-1.4828,-1.4649,-1.4397,-1.4423,-1.4229,-1.3983,-1.4493,-1.4471,-1.4251,-1.4696,-1.476,-1.4707,-1.4853,0.0,0.0,0.0,0.0,-1.5249,-1.6131,-1.5711,-1.5789,-1.9529,-2.0294,-2.0891,-2.4348,-2.5554,-2.6044,-2.6511,-2.6978,-2.7309,-2.7309,-2.7614,-2.802,-2.8524,-2.899,-2.9456,-2.9922,-2.9994,-2.9994,-2.9994,-2.9994,-3.0139,-3.0522,-3.0393,-3.0514,-3.1215,-3.1083,-3.0631,-2.9735,-2.9717,-2.923,-2.8101,-2.7116,-2.6565,-2.6565,-2.5615,-2.541,-2.6067,-2.6623,-2.7237,-2.802,-2.8677,-2.8984,-2.8984,-2.8984,-2.8984,-2.8984,-2.8984,-2.8984,-2.8984,-2.8984,-2.8984,-2.8984,-2.8984,-2.8984,-2.8984,-2.8984,-2.8984,-2.8984,0.0,0.0,0.0,0.0,0.0,0.0,0.0,0.0,0.0,0.0,-1.4493,-1.4366,0.0,0.0,0.0,0.0,0.0,0.0,0.0,0.0,0.0,0.0,0.0,0.0,0.0,0.0,0.0,0.0,-1.4682,-1.4974,-1.5161,-1.5179,-1.5274,-1.5421,-1.5076,-1.4887,-1.4872,-1.4577,-1.4425,-1.4421,-1.4533,-1.4537,-1.4538,-1.492,-1.5011,-1.4972,-1.5018,-1.5224,-1.5403,-1.5047,-1.5205,0.0,0.0,0.0,-1.5082,-1.4985,-1.5504,-1.635,-1.7587,-1.9891,-2.246,-2.4669,-2.5554,-2.6044,-2.6511,-2.6978,-2.7309,-2.7309,-2.7614,-2.802,-2.8524,-2.899,-2.9456,-2.9922,-2.9994,-2.9994,-2.9994,-2.9994,-3.0015,-3.0087,-2.9149,-2.915,-3.0622,-2.9866,-2.892,-2.8097,-2.8011,-2.7066,-2.4882,-2.4835,-2.4944,-2.4944,-2.5067,-2.541,-2.6067,-2.6197,-2.6805,-2.802,-2.8677,-2.8984,-2.8984,-2.8984,-2.8984,-2.8984,-2.8984,-2.8984,-2.8984,-2.8984,-2.8984,-2.8984,-2.8984,-2.8984,-2.8984,-2.8984,-2.8984,-2.8984,0.0,0.0,0.0,0.0,0.0,0.0,0.0,0.0,0.0,0.0,0.0,-1.3999,0.0,0.0,0.0,0.0,0.0,0.0,0.0,0.0,0.0,0.0,0.0,0.0,0.0,0.0,0.0,0.0,-1.4412,-1.468,-1.4745,-1.4735,-1.495,-1.5311,-1.4892,-1.4685,-1.4613,-1.4461,-1.4426,-1.451,-1.4582,-1.5006,-1.5581,-1.5561,-1.5772,-1.6062,-1.5912,-1.585,-1.5825,-1.5491,-1.5498,-1.5609,-1.5075,0.0,0.0,0.0,-1.4887,-1.5725,-1.8003,-2.0434,-2.2703,-2.4405,-2.5137,-2.5627,-2.6082,-2.6109,-2.6269,-2.7105,-2.6975,-2.6996,-2.8043,-2.8607,-2.9073,-2.9528,-2.9829,-2.9994,-2.9994,-2.9994,-2.9994,-2.9994,-2.8943,-2.8471,-2.9213,-2.8236,-2.7197,-2.6432,-2.6346,-2.5709,-2.4156,-2.4257,-2.4344,-2.4344,-2.4436,-2.4791,-2.5226,-2.5649,-2.6533,-2.802,-2.8677,-2.8984,-2.8984,-2.8984,-2.8984,-2.8984,-2.8984,-2.8984,-2.8984,-2.8984,-2.8984,-2.8984,-2.8984,-2.8984,-2.8984,-2.8984,-2.8984,-2.8984,0.0,0.0,0.0,0.0,0.0,0.0,0.0,0.0,0.0,0.0,0.0,0.0,0.0,0.0,0.0,0.0,0.0,0.0,0.0,0.0,0.0,0.0,0.0,0.0,0.0,0.0,0.0,-1.3847,-1.422,-1.4366,-1.434,-1.434,-1.4569,-1.4991,-1.4641,-1.4389,-1.4253,-1.4173,-1.43,-1.4464,-1.484,-1.5627,-1.6626,-1.6727,-1.7104,-1.7494,-1.6944,-1.664,-1.6409,-1.5816,-1.565,-1.5609,-1.5166,-1.4915,0.0,0.0,0.0,-1.5126,-1.8111,-1.9903,-2.1348,-2.3071,-2.4025,-2.47,-2.5237,-2.5169,-2.5326,-2.6483,-2.5953,-2.5732,-2.7094,-2.7924,-2.8487,-2.8686,-2.9095,-2.938,-2.9433,-2.9482,-2.9659,-2.9942,-2.8668,-2.7902,-2.8169,-2.6924,-2.5805,-2.5211,-2.5172,-2.4798,-2.3885,-2.3872,-2.392,-2.392,-2.4066,-2.4241,-2.4444,-2.5263,-2.6347,-2.763,-2.8473,-2.8883,-2.8984,-2.8984,-2.8984,-2.8984,-2.8984,-2.8984,-2.8984,-2.8984,-2.8984,-2.8984,-2.8984,-2.8984,-2.8984,-2.8984,-2.8984,-2.8984,0.0,0.0,0.0,0.0,0.0,0.0,0.0,0.0,0.0,0.0,0.0,0.0,0.0,0.0,-1.2471,-1.2348,0.0,0.0,0.0,0.0,0.0,0.0,0.0,0.0,0.0,0.0,0.0,0.0,-1.4215,-1.4332,-1.421,-1.4154,-1.4238,-1.4425,-1.4209,-1.4029,-1.3826,-1.3645,-1.3719,-1.4155,-1.5491,-1.6473,-1.7307,-1.864,-1.9277,-1.9295,-1.8086,-1.7619,-1.7367,-1.5933,-1.5519,-1.5567,-1.4943,-1.4908,-1.5048,0.0,0.0,0.0,-1.6707,-1.7188,-1.7831,-2.0112,-2.1733,-2.2949,-2.3726,-2.448,-2.5001,-2.5116,-2.461,-2.4501,-2.5616,-2.6966,-2.7756,-2.7188,-2.7467,-2.7731,-2.7826,-2.8074,-2.8721,-2.9879,-2.7965,-2.7023,-2.8116,-2.6182,-2.4842,-2.4804,-2.4812,-2.432,-2.3126,-2.3387,-2.3512,-2.3512,-2.3888,-2.4121,-2.4137,-2.5294,-2.6122,-2.6576,-2.7831,-2.8618,-2.8984,-2.8984,-2.8984,-2.8984,-2.8984,-2.8984,-2.8984,-2.8984,-2.8984,-2.8984,-2.8984,-2.8984,-2.8984,-2.8984,-2.8984,-2.8984,0.0,0.0,0.0,0.0,0.0,0.0,0.0,0.0,0.0,0.0,0.0,0.0,0.0,-1.2348,-1.2175,-1.2051,-1.1797,0.0,0.0,0.0,0.0,0.0,0.0,0.0,0.0,0.0,0.0,0.0,0.0,-1.335,-1.3316,-1.3156,-1.3147,-1.3327,-1.3577,-1.3674,-1.3623,-1.3756,-1.4027,-1.4451,-1.6142,-1.7471,-1.8487,-1.8448,-1.9335,-2.0323,-1.8407,-1.7772,-1.7764,-1.6903,-1.6214,-1.5609,-1.5117,-1.4774,-1.4536,-1.4316,-1.4372,-1.4874,-1.6557,-1.7145,-1.7765,-1.9556,-2.0766,-2.166,-2.2262,-2.2363,-2.2633,-2.386,-2.3369,-2.3157,-2.4445,-2.5937,-2.7092,-2.749,-2.737,-2.7197,-2.7239,-2.6974,-2.7242,-2.8408,-2.6667,-2.5854,-2.6978,-2.5029,-2.3624,-2.3624,-2.3624,-2.3456,-2.3014,-2.3133,-2.3205,-2.3205,-2.3324,-2.3663,-2.4284,-2.5731,-2.6565,-2.6705,-2.7853,-2.8471,-2.8618,-2.8865,-2.8984,-2.8984,-2.8984,-2.8984,-2.8984,-2.8984,-2.8984,-2.8984,-2.8984,-2.8984,-2.8984,-2.8984,-2.8984,-2.8984,0.0,0.0,0.0,0.0,0.0,0.0,0.0,0.0,0.0,0.0,0.0,0.0,0.0,0.0,-1.1952,-1.1852,-1.1724,-1.1663,-1.1719,-1.1649,0.0,0.0,0.0,0.0,0.0,0.0,0.0,0.0,0.0,0.0,0.0,-1.2501,-1.2684,-1.2963,-1.3288,-1.3404,-1.3483,-1.3699,-1.4062,-1.4697,-1.669,-1.7935,-1.8594,-1.8771,-1.9483,-2.0139,-1.8661,-1.8149,-1.8207,-1.8117,-1.7548,-1.679,-1.6175,-1.5343,-1.4522,-1.431,-1.4324,-1.4663,-1.5945,-1.6404,-1.6798,-1.8157,-1.9153,-1.9977,-2.0726,-2.0703,-2.0951,-2.2354,-2.1904,-2.1729,-2.3135,-2.4223,-2.5298,-2.6418,-2.6104,-2.5814,-2.619,-2.5653,-2.5649,-2.6793,-2.546,-2.4763,-2.563,-2.3966,-2.2887,-2.3006,-2.3014,-2.3014,-2.3014,-2.3014,-2.3014,-2.3014,-2.3014,-2.3408,-2.4194,-2.546,-2.6285,-2.6645,-2.7561,-2.8058,-2.8196,-2.8599,-2.8783,-2.8792,-2.892,-2.8984,-2.8984,-2.8984,-2.8984,-2.8984,-2.8984,-2.8984,-2.8984,-2.8984,-2.8984,-2.8984,0.0,0.0,0.0,0.0,0.0,0.0,0.0,0.0,0.0,0.0,0.0,0.0,0.0,0.0,0.0,-1.1736,-1.1708,-1.174,-1.1805,-1.1799,0.0,0.0,0.0,0.0,0.0,0.0,0.0,0.0,0.0,0.0,0.0,0.0,-1.2848,-1.3484,-1.3258,-1.326,-1.3428,-1.3428,-1.3896,-1.4805,-1.7172,-1.7817,-1.7584,-1.97,-1.9895,-1.9022,-1.8991,-1.8841,-1.8736,-1.9421,-1.9466,-1.9006,-1.7921,-1.6426,-1.5041,-1.4768,-1.4524,-1.448,0.0,0.0,0.0,-1.5836,-1.6821,-1.7877,-1.9133,-1.9676,-2.008,-2.0628,-2.0268,-2.0289,-2.168,-2.1944,-2.24,-2.3808,-2.3452,-2.34,-2.4583,-2.4094,-2.4079,-2.5289,-2.4403,-2.3768,-2.4136,-2.3163,-2.2617,-2.2958,-2.299,-2.2998,-2.2998,-2.3006,-2.3014,-2.3014,-2.3014,-2.3296,-2.3913,-2.4509,-2.5301,-2.6294,-2.6881,-2.738,-2.7822,-2.8187,-2.837,-2.8397,-2.8783,-2.8957,-2.8966,-2.8975,-2.8984,-2.8984,-2.8984,-2.8984,-2.8984,-2.8984,-2.8984,-2.8984,0.0,0.0,0.0,0.0,0.0,0.0,0.0,0.0,0.0,0.0,0.0,0.0,0.0,0.0,-1.2044,-1.2055,-1.1927,-1.1923,-1.2142,-1.2165,-1.2234,-1.2467,-1.2641,0.0,0.0,0.0,0.0,0.0,0.0,0.0,0.0,0.0,0.0,0.0,-1.2927,-1.337,-1.4273,-1.4273,-1.4292,-1.4617,-1.7522,-1.8597,-1.8616,-2.012,-2.1191,-2.1776,-2.1036,-1.9944,-1.9091,-2.0943,-1.9182,-1.6148,-1.5453,-1.5036,-1.4699,-1.4069,-1.4188,-1.4502,-1.4589,0.0,0.0,0.0,0.0,0.0,-1.7343,-1.8039,-1.8746,-1.9146,-1.9384,-1.975,-2.0378,-2.0492,-2.094,-2.2334,-2.2624,-2.2773,-2.3077,-2.249,-2.2454,-2.3677,-2.3047,-2.2831,-2.3768,-2.2786,-2.2194,-2.2243,-2.249,-2.2633,-2.2633,-2.2871,-2.3014,-2.3014,-2.3408,-2.3753,-2.3921,-2.4509,-2.5171,-2.5847,-2.6346,-2.6823,-2.7352,-2.7756,-2.7996,-2.7939,-2.8058,-2.8278,-2.8581,-2.8865,-2.8984,-2.8984,-2.8984,-2.8984,-2.8984,-2.8984,-2.8984,-2.8984,0.0,0.0,0.0,0.0,0.0,0.0,0.0,0.0,0.0,0.0,0.0,0.0,0.0,0.0,0.0,-1.2375,-1.2174,-1.211,-1.2205,-1.2151,-1.2151,-1.2243,-1.2343,-1.2288,0.0,0.0,0.0,0.0,0.0,0.0,0.0,0.0,0.0,0.0,0.0,-1.3988,-1.4933,-1.4933,-1.481,-1.4892,-1.7852,-1.8656,-1.8324,-2.0429,-2.1415,-2.1718,-2.1899,-2.12,-2.0481,-2.2615,-2.0587,-1.7038,-1.6459,-1.548,-1.4475,-1.3973,-1.4163,-1.4532,0.0,0.0,-1.5398,-1.5398,0.0,0.0,-1.6625,-1.7182,-1.7787,-1.8543,-1.895,-1.9248,-1.9646,-1.971,-2.0007,-2.0989,-2.1271,-2.167,-2.2383,-2.1761,-2.1426,-2.2177,-2.1804,-2.184,-2.2664,-2.216,-2.1806,-2.2003,-2.2202,-2.2267,-2.2267,-2.2601,-2.2791,-2.2791,-2.3271,-2.3745,-2.4295,-2.462,-2.5229,-2.6081,-2.6306,-2.6589,-2.6949,-2.7399,-2.7574,-2.7583,-2.7748,-2.7902,-2.815,-2.8379,-2.8673,-2.8984,-2.8984,-2.8984,-2.8984,-2.8984,-2.8984,-2.8984,0.0,0.0,0.0,0.0,0.0,0.0,0.0,0.0,0.0,0.0,0.0,0.0,0.0,0.0,0.0,0.0,-1.2336,-1.2197,-1.2142,-1.1955,0.0,0.0,-1.1945,-1.193,0.0,0.0,0.0,0.0,0.0,0.0,0.0,0.0,0.0,0.0,0.0,0.0,-1.5389,-1.5389,-1.5403,-1.5619,-1.8035,-1.8324,-1.7652,-2.0649,-2.1222,-2.0626,-2.2281,-2.2462,-2.2175,-2.3742,-2.2526,-2.0129,-1.9153,-1.7059,-1.4874,-1.4439,-1.4546,0.0,0.0,0.0,0.0,-1.5398,-1.5371,0.0,-1.6435,-1.6708,-1.7061,-1.8133,-1.8433,-1.8573,-1.8942,-1.9005,-1.9059,-1.9437,-1.958,-2.0232,-2.1946,-2.1399,-2.0821,-2.0861,-2.0861,-2.1004,-2.1301,-2.1341,-2.1468,-2.1876,-2.1932,-2.1971,-2.2011,-2.2259,-2.2426,-2.2426,-2.2776,-2.3455,-2.4552,-2.465,-2.5293,-2.6418,-2.6473,-2.6537,-2.66,-2.6949,-2.7114,-2.7132,-2.7537,-2.7711,-2.7757,-2.7757,-2.815,-2.8847,-2.8847,-2.8847,-2.8847,-2.8847,-2.8847,-2.8847,0.0,0.0,0.0,0.0,0.0,0.0,0.0,0.0,0.0,0.0,0.0,0.0,0.0,0.0,0.0,0.0,-1.1926,-1.2016,-1.2255,-1.2205,-1.2455,-1.2991,-1.2907,-1.2777,-1.2598,0.0,0.0,0.0,0.0,0.0,0.0,0.0,0.0,0.0,0.0,0.0,-1.5389,-1.5389,-1.6084,-1.7215,-1.7555,-1.8337,-1.9543,-2.1243,-2.2608,-2.3682,-2.4433,-2.3585,-2.2014,-2.1214,-2.1539,-2.1809,-1.8732,-1.8163,-1.8091,-1.5583,-1.5862,-1.6772,-1.5672,-1.5398,-1.5398,-1.5398,-1.5217,0.0,-1.5037,-1.539,-1.5718,-1.5722,-1.6095,-1.6475,-1.6683,-1.6458,-1.6371,-1.6931,-1.7574,-1.8546,-2.0159,-2.0214,-2.0178,-2.0464,-2.0496,-2.0639,-2.0996,-2.102,-2.1052,-2.1123,-2.1333,-2.1671,-2.1995,-2.2075,-2.2115,-2.2115,-2.2402,-2.2696,-2.2972,-2.3708,-2.4462,-2.5174,-2.5633,-2.6136,-2.6591,-2.6664,-2.6701,-2.671,-2.6784,-2.7004,-2.7344,-2.7344,-2.7572,-2.8003,-2.8003,-2.8003,-2.8003,-2.8003,-2.8003,-2.8003,0.0,0.0,0.0,0.0,0.0,0.0,0.0,0.0,0.0,0.0,0.0,0.0,0.0,0.0,0.0,0.0,0.0,0.0,0.0,0.0,-1.2691,-1.3031,-1.3005,-1.2896,-1.2788,-1.2714,0.0,0.0,0.0,0.0,0.0,0.0,0.0,0.0,0.0,-1.5318,-1.6322,-1.5487,-1.5846,-1.6994,-1.8155,-1.9589,-2.1242,-2.2908,-2.4076,-2.4891,-2.5371,-2.4897,-2.3857,-2.2802,-2.2181,-2.157,-2.0041,-1.9084,-1.8251,-1.6573,-1.6817,-1.7289,-1.5792,-1.5398,-1.5324,-1.503,-1.485,0.0,0.0,-1.4943,-1.5211,-1.5482,-1.5599,-1.5681,-1.591,-1.5592,-1.5366,-1.5659,-1.6591,-1.732,-1.7468,-1.8883,-1.998,-2.0106,-2.013,-2.0202,-2.0377,-2.0551,-2.0734,-2.0909,-2.1084,-2.1258,-2.1433,-2.1608,-2.1703,-2.1703,-2.2045,-2.2471,-2.293,-2.3439,-2.4055,-2.4787,-2.5404,-2.5852,-2.6136,-2.6473,-2.6591,-2.6591,-2.6591,-2.6701,-2.6885,-2.6885,-2.7004,-2.7215,-2.7666,-2.7822,-2.7822,-2.7822,-2.7822,-2.7822,-1.066,0.0,0.0,0.0,0.0,0.0,0.0,0.0,0.0,0.0,0.0,0.0,-1.3031,-1.3113,-1.3339,-1.3867,0.0,0.0,-1.3614,-1.3418,-1.3347,-1.3443,-1.3157,-1.3085,-1.3316,-1.3202,0.0,0.0,0.0,0.0,0.0,0.0,0.0,0.0,0.0,-1.5953,-1.6758,-1.5878,-1.6073,-1.7185,-1.9235,-2.0702,-2.193,-2.3824,-2.4716,-2.5062,-2.567,-2.5895,-2.577,-2.4946,-2.3219,-2.1343,-2.117,-1.9957,-1.8365,-1.7319,-1.7523,-1.7726,-1.5897,-1.5357,-1.5184,-1.4649,-1.4476,-1.4449,0.0,0.0,0.0,-1.5455,-1.5239,-1.5021,-1.525,-1.4841,-1.4484,-1.4522,-1.549,-1.5915,-1.4863,-1.7206,-1.9045,-1.9155,-1.9524,-1.974,-1.9609,-1.9868,-2.0232,-2.0739,-2.0609,-2.0641,-2.0865,-2.1143,-2.1293,-2.1293,-2.1679,-2.232,-2.3153,-2.3465,-2.401,-2.4849,-2.5533,-2.5852,-2.5907,-2.6364,-2.6591,-2.6591,-2.6591,-2.6591,-2.6591,-2.6591,-2.6591,-2.6655,-2.7344,-2.7601,-2.7601,-2.7601,-2.7601,-2.7601,-1.1174,-1.1404,0.0,0.0,0.0,0.0,0.0,0.0,0.0,0.0,0.0,-1.4478,-1.4616,-1.5972,-1.6883,-1.6828,-1.6906,-1.6515,-1.5477,-1.5223,-1.5294,-1.5699,-1.4428,-1.4193,-1.525,-1.3968,-1.3279,0.0,0.0,0.0,0.0,0.0,0.0,0.0,-1.6653,-1.6516,-1.5297,-1.6957,-1.8647,-2.0185,-2.0472,-2.0327,-2.0056,-2.1589,-2.3018,-2.4363,-2.5485,-2.5895,-2.5686,-2.437,-2.3717,-2.2998,-2.0228,-2.0784,-2.1653,-1.7517,-1.8018,-1.9249,-1.6221,-1.5211,-1.4981,-1.4603,-1.4322,-1.4117,-1.3972,0.0,-1.3887,-1.3814,0.0,-1.3384,-1.3384,0.0,0.0,-1.2353,-1.3088,-1.3592,-1.3435,-1.4864,-1.6025,-1.638,-1.8208,-1.9199,-1.8648,-1.861,-1.9121,-2.0374,-1.9636,-1.9664,-2.085,-2.0964,-2.098,-2.098,-2.127,-2.1792,-2.241,-2.3592,-2.449,-2.5074,-2.6028,-2.6482,-2.6473,-2.6582,-2.6591,-2.6591,-2.6591,-2.6591,-2.6591,-2.6591,-2.6591,-2.66,-2.6683,-2.6719,-2.6719,-2.6719,-2.6719,-2.6719,-1.1314,-1.1562,0.0,0.0,0.0,0.0,0.0,0.0,0.0,0.0,-1.2884,-1.3395,-1.3639,-1.4147,-1.5009,-1.6365,-1.6463,-1.6307,-1.6001,-1.5901,0.0,-1.4811,-1.4149,-1.4036,-1.4553,-1.4142,-1.3894,0.0,-1.4085,0.0,0.0,0.0,0.0,-1.6113,-1.7052,-1.7553,-1.7757,-1.8809,-1.9309,-1.9472,-2.0679,-2.0437,-1.9726,-2.2931,-2.4577,-2.5189,-2.5728,-2.5895,-2.5812,-2.5073,-2.3823,-2.2532,-2.261,-2.1763,-2.0522,-1.9289,-1.9023,-1.8583,-1.6056,-1.5913,-1.6186,-1.4848,-1.518,-1.5533,-1.4325,-1.4046,-1.3907,-1.3385,0.0,0.0,0.0,0.0,0.0,0.0,-1.2394,-1.2768,-1.2023,-1.3718,-1.5127,-1.5431,-1.6412,-1.7251,-1.7753,-1.8539,-1.9359,-2.0353,-1.9992,-2.0089,-2.085,-2.0925,-2.0925,-2.0925,-2.1016,-2.1346,-2.1764,-2.2327,-2.3008,-2.377,-2.4795,-2.5414,-2.5748,-2.6318,-2.6591,-2.6591,-2.6591,-2.6591,-2.6591,-2.6591,-2.6591,-2.6591,-2.6591,-2.6591,-2.6591,-2.6591,-2.6591,-2.6591,-1.1703,0.0,-1.1967,-1.2136,-1.2379,0.0,0.0,-1.2398,-1.2436,-1.2398,-1.2798,-1.3228,-1.3518,-1.4164,-1.5283,-1.7044,-1.7502,-1.7641,-1.7515,-1.7032,-1.6435,-1.5707,-1.4465,-1.4193,-1.4976,-1.4555,-1.4255,0.0,0.0,0.0,0.0,0.0,0.0,0.0,-1.7089,-1.8083,-1.9265,-2.0021,-2.0104,-1.9886,-2.1391,-2.1608,-2.1344,-2.4314,-2.5591,-2.5895,-2.5895,-2.5895,-2.5812,-2.5338,-2.391,-2.2522,-2.3899,-2.2522,-2.0477,-2.081,-2.0271,-1.9014,-1.6526,-1.6668,-1.7109,-1.5059,-1.5513,-1.6124,-1.4631,-1.423,-1.4006,-1.3357,-1.2868,0.0,0.0,0.0,-1.1397,-1.1311,0.0,-1.2118,-1.1287,-1.2631,-1.375,-1.3933,-1.4468,-1.5319,-1.6626,-1.7699,-1.8682,-1.9608,-1.9789,-2.01,-2.0707,-2.0869,-2.0925,-2.0925,-2.0925,-2.1147,-2.1715,-2.1804,-2.2358,-2.3379,-2.418,-2.4853,-2.5389,-2.6117,-2.6481,-2.6591,-2.6591,-2.6591,-2.6591,-2.6591,-2.6591,-2.6591,-2.6591,-2.6591,-2.6591,-2.6591,-2.6591,-2.6591,-1.2604,-1.2272,-1.2115,-1.2511,-1.2574,-1.2513,-1.2336,-1.2212,-1.222,-1.256,-1.4072,-1.523,-1.5475,-1.8401,-2.0357,-2.0434,-2.1861,-2.2168,-2.0858,-1.9166,-1.8897,-2.0316,-1.6136,-1.5154,-1.8009,-1.5454,-1.4152,-1.4276,0.0,0.0,0.0,0.0,0.0,0.0,-1.6632,-1.762,-1.8063,-1.9916,-2.1649,-2.313,-2.3202,-2.4211,-2.5589,-2.4563,-2.4882,-2.5895,-2.5895,-2.5895,-2.5728,-2.4531,-2.4082,-2.3823,-2.2522,-2.2804,-2.3294,-2.1435,-2.1701,-2.1785,-1.8116,-1.7364,-1.7116,-1.5087,-1.4815,-1.4992,-1.4679,-1.4382,-1.4068,-1.3688,-1.316,-1.2636,-1.2181,-1.1854,-1.1613,0.0,-1.1186,0.0,0.0,-1.1352,-1.1139,-1.1139,-1.2389,-1.3794,-1.5061,-1.5403,-1.6164,-1.7738,-1.8262,-1.9041,-2.0342,-2.0734,-2.0925,-2.0925,-2.0925,-2.1377,-2.2443,-2.2843,-2.3615,-2.4752,-2.5146,-2.5592,-2.5958,-2.6021,-2.6251,-2.6591,-2.6591,-2.6591,-2.6591,-2.6591,-2.6591,-2.6591,-2.6591,-2.6591,-2.6591,-2.6591,-2.6591,-2.6591,-1.2901,-1.2623,-1.2417,-1.2413,-1.2498,-1.2529,-1.2336,-1.2274,-1.2679,-1.3956,-1.4564,-1.5578,-1.7435,-1.8583,-1.9858,-2.1448,-2.2069,-2.2216,-2.1753,-1.983,-1.9137,-1.9976,-1.5873,-1.4723,-1.7107,-1.5011,-1.3915,-1.3962,-1.4101,0.0,0.0,0.0,0.0,0.0,-1.6928,-1.8461,-1.9928,-2.1702,-2.2778,-2.3295,-2.3295,-2.3969,-2.4978,-2.52,-2.5549,-2.5895,-2.5895,-2.5895,-2.5853,-2.5411,-2.4648,-2.3975,-2.4435,-2.3544,-2.2391,-2.2732,-2.2186,-2.1211,-1.9762,-2.0069,-2.0015,-1.6868,-1.6906,-1.7078,-1.4663,-1.395,-1.367,-1.318,-1.2668,-1.2181,-1.1658,-1.1261,-1.0992,0.0,0.0,-1.0584,0.0,-1.0543,-1.0377,-1.0522,-1.1826,-1.2945,-1.352,-1.5153,-1.6589,-1.7488,-1.8671,-1.9667,-2.0369,-2.0726,-2.0925,-2.0925,-2.0925,-2.107,-2.142,-2.1943,-2.2571,-2.3289,-2.4052,-2.4672,-2.5188,-2.5506,-2.5846,-2.6223,-2.6223,-2.6334,-2.6591,-2.6591,-2.6591,-2.6591,-2.6591,-2.6591,-2.6591,-2.6591,-2.6591,-2.6591,-1.3251,-1.3052,-1.2806,-1.2679,-1.2711,-1.2711,-1.2576,-1.2544,-1.3148,-1.4867,-1.5203,-1.6165,-1.8437,-1.934,-2.0415,-2.1964,-2.2633,-2.2694,-2.2036,-2.081,-2.0227,-2.0458,-1.748,-1.6694,-1.8632,-1.625,-1.4998,-1.4998,-1.4448,-1.4281,0.0,0.0,0.0,0.0,-1.675,-1.865,-2.1221,-2.221,-2.3271,-2.4242,-2.4242,-2.4525,-2.5062,-2.5675,-2.5686,-2.5464,-2.577,-2.5895,-2.5895,-2.5895,-2.5316,-2.4691,-2.5633,-2.4606,-2.3274,-2.4072,-2.3394,-2.2218,-2.131,-2.1701,-2.1678,-1.864,-1.8431,-1.825,-1.5447,-1.4385,-1.3871,-1.3335,-1.2611,-1.2159,-1.2589,-1.1636,-1.0963,0.0,0.0,-1.0207,0.0,-1.0236,-1.0264,-1.0283,-1.1145,-1.2,-1.2783,-1.4404,-1.5956,-1.7268,-1.8603,-1.962,-2.0194,-2.0662,-2.0925,-2.0925,-2.0925,-2.0968,-2.1173,-2.1522,-2.2072,-2.2778,-2.3393,-2.4062,-2.4794,-2.5041,-2.5433,-2.58,-2.58,-2.5957,-2.616,-2.6307,-2.6362,-2.638,-2.6527,-2.6591,-2.6591,-2.6591,-2.6591,-2.6591,-1.3634,-1.3465,-1.3354,-1.3331,-1.3148,-1.2998,-1.299,-1.3088,-1.3725,-1.5376,-1.6219,-1.7278,-1.8858,-2.0969,-2.2275,-2.2295,-2.3705,-2.3849,-2.2137,-2.2086,-2.2086,-2.2028,-2.0722,-2.0752,-2.2371,-1.8993,-1.7194,-1.7249,-1.5304,-1.4396,0.0,0.0,0.0,0.0,-1.6182,-1.8246,-2.1783,-2.1593,-2.3178,-2.5895,-2.5895,-2.5853,-2.5853,-2.5895,-2.5327,-2.4627,-2.5549,-2.5895,-2.5895,-2.5895,-2.5895,-2.5895,-2.5895,-2.5895,-2.577,-2.5285,-2.5115,-2.4659,-2.2566,-2.2215,-2.1985,-2.0191,-1.9294,-1.8446,-1.6821,-1.5549,-1.4616,-1.4179,-1.3079,-1.275,-1.4685,-1.2876,-1.151,0.0,0.0,-1.0038,-1.0038,-1.0391,-1.0583,-1.0318,-1.0362,-1.102,-1.2643,-1.3107,-1.4375,-1.6987,-1.7889,-1.8811,-1.986,-2.0469,-2.0798,-2.0925,-2.0925,-2.1173,-2.1674,-2.1725,-2.2274,-2.3279,-2.3329,-2.3844,-2.4748,-2.4748,-2.4968,-2.5396,-2.5396,-2.5405,-2.5451,-2.5828,-2.5984,-2.6021,-2.6371,-2.6527,-2.6536,-2.6573,-2.6591,-2.6591,-1.3713,-1.384,-1.3862,-1.3711,-1.3429,-1.314,-1.2897,-1.4287,-1.5983,-1.7692,-1.9279,-2.111,-2.3277,-2.4063,-2.4519,-2.4884,-2.5294,-2.5346,-2.4875,-2.3471,-2.3276,-2.4791,-2.16,-2.0672,-2.2654,-1.9042,-1.7437,-1.8005,-1.6016,-1.5463,-1.6286,0.0,0.0,0.0,-1.6914,-1.8715,-2.1783,-2.1593,-2.3178,-2.5895,-2.5895,-2.5464,-2.4935,-2.5633,-2.5327,-2.4627,-2.5549,-2.5895,-2.5895,-2.5895,-2.5895,-2.5895,-2.5895,-2.5822,-2.5517,-2.4627,-2.4135,-2.3607,-2.2331,-2.2463,-2.229,-1.9641,-1.929,-1.8916,-1.6513,-1.5596,-1.5236,-1.5332,-1.4774,-1.425,-1.4013,-1.3119,-1.2225,-1.1666,-1.1004,-1.0511,-1.0511,-1.043,-1.0357,-1.0304,-1.1136,-1.1629,-1.1415,-1.3162,-1.4675,-1.5543,-1.6889,-1.8297,-1.9796,-1.9418,-1.9658,-2.0858,-2.0925,-2.1173,-2.1674,-2.2072,-2.2627,-2.3329,-2.3737,-2.4099,-2.4367,-2.4367,-2.4587,-2.4931,-2.4931,-2.5096,-2.5433,-2.5534,-2.5571,-2.558,-2.569,-2.5683,-2.5757,-2.6362,-2.6591,-2.6591,-1.4018,-1.4142,-1.4183,-1.3982,-1.4524,-1.4915,-1.4624,-1.4972,-1.6197,-1.8693,-2.0126,-2.1763,-2.4041,-2.5209,-2.6005,-2.6474,-2.6332,-2.586,-2.5105,-2.4502,-2.4354,-2.4766,-2.3248,-2.2961,-2.4114,-2.115,-1.9592,-1.9607,-1.7613,-1.6767,-1.6966,0.0,0.0,0.0,-1.7575,-1.8922,-2.1362,-2.2265,-2.3592,-2.5147,-2.5686,-2.572,0.0,-2.6,-2.6033,-2.5796,-2.6335,-2.6256,-2.5928,-2.6147,-2.6081,-2.5895,-2.5822,-2.538,-2.4797,-2.4006,-2.3304,-2.2648,-2.2041,-2.2173,-2.2108,-2.0421,-2.004,-1.9485,-1.7412,-1.6505,-1.6154,-1.6296,-1.5743,-1.5377,-1.5787,-1.4228,-1.2417,-1.0928,-1.0844,-1.0943,-1.0852,-1.0785,-1.08,-1.089,-1.1529,-1.1834,-1.1435,-1.3509,-1.4969,-1.5177,-1.6148,-1.712,-1.7938,-1.8289,-1.8942,-1.9798,-2.0523,-2.1173,-2.1674,-2.1979,-2.2526,-2.3279,-2.3637,-2.3945,-2.4202,-2.4202,-2.433,-2.456,-2.456,-2.4689,-2.49,-2.5084,-2.5115,-2.5185,-2.535,-2.5424,-2.5427,-2.5885,-2.6059,-2.6059,-1.4389,-1.4397,-1.4333,-1.4227,-1.5852,-1.7249,-1.7342,-1.6187,-1.6393,-1.9459,-2.0469,-2.16,-2.3462,-2.5476,-2.6835,-2.7272,-2.6955,-2.6012,-2.4452,-2.537,-2.5283,-2.371,-2.5092,-2.5895,-2.5895,-2.3927,-2.239,-2.1409,-1.9463,-1.8003,-1.7071,0.0,0.0,0.0,-1.8049,-1.9065,-2.0989,-2.3153,-2.4219,-2.4528,-2.555,-2.6289,-2.6671,-2.6671,-2.6922,-2.7315,-2.7381,-2.6846,-2.6147,-2.653,-2.6398,-2.5952,-2.5741,-2.4945,-2.3963,-2.3391,-2.2507,-2.1721,-2.1382,-2.1427,-2.1472,-2.1338,-2.0799,-1.9983,-1.875,-1.7839,-1.722,-1.722,-1.6483,-1.6423,-1.8249,-1.5666,-1.2711,-1.1048,-1.1336,-1.1734,-1.1539,-1.1732,-1.1854,-1.1905,-1.1992,0.0,-1.1968,-1.374,-1.4955,-1.5139,-1.539,-1.5606,-1.5823,-1.7348,-1.8369,-1.8811,-2.0233,-2.1224,-2.1725,-2.1827,-2.2375,-2.3279,-2.3379,-2.3687,-2.4202,-2.4202,-2.4202,-2.4202,-2.4202,-2.4202,-2.4229,-2.4597,-2.4702,-2.4739,-2.513,-2.5267,-2.5267,-2.5267,-2.5267,-2.5277,-1.4389,-1.4281,-1.4258,-1.4609,-1.6092,-1.7778,-1.9583,-2.0818,-2.188,-2.2869,-2.4441,-2.5712,-2.6476,-2.6944,-2.7228,-2.7304,-2.7239,-2.6856,-2.6206,-2.6367,-2.615,-2.5483,-2.5715,-2.5895,-2.5895,-2.4106,-2.2808,-2.2028,-2.0032,-1.8683,-1.7967,-1.7747,-1.7873,-1.8258,-1.8258,-1.9667,-2.218,-2.3511,-2.4888,-2.6185,-2.641,-2.678,-2.7195,-2.7195,-2.7239,-2.737,-2.7729,-2.75,-2.7075,-2.7162,-2.6889,-2.6453,-2.6249,-2.5122,-2.3661,-2.2561,-2.1454,-2.043,-1.9546,-1.9894,-2.0348,-1.95,-1.9812,-2.0014,-1.8961,-1.8586,-1.8502,-1.8502,-1.8356,-1.8087,-1.7623,-1.616,-1.4609,-1.3453,-1.3919,-1.4398,-1.4397,-1.4244,-1.3826,-1.303,-1.3652,-1.3535,-1.1918,-1.3014,-1.3848,-1.3824,-1.369,-1.476,-1.7428,-1.6907,-1.7735,-2.0389,-2.1183,-2.1623,-2.1725,-2.2577,-2.3129,-2.3329,-2.3795,-2.4102,-2.4202,-2.4202,-2.4202,-2.4202,-2.4202,-2.4202,-2.4211,-2.4284,-2.4312,-2.4321,-2.4385,-2.4413,-2.4413,-2.4413,-2.4413,-2.4514,-1.4389,-1.4421,-1.4785,-1.5873,-1.764,-1.9676,-2.1855,-2.3732,-2.466,-2.3888,-2.4588,-2.5434,-2.6126,-2.7059,-2.7796,-2.8036,-2.7829,-2.7555,-2.7336,-2.6857,-2.6486,-2.6289,-2.6037,-2.5895,-2.5895,-2.5092,-2.377,-2.2006,-2.1031,-1.9686,-1.8004,-1.8049,-1.8136,-1.8348,-1.9146,-2.0352,-2.197,-2.3707,-2.5088,-2.6121,-2.6714,-2.7216,-2.7642,-2.7642,-2.785,-2.8091,-2.832,-2.8254,-2.8025,-2.7774,-2.7326,-2.6944,-2.6725,-2.5168,-2.332,-2.2553,-2.1031,-1.9409,-1.8912,-1.9142,-1.9409,-1.892,-1.9142,-1.9409,-1.892,-1.8781,-1.8781,-1.8781,-1.8781,-1.8442,-1.7368,-1.6197,-1.5219,-1.4604,-1.4494,-1.4643,-1.5189,-1.5271,-1.5088,-1.4585,-1.4406,-1.3906,-1.2957,-1.2683,-1.2865,-1.3467,-1.3281,-1.4188,-1.658,-1.631,-1.7299,-1.9984,-2.1111,-2.1979,-2.2526,-2.3029,-2.3488,-2.3786,-2.4044,-2.4202,-2.4202,-2.4202,-2.4202,-2.4202,-2.4202,-2.4202,-2.4202,-2.4202,-2.4202,-2.4202,-2.4202,-2.4202,-2.4202,-2.4202,-2.4202,-2.4266,-1.4977,-1.5181,-1.5855,-1.762,-1.9713,-2.1762,-2.3565,-2.5488,-2.626,-2.4861,-2.4682,-2.5039,-2.5857,-2.7259,-2.8342,-2.8771,-2.8407,-2.81,-2.8002,-2.7304,-2.6791,-2.6595,-2.6256,-2.6005,-2.5895,-2.5895,-2.4693,-2.2177,-2.1964,-2.0637,-1.824,-1.8314,-1.8531,-1.8991,-2.0243,-2.1335,-2.2346,-2.4197,-2.542,-2.618,-2.7101,-2.7763,-2.8189,-2.8189,-2.8429,-2.8803,-2.8803,-2.8803,-2.8749,-2.832,-2.7872,-2.7368,-2.6877,-2.5118,-2.3104,-2.2464,-2.0692,-1.8931,-1.8805,-1.8781,-1.8781,-1.8781,-1.8781,-1.8781,-1.8781,-1.8781,-1.8781,-1.8781,-1.8781,-1.8456,-1.7302,-1.6564,-1.6021,-1.5635,-1.5199,-1.5213,-1.6012,-1.6306,-1.6412,-1.6264,-1.5252,-1.4566,-1.456,-1.3272,-1.288,-1.392,-1.3491,-1.3936,-1.5686,-1.5888,-1.6973,-1.9205,-2.0615,-2.1686,-2.2439,-2.3126,-2.3687,-2.3994,-2.4152,-2.4202,-2.4202,-2.4202,-2.4202,-2.4202,-2.4202,-2.4202,-2.4202,-2.4202,-2.4202,-2.4202,-2.4202,-2.4202,-2.4202,-2.4202,-2.4202,-2.4202,-1.6867,-1.709,-1.7676,-1.9804,-2.1863,-2.3388,-2.3886,-2.5805,-2.7326,-2.7585,-2.7628,-2.7824,-2.8392,-2.8626,-2.8749,-2.8792,-2.876,-2.8506,-2.8023,-2.7914,-2.7478,-2.6628,-2.654,-2.6354,-2.5906,-2.5895,-2.5092,-2.3409,-2.2568,-2.133,-1.9673,-1.8878,-1.938,-2.0962,-2.1399,-2.2942,-2.5229,-2.5411,-2.6414,-2.7789,-2.788,-2.8254,-2.8738,-2.8738,-2.8771,-2.8803,-2.8803,-2.8803,-2.8792,-2.8749,-2.8375,-2.7688,-2.627,-2.4778,-2.3196,-2.1468,-2.0207,-1.9248,-1.8915,-1.8781,-1.8781,-1.8781,-1.8781,-1.8781,-1.8781,-1.8781,-1.8781,-1.8781,-1.8781,-1.8481,-1.7446,-1.7918,-1.8195,-1.7262,-1.7802,-1.8357,-1.8449,-1.8481,-1.835,-1.7848,-1.7156,-1.6684,-1.661,-1.5493,-1.499,-1.5526,-1.4118,-1.4218,-1.6626,-1.6017,-1.6726,-1.9205,-1.9895,-2.0069,-1.9675,-2.2637,-2.3895,-2.3379,-2.3945,-2.4202,-2.4202,-2.4202,-2.4202,-2.4202,-2.4202,-2.4202,-2.4202,-2.4202,-2.4202,-2.4202,-2.4202,-2.4202,-2.4202,-2.4202,-2.4202,-2.4202,-1.8868,-1.9312,-2.0188,-2.1973,-2.3392,-2.471,-2.6174,-2.7167,-2.7927,-2.8407,-2.8222,-2.8176,-2.8749,-2.8803,-2.8803,-2.8803,-2.8803,-2.8727,-2.8484,-2.82,-2.7827,-2.7445,-2.7151,-2.6944,-2.6747,-2.6474,-2.569,-2.442,-2.2942,-2.1546,-2.0327,-2.0175,-2.1043,-2.2804,-2.3659,-2.4758,-2.6064,-2.6771,-2.7605,-2.8473,-2.8473,-2.8628,-2.8803,-2.8803,-2.8803,-2.8803,-2.8803,-2.8803,-2.8746,-2.8222,-2.7953,-2.7653,-2.7025,-2.5476,-2.3636,-2.2674,-2.1199,-1.9798,-1.9385,-1.9058,-1.8781,-1.8781,-1.8781,-1.8781,-1.8781,-1.8781,-1.8781,-1.8781,-1.8781,-1.8681,-1.8257,-1.8295,-1.8427,-1.8657,-1.8742,-1.9026,-1.96,-1.97,-1.96,-1.9401,-1.8478,-1.7844,-1.7784,-1.6417,-1.562,-1.5777,-1.488,-1.4832,-1.5992,-1.6973,-1.8057,-1.9255,-2.1087,-2.1912,-2.1712,-2.3349,-2.4093,-2.3845,-2.4093,-2.4202,-2.4202,-2.4202,-2.4202,-2.4202,-2.4202,-2.4202,-2.4202,-2.4202,-2.4202,-2.4202,-2.4202,-2.4202,-2.4202,-2.4202,-2.4202,-2.4202,-2.1025,-2.1691,-2.2693,-2.4313,-2.5211,-2.6186,-2.7746,-2.8111,-2.8375,-2.876,-2.8462,-2.8375,-2.8771,-2.8803,-2.8803,-2.8803,-2.8803,-2.8803,-2.8803,-2.844,-2.8143,-2.8002,-2.7664,-2.7457,-2.7315,-2.6998,-2.641,-2.5656,-2.4089,-2.2911,-2.2177,-2.2156,-2.3068,-2.4643,-2.5528,-2.6299,-2.7106,-2.7866,-2.8451,-2.8803,-2.8803,-2.8803,-2.8803,-2.8803,-2.8803,-2.8803,-2.8803,-2.8653,-2.8362,-2.7788,-2.7305,-2.6867,-2.657,-2.5391,-2.397,-2.3046,-2.1721,-2.0426,-1.9911,-1.9407,-1.9012,-1.8827,-1.8781,-1.8781,-1.8781,-1.8781,-1.8781,-1.8781,-1.8781,-1.8781,-1.8781,-1.8481,-1.8511,-1.9455,-1.9293,-1.933,-2.0192,-2.0292,-2.0147,-1.9803,-1.8778,-1.8234,-1.8555,-1.7183,-1.641,-1.6758,-1.6691,-1.667,-1.6698,-1.7949,-1.8987,-1.9749,-2.1628,-2.2579,-2.2579,-2.3674,-2.4202,-2.4202,-2.4202,-2.4202,-2.4202,-2.4202,-2.4202,-2.4202,-2.4202,-2.4202,-2.4202,-2.4202,-2.4202,-2.4202,-2.4202,-2.4202,-2.4202,-2.4202,-2.4202,-2.4202,-2.3392,-2.4136,-2.5038,-2.6932,-2.7653,-2.798,-2.7991,-2.844,-2.8792,-2.8803,-2.8792,-2.8792,-2.8803,-2.8803,-2.8803,-2.8803,-2.8803,-2.8803,-2.8803,-2.8792,-2.8528,-2.8012,-2.7991,-2.7762,-2.7326,-2.7304,-2.7304,-2.726,-2.6317,-2.5858,-2.5802,-2.4886,-2.5227,-2.6563,-2.6563,-2.7391,-2.8792,-2.8792,-2.8792,-2.8803,-2.8803,-2.8803,-2.8803,-2.8803,-2.8803,-2.8803,-2.8803,-2.8269,-2.7589,-2.7589,-2.659,-2.5138,-2.4088,-2.4079,-2.4055,-2.1858,-2.1307,-2.1224,-2.0395,-1.9881,-1.9463,-1.8912,-1.8781,-1.8781,-1.8781,-1.8781,-1.8781,-1.8781,-1.8781,-1.8781,-1.8781,-1.8781,-1.8958,-1.95,-1.9592,-1.9783,-2.0246,-2.0292,-1.9849,-1.8548,-1.7766,-1.7788,-1.8967,-1.7978,-1.7788,-1.8967,-1.9778,-2.0062,-1.9555,-1.8752,-1.9101,-2.0818,-2.0892,-2.0941,-2.0941,-2.3116,-2.4202,-2.4202,-2.4202,-2.4202,-2.4202,-2.4202,-2.4202,-2.4202,-2.4202,-2.4202,-2.4202,-2.4202,-2.4202,-2.4202,-2.4202,-2.4202,-2.4202,-2.4202,-2.4202,-2.4202,-2.6076,-2.656,-2.7069,-2.7662,-2.8211,-2.8528,-2.8528,-2.8705,-2.8803,-2.8803,-2.8803,-2.8803,-2.8803,-2.8803,-2.8803,-2.8803,-2.8803,-2.8803,-2.8803,-2.8803,-2.8727,-2.8528,-2.8528,-2.8497,-2.8344,-2.7971,-2.7971,-2.8344,-2.67,-2.6044,-2.6345,-2.6069,-2.6687,-2.8089,-2.8089,-2.8372,-2.8803,-2.8803,-2.8803,-2.8803,-2.8803,-2.8803,-2.8803,-2.8803,-2.8803,-2.8746,-2.8175,-2.7835,-2.7447,-2.6398,-2.5722,-2.5099,-2.3809,-2.3827,-2.4101,-2.3064,-2.2324,-2.1645,-2.0878,-2.0072,-1.9371,-1.8891,-1.8781,-1.8781,-1.8781,-1.8781,-1.892,-1.9279,-1.9371,-1.9417,-1.9745,-2.0093,-2.0365,-2.0546,-2.0826,-2.1105,-2.1239,-2.1239,-2.1096,-2.0701,-2.0461,-2.0435,-2.0827,-2.0236,-1.9562,-1.8924,-1.8772,-1.8497,-1.793,-1.9828,-2.078,-2.0388,-2.2167,-2.2968,-2.2562,-2.3615,-2.4202,-2.4202,-2.4202,-2.4202,-2.4202,-2.4202,-2.4202,-2.4202,-2.4202,-2.4202,-2.4202,-2.4202,-2.4202,-2.4202,-2.4202,-2.4202,-2.4202,-2.4202,-2.4202,-2.4202,-2.7544,-2.7981,-2.8309,-2.8309,-2.8606,-2.8803,-2.8803,-2.8803,-2.8803,-2.8803,-2.8803,-2.8803,-2.8803,-2.8803,-2.8803,-2.8803,-2.8803,-2.8803,-2.8803,-2.8803,-2.8803,-2.8803,-2.8803,-2.8803,-2.8803,-2.8462,-2.8451,-2.8803,-2.7575,-2.7151,-2.7448,-2.7448,-2.7932,-2.8803,-2.8803,-2.8803,-2.8803,-2.8803,-2.8803,-2.8803,-2.8803,-2.8803,-2.8803,-2.8803,-2.8803,-2.8699,-2.7882,-2.74,-2.6972,-2.5722,-2.5109,-2.4716,-2.3877,-2.3895,-2.4106,-2.3595,-2.2868,-2.2125,-2.132,-2.0404,-1.9508,-1.8915,-1.8781,-1.8874,-1.905,-1.9096,-1.9234,-1.9737,-1.9874,-1.9965,-2.0246,-2.0555,-2.0772,-2.0952,-2.1266,-2.1597,-2.2043,-2.1865,-2.1668,-2.1525,-2.0962,-2.0757,-2.1078,-2.0552,-2.0078,-1.9906,-1.9596,-1.9342,-1.9265,-2.0597,-2.1465,-2.1611,-2.3295,-2.3994,-2.3637,-2.3994,-2.4202,-2.4202,-2.4202,-2.4202,-2.4202,-2.4202,-2.4202,-2.4202,-2.4202,-2.4202,-2.4202,-2.4202,-2.4202,-2.4202,-2.4202,-2.4202,-2.4202,-2.4202,-2.4202,-2.4202,-2.8045,-2.8451,-2.8803,-2.8803,-2.8803,-2.8803,-2.8803,-2.8803,-2.8803,-2.8803,-2.8803,-2.8803,-2.8803,-2.8803,-2.8803,-2.8803,-2.8803,-2.8803,-2.8803,-2.8803,-2.8803,-2.8803,-2.8803,-2.8803,-2.8803,-2.8803,-2.8803,-2.8803,-2.8803,-2.8803,-2.8803,-2.8803,-2.8803,-2.8803,-2.8803,-2.8803,-2.8803,-2.8803,-2.8803,-2.8803,-2.8803,-2.8803,-2.8803,-2.8803,-2.8803,-2.871,-2.7835,-2.7067,-2.636,-2.5489,-2.4775,-2.4202,-2.4202,-2.4202,-2.4093,-2.3488,-2.3031,-2.2522,-2.1712,-2.0802,-1.9909,-1.9086,-1.8889,-1.9012,-1.9554,-1.9646,-1.9783,-2.0238,-2.0337,-2.0382,-2.0382,-2.0382,-2.0555,-2.0997,-2.1087,-2.149,-2.2574,-2.2176,-2.1686,-2.1362,-1.9962,-1.9343,-2.0202,-1.9491,-1.9741,-2.1472,-2.1642,-2.1989,-2.2755,-2.1123,-2.1364,-2.4125,-2.4202,-2.4202,-2.4202,-2.4202,-2.4202,-2.4202,-2.4202,-2.4202,-2.4202,-2.4202,-2.4202,-2.4202,-2.4202,-2.4202,-2.4202,-2.4202,-2.4202,-2.4202,-2.4202,-2.4202,-2.4202,-2.4202,-2.4202,-2.4202,-2.8628,-2.8727,-2.8803,-2.8803,-2.8803,-2.8803,-2.8803,-2.8803,-2.8803,-2.8803,-2.8803,-2.8803,-2.8803,-2.8803,-2.8803,-2.8803,-2.8803,-2.8803,-2.8803,-2.8803,-2.8803,-2.8803,-2.8803,-2.8803,-2.8803,-2.8803,-2.8803,-2.8803,-2.8803,-2.8803,-2.8803,-2.8803,-2.8803,-2.8803,-2.8803,-2.8803,-2.8803,-2.8803,-2.8803,-2.8803,-2.8803,-2.8803,-2.8803,-2.8803,-2.8803,-2.8606,-2.7268,-2.6648,-2.6312,-2.4922,-2.4341,-2.4202,-2.4202,-2.4202,-2.4093,-2.3488,-2.2968,-2.2362,-2.1493,-2.0638,-1.9894,-1.9823,-1.9853,-1.9973,-2.011,-2.0147,-2.0283,-2.0736,-2.0817,-2.0961,-2.1284,-2.1374,-2.1419,-2.1508,-2.1989,-2.2264,-2.1998,-2.2264,-2.252,-2.2438,-2.1603,-2.1328,-2.2085,-2.147,-2.0953,-2.0783,-2.0783,-2.1118,-2.1931,-2.1531,-2.2202,-2.4125,-2.4202,-2.4202,-2.4202,-2.4202,-2.4202,-2.4202,-2.4202,-2.4202,-2.4202,-2.4202,-2.4202,-2.4202,-2.4202,-2.4202,-2.4202,-2.4202,-2.4202,-2.4202,-2.4202,-2.4202,-2.4202,-2.4202,-2.4202,-2.4202,-2.8803,-2.8803,-2.8803,-2.8803,-2.8803,-2.8803,-2.8803,-2.8803,-2.8803,-2.8803,-2.8803,-2.8803,-2.8803,-2.8803,-2.8803,-2.8803,-2.8803,-2.8803,-2.8803,-2.8803,-2.8803,-2.8803,-2.8803,-2.8803,-2.8803,-2.8803,-2.8803,-2.8803,-2.8803,-2.8803,-2.8803,-2.8803,-2.8803,-2.8803,-2.8803,-2.8803,-2.8803,-2.8803,-2.8803,-2.8803,-2.8803,-2.8803,-2.8803,-2.8803,-2.856,-2.8117,-2.6935,-2.6264,-2.5781,-2.4587,-2.4202,-2.4202,-2.4202,-2.4202,-2.4093,-2.3488,-2.3079,-2.2691,-2.1817,-2.1103,-2.0512,-2.0264,-2.0254,-2.0382,-2.0555,-2.06,-2.0736,-2.123,-2.132,-2.141,-2.1642,-2.1696,-2.1696,-2.1696,-2.1481,-2.1596,-2.2545,-2.2129,-2.2385,-2.4036,-2.3003,-2.2485,-2.3169,-2.2299,-2.1544,-2.1087,-2.1033,-2.1381,-2.2203,-2.2247,-2.2871,-2.4174,-2.4202,-2.4202,-2.4202,-2.4202,-2.4202,-2.4202,-2.4202,-2.4202,-2.4202,-2.4202,-2.4202,-2.4202,-2.4202,-2.4202,-2.4202,-2.4202,-2.4202,-2.4202,-2.4202,-2.4202,-2.4202,-2.4202,-2.4202,-2.4202,-2.8803,-2.8803,-2.8803,-2.8803,-2.8803,-2.8803,-2.8803,-2.8803,-2.8803,-2.8803,-2.8803,-2.8803,-2.8803,-2.8803,-2.8803,-2.8803,-2.8803,-2.8803,-2.8803,-2.8803,-2.8803,-2.8803,-2.8803,-2.8803,-2.8803,-2.8803,-2.8803,-2.8803,-2.8803,-2.8803,-2.8803,-2.8803,-2.8803,-2.8803,-2.8803,-2.8803,-2.8803,-2.8803,-2.8803,-2.8803,-2.8803,-2.8803,-2.8803,-2.8803,-2.8315,-2.7494,-2.6733,-2.5964,-2.5197,-2.444,-2.4202,-2.4202,-2.4202,-2.4202,-2.4093,-2.3488,-2.3379,-2.3258,-2.233,-2.1779,-2.132,-2.0609,-2.0473,-2.06,-2.0997,-2.1132,-2.123,-2.1597,-2.1696,-2.1696,-2.1696,-2.1776,-2.1776,-2.1463,-2.0782,-2.1016,-2.3066,-2.2108,-2.2318,-2.5369,-2.409,-2.3178,-2.3757,-2.2643,-2.1874,-2.1874,-2.1874,-2.2242,-2.3094,-2.3102,-2.3433,-2.4239,-2.4223,-2.4202,-2.4202,-2.4202,-2.4202,-2.4202,-2.4202,-2.4202,-2.4202,-2.4202,-2.4202,-2.4202,-2.4202,-2.4202,-2.4202,-2.4202,-2.4202,-2.4202,-2.4202,-2.4202,-2.4202,-2.4202,-2.4202,-2.4202,-2.8803,-2.8803,-2.8803,-2.8803,-2.8803,-2.8803,-2.8803,-2.8803,-2.8803,-2.8803,-2.8803,-2.8803,-2.8803,-2.8803,-2.8803,-2.8803,-2.8803,-2.8803,-2.8803,-2.8803,-2.8803,-2.8803,-2.8803,-2.8803,-2.8803,-2.8803,-2.8803,-2.8803,-2.8803,-2.8803,-2.8803,-2.8803,-2.8803,-2.8803,-2.8803,-2.8803,-2.8803,-2.8803,-2.8803,-2.8803,-2.8803,-2.8803,-2.8803,-2.8803,-2.8315,-2.7494,-2.6733,-2.5964,-2.5197,-2.444,-2.4202,-2.4202,-2.4202,-2.4202,-2.4093,-2.3488,-2.3637,-2.3827,-2.2709,-2.2221,-2.1822,-2.1101,-2.1186,-2.1508,-2.1553,-2.1597,-2.1597,-2.1696,-2.1696,-2.1696,-2.1696,-2.222,-2.2078,-2.0439,-2.2375,-2.3414,-2.1621,-2.3003,-2.4445,-2.4988,-2.4198,-2.3671,-2.38,-2.3081,-2.2618,-2.2618,-2.2618,-2.3094,-2.4108,-2.3934,-2.4041,-2.4536,-2.4312,-2.4202,-2.4202,-2.4202,-2.4202,-2.4202,-2.4202,-2.4202,-2.4202,-2.4202,-2.4202,-2.4202,-2.4202,-2.4202,-2.4202,-2.4202,-2.4202,-2.4202,-2.4202,-2.4202,-2.4202,-2.4202,-2.4202,-2.4202,-2.8803,-2.8803,-2.8803,-2.8803,-2.8803,-2.8803,-2.8803,-2.8803,-2.8803,-2.8803,-2.8803,-2.8803,-2.8803,-2.8803,-2.8803,-2.8803,-2.8803,-2.8803,-2.8803,-2.8803,-2.8803,-2.8803,-2.8803,-2.8803,-2.8803,-2.8803,-2.8803,-2.8803,-2.8803,-2.8803,-2.8803,-2.8803,-2.8803,-2.8803,-2.8803,-2.8803,-2.8803,-2.8803,-2.8803,-2.8746,-2.8315,-2.8175,-2.8117,-2.7694,-2.7067,-2.6302,-2.5964,-2.5343,-2.4677,-2.4301,-2.4202,-2.4202,-2.4202,-2.4202,-2.4152,-2.3895,-2.3737,-2.3547,-2.2881,-2.2643,-2.2366,-2.1563,-2.1553,-2.1696,-2.1696,-2.1696,-2.1696,-2.1696,-2.1696,-2.182,-2.223,-2.2583,-2.2608,-2.2076,-2.2644,-2.3114,-2.3047,-2.3418,-2.4074,-2.5285,-2.4807,-2.4241,-2.3844,-2.3169,-2.2803,-2.2803,-2.2803,-2.3286,-2.4331,-2.3955,-2.4038,-2.4781,-2.4406,-2.4202,-2.4202,-2.4202,-2.4202,-2.4202,-2.4202,-2.4202,-2.4202,-2.4202,-2.4202,-2.4202,-2.4202,-2.4202,-2.4202,-2.4202,-2.4202,-2.4202,-2.4202,-2.4202,-2.4202,-2.4202,-2.4202,-2.4202,-2.8803,-2.8803,-2.8803,-2.8803,-2.8803,-2.8803,-2.8803,-2.8803,-2.8803,-2.8803,-2.8803,-2.8803,-2.8803,-2.8803,-2.8803,-2.8803,-2.8803,-2.8803,-2.8803,-2.8803,-2.8803,-2.8803,-2.8803,-2.8803,-2.8803,-2.8803,-2.8803,-2.8803,-2.8803,-2.8803,-2.8803,-2.8803,-2.8803,-2.8803,-2.8803,-2.8803,-2.8803,-2.8803,-2.8699,-2.8456,-2.7825,-2.7494,-2.7258,-2.6744,-2.6022,-2.5294,-2.5294,-2.4815,-2.4202,-2.4202,-2.4202,-2.4202,-2.4202,-2.4202,-2.4202,-2.4202,-2.3895,-2.3417,-2.3028,-2.2904,-2.2712,-2.1897,-2.1696,-2.1696,-2.1696,-2.1696,-2.1696,-2.1696,-2.1696,-2.1919,-2.2662,-2.2925,-2.3125,-2.3337,-2.293,-2.3041,-2.4286,-2.3849,-2.4,-2.5717,-2.5464,-2.4861,-2.4145,-2.3604,-2.3232,-2.3047,-2.3047,-2.3457,-2.4446,-2.3935,-2.3965,-2.4752,-2.444,-2.4211,-2.4055,-2.4156,-2.4202,-2.4202,-2.4202,-2.4202,-2.4202,-2.4202,-2.4202,-2.4202,-2.4202,-2.4202,-2.4202,-2.4202,-2.4202,-2.4202,-2.4202,-2.4202,-2.4192,-2.4101,-2.4055,-2.3996,-2.8803,-2.8803,-2.8803,-2.8803,-2.8803,-2.8803,-2.8803,-2.8803,-2.8803,-2.8803,-2.8803,-2.8803,-2.8803,-2.8803,-2.8803,-2.8803,-2.8803,-2.8803,-2.8803,-2.8803,-2.8803,-2.8803,-2.8803,-2.8803,-2.8803,-2.8803,-2.8803,-2.8803,-2.8803,-2.8803,-2.8803,-2.8803,-2.8803,-2.8803,-2.8803,-2.8803,-2.8803,-2.8803,-2.8362,-2.7683,-2.7636,-2.721,-2.66,-2.6504,-2.6022,-2.5294,-2.5294,-2.4815,-2.4202,-2.4202,-2.4202,-2.4202,-2.4202,-2.4202,-2.4202,-2.4202,-2.4152,-2.3978,-2.3123,-2.2904,-2.2712,-2.1897,-2.1696,-2.1696,-2.1696,-2.1696,-2.1696,-2.1696,-2.1696,-2.1919,-2.2662,-2.3299,-2.3381,-2.2318,-2.4051,-2.5031,-2.3355,-2.4575,-2.5717,-2.5895,-2.5864,-2.5549,-2.4861,-2.4775,-2.4466,-2.38,-2.3714,-2.4079,-2.4817,-2.4527,-2.4236,-2.4061,-2.4402,-2.4258,-2.3544,-2.396,-2.4202,-2.4202,-2.4202,-2.4202,-2.4202,-2.4202,-2.4202,-2.4202,-2.4202,-2.4202,-2.4202,-2.4202,-2.4202,-2.4202,-2.4202,-2.4202,-2.4156,-2.373,-2.3535,-2.3489,-2.8803,-2.8803,-2.8803,-2.8803,-2.8803,-2.8803,-2.8803,-2.8803,-2.8803,-2.8803,-2.8803,-2.8803,-2.8803,-2.8803,-2.8803,-2.8803,-2.8803,-2.8803,-2.8803,-2.8803,-2.8803,-2.8803,-2.8803,-2.8803,-2.8803,-2.8803,-2.8803,-2.8803,-2.8803,-2.8803,-2.8803,-2.8803,-2.8803,-2.8803,-2.8803,-2.8803,-2.8757,-2.8269,-2.7882,-2.7542,-2.658,-2.6013,-2.5732,-2.5255,-2.4873,-2.4627,-2.4627,-2.444,-2.4202,-2.4202,-2.4202,-2.4202,-2.4202,-2.4202,-2.4202,-2.4202,-2.3978,-2.3657,-2.3059,-2.2904,-2.2712,-2.1897,-2.1696,-2.1696,-2.1696,-2.1696,-2.183,-2.2264,-2.2397,-2.275,-2.3874,-2.4294,-2.4445,-2.4425,-2.5263,-2.5622,-2.4893,-2.5443,-2.5895,-2.5895,-2.5895,-2.5644,-2.4988,-2.4903,-2.4765,-2.4509,-2.4466,-2.4594,-2.4903,-2.4362,-2.356,-2.2589,-2.3404,-2.3616,-2.3123,-2.3288,-2.3409,-2.3409,-2.3409,-2.3409,-2.3409,-2.3409,-2.3409,-2.3409,-2.3409,-2.3409,-2.3409,-2.3409,-2.3409,-2.3409,-2.3409,-2.3409,-2.3391,-2.3187,-2.3133,-2.3114,-2.8803,-2.8803,-2.8803,-2.8803,-2.8803,-2.8803,-2.8803,-2.8803,-2.8803,-2.8803,-2.8803,-2.8803,-2.8803,-2.8803,-2.8803,-2.8803,-2.8803,-2.8803,-2.8803,-2.8803,-2.8803,-2.8803,-2.8803,-2.8803,-2.8803,-2.8803,-2.8803,-2.8803,-2.8803,-2.8803,-2.8803,-2.8803,-2.8803,-2.8803,-2.856,-2.8409,-2.8362,-2.76,-2.7115,-2.6781,-2.5722,-2.5148,-2.4913,-2.439,-2.4202,-2.4202,-2.4202,-2.4202,-2.4202,-2.4202,-2.4202,-2.4202,-2.4202,-2.4202,-2.4202,-2.4202,-2.3868,-2.3407,-2.3014,-2.2812,-2.2547,-2.1861,-2.1696,-2.1696,-2.1696,-2.1696,-2.1919,-2.2662,-2.2803,-2.3232,-2.4647,-2.4903,-2.5126,-2.577,-2.5895,-2.5895,-2.5895,-2.5895,-2.5895,-2.5895,-2.5895,-2.5728,-2.5253,-2.52,-2.52,-2.52,-2.52,-2.52,-2.52,-2.4712,-2.38,-2.2422,-2.3098,-2.3216,-2.2519,-2.2776,-2.2904,-2.2904,-2.2904,-2.2904,-2.2904,-2.2904,-2.2904,-2.2904,-2.2904,-2.2904,-2.2904,-2.2904,-2.2904,-2.2904,-2.2904,-2.2904,-2.2895,-2.2757,-2.2712,-2.2693,-2.8803,-2.8803,-2.8803,-2.8803,-2.8803,-2.8803,-2.8803,-2.8803,-2.8803,-2.8803,-2.8803,-2.8803,-2.8803,-2.8803,-2.8803,-2.8803,-2.8803,-2.8803,-2.8803,-2.8803,-2.8803,-2.8803,-2.8803,-2.8803,-2.8803,-2.8803,-2.8803,-2.8803,-2.8803,-2.8803,-2.8803,-2.8803,-2.8803,-2.8746,-2.7977,-2.7589,-2.7542,-2.6829,-2.6013,-2.5294,-2.5294,-2.4864,-2.4202,-2.4202,-2.4202,-2.4202,-2.4202,-2.4202,-2.4202,-2.4202,-2.4202,-2.4202,-2.4202,-2.4202,-2.4202,-2.4202,-2.3859,-2.3407,-2.3004,-2.2593,-2.2181,-2.1787,-2.1696,-2.1696,-2.1696,-2.1696,-2.1909,-2.2662,-2.2794,-2.3232,-2.4647,-2.4903,-2.5115,-2.5812,-2.5895,-2.5895,-2.5895,-2.5895,-2.5895,-2.5895,-2.5895,-2.5895,-2.5895,-2.5895,-2.5895,-2.5895,-2.5895,-2.5895,-2.5895,-2.5906,-2.5242,-2.3844,-2.38,-2.3105,-2.1687,-2.2492,-2.2895,-2.2895,-2.2895,-2.2895,-2.2895,-2.2895,-2.2895,-2.2895,-2.2895,-2.2895,-2.2895,-2.2895,-2.2895,-2.2895,-2.2895,-2.2895,-2.2849,-2.2428,-2.2318,-2.2217,-2.8803,-2.8803,-2.8803,-2.8803,-2.8803,-2.8803,-2.8803,-2.8803,-2.8803,-2.8803,-2.8803,-2.8803,-2.8803,-2.8803,-2.8803,-2.8803,-2.8803,-2.8803,-2.8803,-2.8803,-2.8803,-2.8803,-2.8803,-2.8803,-2.8803,-2.8803,-2.8803,-2.8803,-2.8803,-2.8803,-2.8803,-2.8803,-2.8803,-2.8746,-2.7977,-2.7589,-2.7494,-2.6205,-2.5538,-2.5246,-2.4726,-2.4399,-2.4202,-2.4202,-2.4202,-2.4202,-2.4202,-2.4202,-2.4202,-2.4202,-2.4202,-2.4202,-2.4202,-2.4202,-2.4146,-2.3813,-2.3398,-2.2995,-2.2574,-2.2172,-2.1842,-2.1723,-2.1696,-2.1696,-2.1696,-2.1696,-2.2033,-2.3246,-2.3507,-2.394,-2.5338,-2.5601,-2.5686,-2.5853,-2.5895,-2.5895,-2.5895,-2.5895,-2.5895,-2.5895,-2.5895,-2.5895,-2.5895,-2.5895,-2.5895,-2.5895,-2.5464,-2.5211,-2.5211,-2.4722,-2.4026,-2.3135,-2.3091,-2.2652,-2.1687,-2.1934,-2.2053,-2.2053,-2.2053,-2.2053,-2.2053,-2.2053,-2.2053,-2.2053,-2.2053,-2.2053,-2.2053,-2.2053,-2.2053,-2.2053,-2.2053,-2.2053,-2.2044,-2.1916,-2.187,-2.1851,-2.8803,-2.8803,-2.8803,-2.8803,-2.8803,-2.8803,-2.8803,-2.8803,-2.8803,-2.8803,-2.8803,-2.8803,-2.8803,-2.8803,-2.8803,-2.8803,-2.8803,-2.8803,-2.8803,-2.8803,-2.8803,-2.8803,-2.8803,-2.8803,-2.8803,-2.8803,-2.8803,-2.8803,-2.8803,-2.8803,-2.8803,-2.8803,-2.8606,-2.8269,-2.7505,-2.7163,-2.7067,-2.5538,-2.5011,-2.5246,-2.4489,-2.4202,-2.4202,-2.4202,-2.4202,-2.4202,-2.4202,-2.4202,-2.4202,-2.4202,-2.4202,-2.4202,-2.4202,-2.4091,-2.3868,-2.3563,-2.3096,-2.2602,-2.2346,-2.1989,-2.1696,-2.1696,-2.1909,-2.2132,-2.2132,-2.2344,-2.2853,-2.4016,-2.4241,-2.4594,-2.5686,-2.5895,-2.5895,-2.5895,-2.5895,-2.5895,-2.5895,-2.5895,-2.5895,-2.5895,-2.5895,-2.5895,-2.5895,-2.5895,-2.5895,-2.5895,-2.5506,-2.5168,-2.4903,-2.4466,-2.3767,-2.2847,-2.2803,-2.2441,-2.1696,-2.1696,-2.1696,-2.1696,-2.1696,-2.1696,-2.1696,-2.1696,-2.1696,-2.1696,-2.1696,-2.1696,-2.1696,-2.1696,-2.1696,-2.1696,-2.1696,-2.1696,-2.1696,-2.1696,-2.1696,-2.1696,-2.8803,-2.8803,-2.8803,-2.8803,-2.8803,-2.8803,-2.8803,-2.8803,-2.8803,-2.8803,-2.8803,-2.8803,-2.8803,-2.8803,-2.8803,-2.8803,-2.8803,-2.8803,-2.8803,-2.8803,-2.8803,-2.8803,-2.8803,-2.8803,-2.8803,-2.8803,-2.8803,-2.8803,-2.8803,-2.8803,-2.8803,-2.8803,-2.8362,-2.7589,-2.6887,-2.6552,-2.6408,-2.4922,-2.4677,-2.5246,-2.4489,-2.4202,-2.4202,-2.4202,-2.4202,-2.4202,-2.4202,-2.4202,-2.4202,-2.4202,-2.4202,-2.4202,-2.4202,-2.3868,-2.3489,-2.3453,-2.2895,-2.2272,-2.2282,-2.1961,-2.1696,-2.1696,-2.2264,-2.2803,-2.2715,-2.3169,-2.3844,-2.4637,-2.4807,-2.5031,-2.577,-2.5895,-2.5895,-2.5895,-2.5895,-2.5895,-2.5895,-2.5895,-2.5895,-2.5895,-2.5937,-2.5937,-2.5937,-2.5979,-2.5979,-2.5853,-2.5853,-2.5549,-2.4861,-2.4807,-2.4176,-2.2838,-2.2803,-2.2441,-2.1696,-2.1696,-2.1696,-2.1696,-2.1696,-2.1696,-2.1696,-2.1696,-2.1696,-2.1696,-2.1696,-2.1696,-2.1696,-2.1696,-2.1696,-2.1696,-2.1696,-2.1696,-2.1696,-2.1696,-2.1696,-2.1696,-2.8803,-2.8803,-2.8803,-2.8803,-2.8803,-2.8803,-2.8803,-2.8803,-2.8803,-2.8803,-2.8803,-2.8803,-2.8803,-2.8803,-2.8803,-2.8803,-2.8803,-2.8803,-2.8803,-2.8803,-2.8803,-2.8803,-2.8803,-2.8803,-2.8803,-2.8803,-2.8803,-2.8803,-2.8803,-2.8803,-2.8803,-2.8803,-2.8362,-2.7589,-2.7447,-2.702,-2.6456,-2.5489,-2.5148,-2.5246,-2.4489,-2.4202,-2.4202,-2.4202,-2.4202,-2.4202,-2.4202,-2.4202,-2.4202,-2.4202,-2.4202,-2.4202,-2.4202,-2.3868,-2.3435,-2.3123,-2.2675,-2.2208,-2.1906,-2.176,-2.1696,-2.1696,-2.2264,-2.2662,-2.2087,-2.2043,-2.2511,-2.3757,-2.4059,-2.4413,-2.5675,-2.5895,-2.5895,-2.5895,-2.5895,-2.5895,-2.5895,-2.5895,-2.5895,-2.5895,-2.6177,-2.6373,-2.6373,-2.6693,-2.6569,-2.5673,-2.5589,-2.5126,-2.4102,-2.4059,-2.3637,-2.2847,-2.2803,-2.2441,-2.1696,-2.1696,-2.1696,-2.1696,-2.1696,-2.1696,-2.1696,-2.1696,-2.1696,-2.1696,-2.1696,-2.1696,-2.1696,-2.1696,-2.1696,-2.1696,-2.1696,-2.1696,-2.1696,-2.1696,-2.1696,-2.1696,-2.8803,-2.8803,-2.8803,-2.8803,-2.8803,-2.8803,-2.8803,-2.8803,-2.8803,-2.8803,-2.8803,-2.8803,-2.8803,-2.8803,-2.8803,-2.8803,-2.8803,-2.8803,-2.8803,-2.8803,-2.8803,-2.8803,-2.8803,-2.8803,-2.8803,-2.8803,-2.8803,-2.8803,-2.8803,-2.8803,-2.8803,-2.8409,-2.8023,-2.7589,-2.721,-2.7067,-2.6972,-2.5771,-2.5538,-2.5781,-2.4627,-2.4202,-2.4202,-2.4202,-2.4202,-2.4202,-2.4202,-2.4202,-2.4202,-2.4202,-2.4202,-2.4165,-2.3923,-2.3584,-2.3133,-2.2721,-2.2318,-2.1952,-2.1751,-2.1696,-2.1776,-2.2132,-2.2264,-2.2353,-2.2643,-2.2984,-2.3517,-2.4584,-2.4807,-2.502,-2.577,-2.5895,-2.5895,-2.5895,-2.5895,-2.5895,-2.5895,-2.5895,-2.5895,-2.5895,-2.6249,-2.6487,-2.6487,-2.6539,-2.6332,-2.5737,-2.539,-2.4787,-2.3844,-2.3507,-2.2994,-2.2309,-2.2274,-2.2097,-2.1696,-2.1696,-2.1696,-2.1696,-2.1696,-2.1696,-2.1696,-2.1696,-2.1696,-2.1696,-2.1696,-2.1696,-2.1696,-2.1696,-2.1696,-2.1696,-2.1696,-2.1696,-2.1696,-2.1696,-2.1696,-2.1696,-2.8803,-2.8803,-2.8803,-2.8803,-2.8803,-2.8803,-2.8803,-2.8803,-2.8803,-2.8803,-2.8803,-2.8803,-2.8803,-2.8803,-2.8803,-2.8803,-2.8803,-2.8803,-2.8803,-2.8803,-2.8803,-2.8803,-2.8803,-2.8803,-2.8803,-2.8803,-2.8803,-2.8803,-2.8803,-2.8803,-2.8803,-2.7977,-2.7589,-2.7589,-2.6972,-2.702,-2.7494,-2.6109,-2.5877,-2.636,-2.4824,-2.4202,-2.4202,-2.4202,-2.4202,-2.4202,-2.4202,-2.4202,-2.4202,-2.4202,-2.4156,-2.3987,-2.3599,-2.3178,-2.273,-2.2382,-2.1998,-2.1696,-2.1696,-2.1696,-2.1865,-2.2627,-2.2353,-2.2255,-2.3681,-2.4284,-2.4775,-2.5549,-2.5728,-2.577,-2.5895,-2.5895,-2.5895,-2.5895,-2.5895,-2.5895,-2.5895,-2.5895,-2.5895,-2.5895,-2.6332,-2.6693,-2.6816,-2.6539,-2.626,-2.6052,-2.5527,-2.4882,-2.4092,-2.3507,-2.2828,-2.2078,-2.2078,-2.1998,-2.182,-2.182,-2.182,-2.182,-2.182,-2.1785,-2.1696,-2.1696,-2.1696,-2.1696,-2.1696,-2.1696,-2.1696,-2.1696,-2.1696,-2.1696,-2.1696,-2.1696,-2.1696,-2.1696,-2.1696,-2.1696,-2.8803,-2.8803,-2.8803,-2.8803,-2.8803,-2.8803,-2.8803,-2.8803,-2.8803,-2.8803,-2.8803,-2.8803,-2.8803,-2.8803,-2.8803,-2.8803,-2.8803,-2.8803,-2.8803,-2.8803,-2.8803,-2.8803,-2.8803,-2.8803,-2.8803,-2.8803,-2.8803,-2.8803,-2.8803,-2.8803,-2.8803,-2.7977,-2.7589,-2.7589,-2.7494,-2.7494,-2.7542,-2.6686,-2.6408,-2.636,-2.4824,-2.4202,-2.4202,-2.4202,-2.4202,-2.4202,-2.4202,-2.4202,-2.4202,-2.4202,-2.3923,-2.3563,-2.3508,-2.2977,-2.2355,-2.2346,-2.1998,-2.1696,-2.1696,-2.1696,-2.1865,-2.2627,-2.2715,-2.3013,-2.4423,-2.3874,-2.344,-2.4775,-2.5031,-2.52,-2.5812,-2.5895,-2.5895,-2.5895,-2.5895,-2.5895,-2.5895,-2.5895,-2.5895,-2.5895,-2.6622,-2.7389,-2.8179,-2.8179,-2.7765,-2.6741,-2.6577,-2.6058,-2.4999,-2.483,-2.4414,-2.3541,-2.3541,-2.3115,-2.2309,-2.2309,-2.2309,-2.2309,-2.2309,-2.2087,-2.1696,-2.1696,-2.1696,-2.1696,-2.1696,-2.1696,-2.1696,-2.1696,-2.1696,-2.1696,-2.1696,-2.1696,-2.1696,-2.1696,-2.1696,-2.1696,-2.8803,-2.8803,-2.8803,-2.8803,-2.8803,-2.8803,-2.8803,-2.8803,-2.8803,-2.8803,-2.8803,-2.8803,-2.8803,-2.8803,-2.8803,-2.8803,-2.8803,-2.8803,-2.8803,-2.8803,-2.8803,-2.8803,-2.8803,-2.8803,-2.8803,-2.8803,-2.8803,-2.8803,-2.8803,-2.8803,-2.8803,-2.7977,-2.7835,-2.8269,-2.7778,-2.7589,-2.7542,-2.6829,-2.6264,-2.5732,-2.4637,-2.4202,-2.4202,-2.4202,-2.4202,-2.4202,-2.4202,-2.4202,-2.4165,-2.3886,-2.3694,-2.3416,-2.2959,-2.2574,-2.2282,-2.2016,-2.1833,-2.1696,-2.1696,-2.1696,-2.1865,-2.2627,-2.2495,-2.2652,-2.4476,-2.4294,-2.4079,-2.5211,-2.5464,-2.5549,-2.5853,-2.6093,-2.6249,-2.6249,-2.6456,-2.6622,-2.6622,-2.6622,-2.6715,-2.6974,-2.7115,-2.7441,-2.8111,-2.7938,-2.7551,-2.704,-2.667,-2.6257,-2.5746,-2.4851,-2.4211,-2.379,-2.329,-2.2818,-2.2397,-2.2397,-2.2353,-2.222,-2.222,-2.2132,-2.1919,-2.1919,-2.183,-2.1696,-2.1696,-2.1696,-2.1696,-2.1696,-2.1696,-2.1696,-2.1696,-2.1696,-2.1696,-2.1696,-2.1696,-2.1696]},{"header":{"parameterUnit":"m.s-1","parameterCategory":1,"la1":30.6,"la2":28.766,"lo1":-90.7593,"lo2":-88.6598,"dy":0.0162,"dx":0.0183,"nx":116,"ny":114,"refTime":"2023-10-15T18:00:00:Z","depth":0,"parameterNumber":3,"parameterNumberName":"V-component_of_WINDS"},"data":[0.0,0.0,0.0,0.0,0.0,0.0,0.0,0.0,0.0,0.0,0.0,0.0,0.0,0.0,0.0,0.0,0.0,0.0,0.0,0.0,0.0,0.0,0.0,0.0,0.0,0.0,0.0,0.0,0.0,0.0,0.0,0.0,0.0,0.0,0.0,0.0,0.0,0.0,0.0,0.0,0.0,0.0,0.0,0.0,0.0,0.0,0.0,0.0,0.0,0.0,0.0,0.0,0.0,0.0,0.0,0.0,0.0,0.0,0.0,0.0,0.0,0.0,0.0,0.0,0.0,0.0,0.0,0.0,0.0,0.0,0.0,0.0,0.0,0.0,0.0,0.0,0.0,0.0,0.0,0.0,0.0,0.0,0.0,0.0,0.0,0.0,0.0,0.0,0.0,0.0,0.0,0.0,0.0,0.0,0.0,0.0,0.0,0.0,0.0,0.0,0.0,0.0,0.0,0.0,0.0,0.0,0.0,0.0,0.0,0.0,0.0,0.0,0.0,0.0,0.0,0.0,0.0,0.0,0.0,0.0,0.0,0.0,0.0,0.0,0.0,0.0,0.0,0.0,0.0,0.0,0.0,0.0,0.0,0.0,0.0,0.0,0.0,0.0,0.0,0.0,0.0,0.0,0.0,0.0,0.0,0.0,0.0,0.0,0.0,0.0,0.0,0.0,0.0,0.0,0.0,0.0,0.0,0.0,0.0,0.0,0.0,0.0,0.0,0.0,0.0,0.0,0.0,0.0,0.0,0.0,0.0,0.0,0.0,0.0,0.0,0.0,0.0,0.0,0.0,0.0,0.0,0.0,0.0,0.0,0.0,0.0,0.0,0.0,0.0,0.0,0.0,0.0,0.0,0.0,0.0,0.0,0.0,0.0,0.0,0.0,0.0,0.0,0.0,0.0,0.0,0.0,0.0,0.0,0.0,0.0,0.0,0.0,0.0,0.0,0.0,0.0,0.0,0.0,0.0,0.0,0.0,0.0,0.0,0.0,0.0,0.0,0.0,0.0,0.0,0.0,0.0,0.0,0.0,0.0,0.0,0.0,0.0,0.0,0.0,0.0,0.0,0.0,0.0,0.0,0.0,0.0,0.0,0.0,0.0,0.0,0.0,0.0,0.0,0.0,0.0,0.0,0.0,0.0,0.0,0.0,0.0,0.0,0.0,0.0,0.0,0.0,0.0,0.0,0.0,0.0,0.0,0.0,0.0,0.0,0.0,0.0,0.0,0.0,0.0,0.0,0.0,0.0,0.0,0.0,0.0,0.0,0.0,0.0,0.0,0.0,0.0,0.0,0.0,0.0,0.0,0.0,0.0,0.0,0.0,0.0,0.0,0.0,0.0,0.0,0.0,0.0,0.0,0.0,0.0,0.0,0.0,0.0,0.0,0.0,0.0,0.0,0.0,0.0,0.0,0.0,0.0,0.0,0.0,0.0,0.0,0.0,0.0,0.0,0.0,0.0,0.0,0.0,0.0,0.0,0.0,0.0,0.0,0.0,0.0,0.0,0.0,0.0,0.0,0.0,0.0,0.0,0.0,0.0,0.0,0.0,0.0,0.0,0.0,0.0,0.0,0.0,0.0,0.0,0.0,0.0,0.0,0.0,0.0,0.0,0.0,0.0,0.0,0.0,0.0,0.0,0.0,0.0,0.0,0.0,0.0,0.0,0.0,0.0,0.0,0.0,0.0,0.0,0.0,0.0,0.0,0.0,0.0,0.0,0.0,0.0,0.0,0.0,0.0,0.0,0.0,0.0,0.0,0.0,0.0,0.0,0.0,0.0,0.0,0.0,0.0,0.0,0.0,0.0,0.0,0.0,0.0,0.0,0.0,0.0,0.0,0.0,0.0,0.0,0.0,0.0,0.0,0.0,0.0,0.0,0.0,0.0,0.0,0.0,0.0,0.0,0.0,0.0,0.0,0.0,0.0,0.0,0.0,0.0,0.0,0.0,0.0,0.0,0.0,0.0,0.0,0.0,0.0,0.0,0.0,0.0,0.0,0.0,0.0,0.0,0.0,0.0,0.0,0.0,0.0,0.0,0.0,0.0,0.0,0.0,0.0,0.0,0.0,0.0,0.0,0.0,0.0,0.0,0.0,0.0,0.0,0.0,0.0,0.0,0.0,0.0,0.0,0.0,0.0,0.0,0.0,0.0,0.0,0.0,0.0,0.0,0.0,0.0,0.0,0.0,0.0,0.0,0.0,0.0,0.0,0.0,0.0,0.0,0.0,0.0,0.0,0.0,0.0,0.0,0.0,0.0,0.0,0.0,0.0,0.0,0.0,0.0,0.0,0.0,0.0,0.0,0.0,0.0,0.0,0.0,0.0,0.0,0.0,0.0,0.0,0.0,0.0,0.0,0.0,0.0,0.0,0.0,0.0,0.0,0.0,0.0,0.0,0.0,0.0,0.0,0.0,0.0,0.0,0.0,0.0,0.0,0.0,0.0,0.0,0.0,0.0,0.0,0.0,0.0,0.0,0.0,0.0,0.0,0.0,0.0,0.0,0.0,0.0,0.0,0.0,0.0,0.0,0.0,0.0,0.0,0.0,0.0,0.0,0.0,0.0,0.0,0.0,0.0,0.0,0.0,0.0,0.0,0.0,0.0,0.0,0.0,0.0,0.0,0.0,0.0,0.0,0.0,0.0,0.0,0.0,0.0,0.0,0.0,0.0,0.0,0.0,0.0,0.0,0.0,0.0,0.0,0.0,0.0,0.0,0.0,0.0,0.0,0.0,0.0,0.0,0.0,0.0,0.0,0.0,0.0,0.0,0.0,0.0,0.0,0.0,0.0,0.0,0.0,0.0,0.0,0.0,0.0,0.0,0.0,0.0,0.0,0.0,0.0,0.0,0.0,0.0,0.0,0.0,0.0,0.0,0.0,0.0,0.0,0.0,0.0,0.0,0.0,0.0,0.0,0.0,0.0,0.0,0.0,0.0,0.0,0.0,0.0,0.0,0.0,0.0,0.0,0.0,0.0,0.0,0.0,0.0,0.0,0.0,0.0,0.0,0.0,0.0,0.0,0.0,0.0,0.0,0.0,0.0,0.0,0.0,0.0,0.0,0.0,0.0,0.0,0.0,0.0,0.0,0.0,0.0,0.0,0.0,0.0,0.0,0.0,0.0,0.0,0.0,0.0,0.0,0.0,0.0,0.0,0.0,0.0,0.0,0.0,0.0,0.0,0.0,0.0,0.0,0.0,0.0,0.0,0.0,0.0,0.0,0.0,0.0,0.0,0.0,0.0,0.0,0.0,0.0,0.0,0.0,0.0,0.0,0.0,0.0,0.0,0.0,0.0,0.0,0.0,0.0,0.0,0.0,0.0,0.0,0.0,0.0,0.0,0.0,0.0,0.0,0.0,0.0,0.0,0.0,0.0,0.0,0.0,0.0,0.0,0.0,0.0,0.0,0.0,0.0,0.0,0.0,0.0,0.0,0.0,0.0,0.0,0.0,0.0,0.0,0.0,0.0,0.0,0.0,0.0,0.0,0.0,0.0,0.0,0.0,0.0,0.0,0.0,0.0,0.0,0.0,0.0,0.0,0.0,0.0,0.0,0.0,0.0,0.0,0.0,0.0,0.0,0.0,0.0,0.0,0.0,0.0,0.0,0.0,0.0,0.0,0.0,0.0,0.0,0.0,0.0,0.0,0.0,0.0,0.0,0.0,0.0,0.0,0.0,0.0,0.0,0.0,0.0,0.0,0.0,0.0,0.0,0.0,0.0,0.0,0.0,0.0,0.0,0.0,0.0,0.0,0.0,0.0,0.0,0.0,0.0,0.0,0.0,0.0,0.0,0.0,0.0,0.0,0.0,0.0,0.0,0.0,0.0,0.0,0.0,0.0,0.0,0.0,0.0,0.0,0.0,0.0,0.0,0.0,0.0,0.0,0.0,0.0,0.0,0.0,0.0,0.0,0.0,0.0,0.0,0.0,0.0,0.0,0.0,0.0,0.0,0.0,0.0,0.0,0.0,0.0,0.0,0.0,0.0,0.0,0.0,0.0,0.0,0.0,0.0,0.0,0.0,0.0,0.0,0.0,0.0,0.0,0.0,0.0,0.0,0.0,0.0,0.0,0.0,0.0,0.0,0.0,0.0,0.0,0.0,0.0,0.0,0.0,0.0,0.0,0.0,0.0,0.0,0.0,0.0,0.0,0.0,0.0,0.0,0.0,0.0,0.0,0.0,0.0,0.0,0.0,0.0,0.0,0.0,0.0,0.0,0.0,0.0,0.0,0.0,0.0,0.0,0.0,0.0,0.0,0.0,0.0,0.0,0.0,0.0,0.0,0.0,0.0,0.0,0.0,0.0,0.0,0.0,0.0,0.0,0.0,0.0,0.0,0.0,0.0,0.0,0.0,0.0,0.0,0.0,0.0,0.0,0.0,0.0,0.0,0.0,0.0,0.0,0.0,0.0,0.0,0.0,0.0,0.0,0.0,0.0,0.0,0.0,0.0,0.0,0.0,0.0,0.0,0.0,0.0,0.0,0.0,0.0,0.0,0.0,0.0,0.0,0.0,0.0,0.0,0.0,0.0,0.0,0.0,0.0,0.0,0.0,0.0,0.0,0.0,0.0,0.0,0.0,0.0,0.0,0.0,0.0,0.0,0.0,0.0,0.0,0.0,0.0,0.0,0.0,0.0,0.0,0.0,0.0,0.0,0.0,0.0,0.0,0.0,0.0,0.0,0.0,0.0,0.0,0.0,0.0,0.0,0.0,0.0,0.0,0.0,0.0,0.0,0.0,0.0,0.0,0.0,0.0,0.0,0.0,0.0,0.0,0.0,0.0,0.0,0.0,0.0,0.0,0.0,0.0,0.0,0.0,0.0,0.0,0.0,0.0,0.0,0.0,0.0,0.0,0.0,0.0,0.0,0.0,0.0,0.0,0.0,0.0,0.0,0.0,0.0,0.0,0.0,0.0,0.0,0.0,0.0,0.0,0.0,0.0,0.0,0.0,0.0,0.0,0.0,0.0,0.0,0.0,0.0,0.0,0.0,0.0,0.0,0.0,0.0,0.0,0.0,0.0,0.0,0.0,0.0,0.0,0.0,0.0,0.0,0.0,0.0,0.0,0.0,0.0,0.0,0.0,0.0,0.0,0.0,0.0,0.0,0.0,0.0,0.0,0.0,0.0,0.0,0.0,0.0,0.0,0.0,0.0,0.0,0.0,0.0,0.0,0.0,0.0,0.0,0.0,0.0,0.0,0.0,0.0,0.0,0.0,0.0,0.0,0.0,0.0,0.0,0.0,0.0,0.0,0.0,0.0,0.0,0.0,0.0,0.0,0.0,0.0,0.0,0.0,0.0,0.0,0.0,0.0,0.0,0.0,0.0,0.0,0.0,0.0,0.0,0.0,0.0,0.0,0.0,0.0,0.0,0.0,0.0,0.0,0.0,0.0,0.0,0.0,0.0,0.0,0.0,0.0,0.0,0.0,0.0,0.0,0.0,0.0,0.0,0.0,0.0,0.0,0.0,0.0,0.0,0.0,0.0,0.0,0.0,0.0,0.0,0.0,0.0,0.0,0.0,0.0,0.0,0.0,0.0,0.0,0.0,0.0,0.0,0.0,0.0,0.0,0.0,0.0,0.0,0.0,0.0,0.0,0.0,0.0,0.0,0.0,0.0,0.0,0.0,0.0,0.0,0.0,0.0,0.0,0.0,0.0,0.0,0.0,0.0,0.0,0.0,0.0,0.0,0.0,0.0,0.0,0.0,0.0,0.0,0.0,0.0,0.0,0.0,0.0,0.0,0.0,0.0,0.0,0.0,0.0,0.0,0.0,0.0,0.0,0.0,0.0,0.0,0.0,0.0,0.0,0.0,0.0,0.0,0.0,0.0,0.0,0.0,0.0,0.0,0.0,0.0,0.0,0.0,0.0,0.0,0.0,0.0,0.0,0.0,0.0,0.0,0.0,0.0,0.0,0.0,0.0,0.0,0.0,0.0,0.0,0.0,0.0,0.0,0.0,0.0,0.0,0.0,0.0,0.0,0.0,0.0,0.0,0.0,0.0,0.0,0.0,0.0,0.0,0.0,0.0,0.0,0.0,0.0,0.0,0.0,0.0,0.0,0.0,0.0,0.0,0.0,0.0,0.0,0.0,0.0,0.0,0.0,0.0,-2.89,-2.6838,0.0,0.0,0.0,0.0,0.0,0.0,0.0,0.0,0.0,0.0,0.0,0.0,0.0,0.0,0.0,0.0,0.0,0.0,0.0,0.0,0.0,0.0,0.0,0.0,0.0,0.0,0.0,0.0,0.0,0.0,0.0,0.0,0.0,0.0,0.0,0.0,0.0,0.0,0.0,0.0,0.0,0.0,0.0,0.0,0.0,0.0,0.0,0.0,0.0,0.0,0.0,0.0,0.0,0.0,0.0,0.0,0.0,0.0,0.0,0.0,0.0,0.0,0.0,0.0,0.0,0.0,0.0,0.0,0.0,0.0,0.0,0.0,0.0,0.0,0.0,0.0,0.0,0.0,0.0,0.0,0.0,0.0,0.0,0.0,0.0,0.0,0.0,0.0,0.0,0.0,0.0,0.0,0.0,0.0,0.0,0.0,0.0,0.0,0.0,0.0,0.0,0.0,0.0,0.0,0.0,0.0,0.0,0.0,0.0,0.0,0.0,0.0,0.0,0.0,-3.028,-2.899,0.0,0.0,0.0,0.0,0.0,0.0,0.0,0.0,0.0,0.0,0.0,0.0,0.0,0.0,0.0,0.0,0.0,0.0,0.0,0.0,0.0,0.0,0.0,0.0,0.0,0.0,0.0,0.0,0.0,0.0,0.0,0.0,0.0,0.0,0.0,0.0,0.0,0.0,0.0,0.0,0.0,0.0,0.0,0.0,0.0,0.0,0.0,0.0,0.0,0.0,0.0,0.0,0.0,0.0,0.0,0.0,0.0,0.0,0.0,0.0,0.0,0.0,0.0,0.0,0.0,0.0,0.0,0.0,0.0,0.0,0.0,0.0,0.0,0.0,0.0,0.0,0.0,0.0,0.0,0.0,0.0,0.0,0.0,0.0,0.0,0.0,0.0,0.0,0.0,0.0,0.0,0.0,0.0,0.0,0.0,0.0,0.0,0.0,0.0,0.0,0.0,0.0,0.0,0.0,0.0,0.0,0.0,0.0,-3.2567,-3.2437,-3.2161,-3.1429,-3.2064,-3.364,-3.1754,-3.1493,-3.2304,-3.0798,0.0,0.0,0.0,0.0,0.0,0.0,0.0,0.0,0.0,0.0,0.0,0.0,0.0,0.0,0.0,0.0,0.0,0.0,0.0,0.0,0.0,0.0,0.0,0.0,0.0,0.0,0.0,0.0,0.0,0.0,0.0,0.0,0.0,0.0,0.0,0.0,0.0,0.0,-2.9837,-2.9315,-2.9746,-3.0829,-2.8566,0.0,0.0,0.0,0.0,0.0,0.0,0.0,0.0,0.0,0.0,0.0,0.0,0.0,0.0,0.0,0.0,0.0,0.0,0.0,0.0,0.0,0.0,0.0,0.0,0.0,0.0,0.0,0.0,0.0,0.0,0.0,0.0,0.0,0.0,0.0,0.0,0.0,0.0,0.0,0.0,0.0,0.0,0.0,-2.9098,-2.9335,0.0,0.0,0.0,0.0,0.0,0.0,0.0,0.0,0.0,0.0,0.0,0.0,0.0,-3.2646,-3.418,-3.4607,-3.502,-3.5378,-3.5875,-3.5951,-3.5636,-3.5512,-3.5626,-3.586,-3.5584,0.0,-3.2083,-3.2353,0.0,0.0,0.0,0.0,0.0,0.0,0.0,0.0,0.0,0.0,0.0,0.0,0.0,0.0,0.0,0.0,0.0,0.0,0.0,0.0,0.0,0.0,0.0,0.0,0.0,0.0,0.0,0.0,0.0,0.0,0.0,0.0,0.0,0.0,0.0,0.0,-2.9406,-3.0058,-3.0428,-3.013,-3.035,-3.0873,-2.9855,-2.9089,-2.848,-2.7957,0.0,0.0,0.0,0.0,0.0,0.0,0.0,0.0,0.0,0.0,0.0,0.0,0.0,0.0,0.0,0.0,0.0,0.0,0.0,0.0,0.0,0.0,0.0,0.0,0.0,0.0,0.0,0.0,0.0,0.0,0.0,0.0,0.0,0.0,0.0,0.0,0.0,0.0,0.0,-2.893,-2.9549,-3.0548,-3.0156,-2.9761,0.0,0.0,0.0,0.0,0.0,0.0,0.0,0.0,0.0,-3.419,-3.4624,-3.5382,-3.6426,-3.7028,-3.7408,-3.7609,-3.8131,-3.8051,-3.7485,-3.7753,-3.778,-3.7617,-3.7962,-3.7435,-3.6212,-3.4688,-3.3932,-3.3643,0.0,0.0,0.0,0.0,-3.327,-3.3173,0.0,0.0,0.0,0.0,0.0,0.0,0.0,0.0,0.0,0.0,0.0,0.0,0.0,0.0,0.0,-2.5536,0.0,0.0,0.0,0.0,0.0,0.0,0.0,0.0,0.0,0.0,0.0,-2.9595,-3.018,-3.0499,-3.0598,-3.0772,-3.0814,-3.0814,-3.0814,-3.0308,-2.938,-2.8718,-2.8101,0.0,0.0,0.0,0.0,0.0,0.0,0.0,0.0,0.0,0.0,0.0,0.0,0.0,0.0,0.0,0.0,0.0,0.0,0.0,0.0,0.0,0.0,0.0,0.0,0.0,0.0,0.0,0.0,0.0,0.0,0.0,0.0,0.0,0.0,0.0,0.0,0.0,0.0,-3.0152,-3.0644,-3.1815,-3.1402,-3.0939,0.0,0.0,0.0,0.0,0.0,0.0,-3.4119,-3.4712,-3.5475,-3.6443,-3.7235,-3.7923,-3.857,-3.9263,-3.9678,-3.9858,-4.0343,-4.0277,-3.9707,-4.026,-4.0381,-4.0161,-4.0682,-4.0998,-4.0899,-3.7882,-3.7204,-3.7948,-3.6749,-3.6541,-3.6896,-3.7001,-3.6714,-3.6537,0.0,0.0,0.0,0.0,0.0,0.0,0.0,0.0,0.0,0.0,0.0,0.0,0.0,0.0,-2.6104,-2.6773,-2.6993,-2.6973,0.0,0.0,0.0,0.0,0.0,0.0,0.0,0.0,0.0,-3.0321,-3.0529,-3.0598,-3.0612,-3.1192,-3.1437,-3.1437,-3.1437,-3.1121,-3.0498,-3.0345,-3.0257,-3.0188,0.0,0.0,0.0,0.0,0.0,0.0,0.0,0.0,0.0,0.0,0.0,0.0,0.0,0.0,0.0,0.0,0.0,0.0,0.0,0.0,0.0,0.0,0.0,0.0,0.0,0.0,0.0,0.0,0.0,0.0,0.0,0.0,0.0,0.0,0.0,0.0,0.0,0.0,0.0,-3.3144,-3.2894,0.0,0.0,0.0,0.0,-3.3094,-3.453,-3.5793,-3.6654,-3.6744,-3.7229,-3.8237,-3.8999,-3.9697,-4.0348,-4.1107,-4.1774,-4.2407,-4.2944,-4.3168,-4.3185,-4.3945,-4.4319,-4.4319,-4.4602,-4.4833,-4.4811,-4.2166,-4.0276,-3.9151,-4.0402,-3.9545,-3.79,-4.012,-3.9995,-3.8938,0.0,0.0,0.0,0.0,0.0,0.0,0.0,0.0,0.0,0.0,0.0,0.0,0.0,-2.5539,-2.7477,-2.8075,-2.8865,-2.9049,-2.8352,0.0,0.0,0.0,0.0,0.0,0.0,0.0,-3.0251,-3.0544,-3.0963,-3.1177,-3.1192,-3.1859,-3.2133,-3.2133,-3.2133,-3.2034,-3.1758,-3.0879,-3.0188,-2.9712,-3.0114,-2.9591,0.0,0.0,0.0,0.0,0.0,0.0,0.0,0.0,0.0,0.0,0.0,0.0,0.0,0.0,0.0,0.0,0.0,0.0,0.0,0.0,0.0,0.0,0.0,0.0,0.0,0.0,0.0,0.0,0.0,0.0,0.0,0.0,0.0,0.0,0.0,0.0,0.0,-3.3861,-3.4588,0.0,-3.4263,-3.5215,-3.579,-3.5592,-3.6727,-3.7744,-3.8541,-3.8986,-3.9601,-4.0429,-4.1581,-4.2326,-4.2569,-4.3281,-4.3767,-4.4026,-4.4522,-4.4599,-4.4315,-4.4908,-4.533,-4.5652,-4.6136,-4.6734,-4.7308,-4.6718,-4.5081,-4.3014,-4.3504,-4.3073,-4.2236,-4.3096,-4.3042,-4.2629,0.0,0.0,0.0,0.0,0.0,0.0,0.0,0.0,0.0,0.0,0.0,-2.3408,-2.4538,-2.7147,-2.8968,-2.9361,-3.0133,-3.0207,-2.9284,0.0,0.0,0.0,0.0,0.0,0.0,-3.0324,-3.0675,-3.0887,-3.154,-3.1859,-3.1843,-3.2527,-3.2846,-3.2846,-3.2846,-3.2846,-3.2774,-3.1685,-3.0776,-3.0056,-3.0296,-2.9887,-2.915,0.0,0.0,0.0,0.0,0.0,0.0,0.0,0.0,0.0,0.0,0.0,0.0,0.0,0.0,0.0,0.0,0.0,0.0,0.0,0.0,0.0,0.0,0.0,0.0,0.0,0.0,0.0,0.0,0.0,0.0,0.0,0.0,0.0,0.0,-3.3395,-3.4543,-3.4891,-3.614,-3.6745,-3.6291,-3.7394,-3.814,-3.8192,-3.9035,-3.9985,-4.0959,-4.1369,-4.1905,-4.2665,-4.38,-4.4544,-4.4787,-4.5516,-4.5986,-4.6212,-4.6766,-4.6881,-4.6616,-4.7271,-4.7713,-4.8051,-4.8528,-4.9097,-4.9744,-5.032,-4.9286,-4.7325,-4.6747,-4.6388,-4.619,-4.619,-4.6034,-4.5784,0.0,0.0,0.0,0.0,0.0,0.0,0.0,0.0,0.0,0.0,-2.3504,-2.5474,-2.7492,-2.9435,-3.0598,-3.0598,-3.0598,-3.0236,-2.9368,-2.9444,0.0,0.0,0.0,0.0,-3.0225,-3.0864,-3.1337,-3.1524,-3.2191,-3.2556,-3.2553,-3.3256,-3.3576,-3.359,-3.359,-3.359,-3.3547,-3.2861,-3.2176,-3.1527,-3.0776,-3.0012,-2.9409,0.0,0.0,0.0,0.0,0.0,0.0,0.0,0.0,0.0,0.0,0.0,0.0,0.0,0.0,0.0,0.0,0.0,0.0,0.0,0.0,0.0,0.0,0.0,0.0,0.0,0.0,0.0,0.0,0.0,0.0,0.0,0.0,0.0,-3.3624,-3.4499,-3.5613,-3.6434,-3.7594,-3.8249,-3.8078,-3.9358,-4.0414,-4.0857,-4.1515,-4.2541,-4.3974,-4.3896,-4.414,-4.4868,-4.5548,-4.6245,-4.6941,-4.767,-4.8382,-4.903,-4.9723,-5.0069,-5.0103,-5.1069,-5.1549,-5.158,-5.1871,-5.2006,-5.2067,-5.2764,-5.26,-5.1806,-5.0058,-4.9347,-4.9329,-4.9311,-4.8853,-4.8127,0.0,0.0,0.0,0.0,0.0,0.0,0.0,0.0,0.0,0.0,-2.358,-2.5578,-2.7492,-2.9435,-3.0598,-3.0598,-3.0598,-3.0338,-2.9707,0.0,0.0,0.0,0.0,0.0,-3.0923,-3.1262,-3.1676,-3.2251,-3.289,-3.3441,-3.3906,-3.4578,-3.5116,-3.5532,-3.5532,-3.5532,-3.5459,-3.4356,-3.379,-3.3499,-3.238,-3.147,-3.0854,0.0,0.0,0.0,0.0,0.0,0.0,0.0,0.0,0.0,0.0,0.0,0.0,0.0,0.0,0.0,0.0,0.0,0.0,0.0,0.0,0.0,0.0,0.0,0.0,0.0,0.0,0.0,0.0,0.0,0.0,0.0,-3.5675,-3.6859,-3.6193,-3.7295,-3.8562,-3.96,-4.0595,-4.1329,-4.1707,-4.2427,-4.2943,-4.311,-4.3779,-4.4528,-4.5259,-4.591,-4.6494,-4.7103,-4.7783,-4.8236,-4.8431,-4.8641,-4.8799,-4.8994,-4.9193,-4.93,-4.93,-4.9725,-5.0241,-5.0839,-5.154,-5.22,-5.2793,-5.3447,-5.3602,-5.3256,-5.165,-5.0691,-5.0102,-4.9507,-4.9168,-4.8978,0.0,0.0,0.0,0.0,0.0,0.0,0.0,0.0,0.0,0.0,-2.4086,-2.5883,-2.851,-2.9885,-3.0598,-3.0598,-3.038,-3.0061,-2.9617,0.0,0.0,0.0,0.0,-3.0705,-3.1307,-3.1984,-3.2527,-3.2919,-3.3852,-3.4491,-3.482,-3.5494,-3.5952,-3.6301,-3.6301,-3.6301,-3.6257,-3.5517,-3.5212,-3.514,-3.4399,-3.32,-3.1855,-3.1827,-3.1353,-3.0706,-3.0727,-3.0462,-3.0077,-3.001,0.0,0.0,0.0,0.0,0.0,0.0,0.0,0.0,0.0,0.0,0.0,0.0,0.0,0.0,0.0,0.0,0.0,0.0,0.0,0.0,0.0,0.0,0.0,0.0,-3.8003,-3.9615,-3.9833,-4.0006,-4.0661,-4.219,-4.281,-4.3321,-4.395,-4.4558,-4.5049,-4.5343,-4.6027,-4.6711,-4.736,-4.773,-4.8134,-4.8521,-4.9203,-4.954,-4.9467,-4.9864,-5.0046,-5.0046,-5.0119,-5.0228,-5.0301,-5.05,-5.1015,-5.1748,-5.2257,-5.2874,-5.3636,-5.4307,-5.4593,-5.4461,0.0,0.0,0.0,0.0,-5.0816,-5.0762,0.0,0.0,0.0,0.0,0.0,0.0,0.0,0.0,0.0,0.0,0.0,-2.6226,-2.9879,-3.0447,-3.0568,-3.0568,-3.009,-2.9634,0.0,0.0,0.0,-2.9954,-3.0661,-3.1231,-3.1613,-3.2832,-3.3576,-3.3707,-3.484,-3.5465,-3.5625,-3.6156,-3.646,-3.6519,-3.6519,-3.6519,-3.6519,-3.6446,-3.6417,-3.6417,-3.6344,-3.4864,-3.269,-3.2578,-3.2124,-3.1498,-3.1306,-3.086,-3.0312,-3.0122,0.0,0.0,0.0,0.0,0.0,0.0,0.0,0.0,0.0,0.0,0.0,0.0,0.0,0.0,0.0,0.0,0.0,0.0,0.0,0.0,0.0,0.0,0.0,0.0,-4.0901,-4.2903,-4.3714,-4.2752,-4.2621,-4.4501,-4.4651,-4.4867,-4.5571,-4.6307,-4.6945,-4.7447,-4.8064,-4.8803,-4.9646,-4.9359,0.0,0.0,0.0,-5.0432,-5.0228,-5.1062,-5.1478,-5.1462,-5.1684,-5.1868,-5.203,-5.2338,-5.2747,-5.3264,-5.3516,-5.3927,-5.4454,-5.5207,-5.5519,-5.5437,-5.4509,-5.4073,-5.3912,-5.326,-5.3036,-5.2903,0.0,0.0,0.0,0.0,0.0,0.0,0.0,0.0,0.0,-2.3983,-2.4558,-2.5991,-2.9727,-3.0266,-3.0357,-3.0357,-3.0031,-2.9606,0.0,0.0,-2.9649,-2.9841,-3.0833,-3.1687,-3.2278,-3.3079,-3.3997,-3.5029,-3.5276,-3.5944,-3.6939,-3.7056,-3.7375,-3.7839,-3.7839,-3.7839,-3.7796,-3.7317,-3.7114,-3.707,-3.6533,-3.5401,-3.4037,-3.3991,-3.3284,-3.219,-3.1656,-3.135,-3.1131,-3.0544,-3.0353,-3.0467,-3.1052,-3.1172,0.0,0.0,0.0,0.0,0.0,0.0,0.0,0.0,0.0,0.0,0.0,0.0,0.0,0.0,0.0,0.0,0.0,0.0,0.0,-4.0809,-4.2385,-4.383,-4.5185,-4.5988,-4.6649,-4.7225,-4.7127,-4.7539,-4.8837,-4.8826,-4.8852,-4.9139,-4.911,-4.943,-5.0203,-5.0324,-5.0529,-5.0821,-5.1132,-5.1213,-5.0973,-5.1156,-5.1258,-5.1258,-5.1462,0.0,-5.1647,-5.2555,-5.2731,-5.2464,-5.4232,-5.4765,-5.4485,-5.5711,-5.6217,-5.6111,-5.5294,-5.4554,-5.3983,-5.3823,-5.3796,-5.3778,0.0,0.0,0.0,0.0,0.0,0.0,0.0,0.0,0.0,0.0,-2.3368,-2.4661,-2.7854,-2.8613,-2.8944,-2.9002,-2.9216,0.0,0.0,-2.9561,-3.0046,-3.0614,-3.1527,-3.2324,-3.2977,-3.3954,-3.4767,-3.5392,-3.6046,-3.6678,-3.7317,-3.7607,-3.7912,-3.8202,-3.8202,-3.8202,-3.8188,-3.7883,-3.7752,-3.7723,-3.7389,-3.6504,-3.5328,-3.5009,-3.4298,-3.3383,-3.273,-3.2077,-3.144,-3.1071,-3.0749,-3.0627,-3.1201,-3.1158,-3.0846,0.0,0.0,0.0,0.0,0.0,0.0,0.0,0.0,0.0,0.0,0.0,0.0,0.0,0.0,-3.7195,-3.8933,0.0,-4.1249,-4.297,-4.4397,-4.5649,-4.6742,-4.7786,-4.8448,-4.8531,-4.8611,-4.8985,-4.9829,-4.9962,-4.9981,-4.9981,-5.034,-5.068,-5.0929,-5.1055,-5.1198,-5.1333,-5.1462,-5.1387,-5.1183,-5.1312,-5.135,-5.135,-5.1557,-5.1684,-5.1831,-5.2483,-5.2747,-5.28,-5.391,-5.4391,-5.4485,-5.549,-5.6088,-5.6347,-5.5955,-5.5562,-5.5152,-5.4759,-5.459,-5.4536,0.0,0.0,0.0,0.0,0.0,0.0,0.0,0.0,0.0,0.0,-2.2208,-2.3358,-2.5922,-2.6852,-2.7344,0.0,0.0,0.0,0.0,-2.9592,-3.0381,-3.1437,-3.2133,-3.2817,-3.3489,-3.4753,-3.5465,-3.5581,-3.6736,-3.736,-3.7491,-3.797,-3.8202,-3.8202,-3.8202,-3.8202,-3.8202,-3.8202,-3.8202,-3.8202,-3.8202,-3.752,-3.6431,-3.5828,-3.5082,-3.4327,-3.3736,-3.2716,-3.1654,-3.1524,-3.1105,-3.0717,-3.1306,-3.1167,-3.0867,-3.1306,-3.1987,0.0,0.0,0.0,0.0,0.0,0.0,0.0,0.0,-3.5419,-3.578,-3.6976,-3.802,-3.9193,-4.0894,-4.2327,-4.3664,-4.4917,-4.6228,-4.7371,-4.8117,-4.8978,-4.9525,-4.9525,-4.9712,-4.9984,-5.0323,-5.0673,-5.0857,-5.0749,-5.1377,-5.1721,-5.161,-5.1573,-5.1536,-5.1499,-5.1536,-5.1462,-5.1258,-5.1424,-5.1499,-5.1573,-5.1758,-5.1941,-5.2102,-5.2428,-5.2834,-5.3196,-5.3349,-5.3862,-5.4641,-5.5177,-5.5797,-5.6401,-5.6401,-5.6401,-5.6311,-5.5669,-5.5437,-5.5348,0.0,0.0,0.0,0.0,0.0,0.0,0.0,0.0,0.0,0.0,0.0,0.0,0.0,0.0,0.0,0.0,0.0,0.0,-2.907,-2.9813,-3.0619,-3.1451,-3.2133,-3.2817,-3.3489,-3.4753,-3.5668,-3.6199,-3.6939,-3.7578,-3.8101,-3.8173,-3.8202,-3.8202,-3.8202,-3.8202,-3.8202,-3.8202,-3.8202,-3.8202,-3.8202,-3.7796,-3.7128,-3.646,-3.5459,-3.4327,-3.3736,-3.3006,-3.2292,-3.1683,-3.1105,-3.0717,-3.1306,-3.1795,-3.2086,-3.1715,-3.2512,-3.3312,-3.2248,-3.2967,-3.4257,-3.5429,-3.5278,-3.5554,0.0,-3.8274,-3.8124,-3.9862,-4.1066,-4.2059,-4.295,-4.388,-4.4967,-4.6411,-4.7338,-4.8133,-4.8879,-5.0171,-5.1067,-5.1067,-5.094,-5.1095,-5.1789,-5.174,-5.1736,-5.1898,-5.1688,-5.17,-5.203,-5.1868,-5.1668,-5.1515,-5.1684,-5.1684,-5.1462,-5.1499,-5.1573,-5.1778,-5.1977,-5.2066,-5.2139,-5.2904,-5.3008,-5.2535,-5.3128,-5.4104,-5.5296,-5.5355,-5.5797,-5.6401,-5.6401,-5.6401,-5.6383,-5.6294,-5.6258,-5.624,0.0,0.0,0.0,0.0,0.0,0.0,0.0,0.0,0.0,0.0,0.0,0.0,0.0,0.0,0.0,0.0,0.0,0.0,-2.8387,-2.9697,-3.0797,-3.1466,-3.2133,-3.2817,-3.3489,-3.4753,-3.5523,-3.5799,-3.6402,-3.7056,-3.768,-3.768,-3.7868,-3.8202,-3.8202,-3.8202,-3.8202,-3.8202,-3.7999,-3.768,-3.768,-3.707,-3.6098,-3.5459,-3.4646,-3.3885,-3.4021,-3.3695,0.0,0.0,-3.1753,-3.1278,-3.1441,-3.1649,-3.1921,-3.2122,-3.3118,-3.4306,-3.5013,-3.5754,-3.6564,-3.7418,-3.7765,-3.8206,-3.9486,-3.9951,-4.0481,-4.1884,-4.2879,-4.3916,-4.5193,-4.5639,-4.6168,-4.7371,-4.8166,-4.8912,-4.9657,-5.0634,-5.1464,-5.1895,-5.1749,-5.1809,-5.225,-5.1977,-5.1904,-5.2066,-5.1831,-5.1684,-5.1737,-5.1794,-5.1721,-5.1515,-5.1573,-5.1573,-5.1499,-5.1499,-5.1499,-5.1445,-5.1778,-5.1941,-5.1941,-5.2553,-5.2676,-5.2445,-5.3111,-5.396,-5.4857,-5.5236,-5.5797,-5.6401,-5.6401,-5.6401,-5.6401,-5.6401,-5.6401,-5.6401,0.0,0.0,0.0,0.0,0.0,0.0,0.0,0.0,0.0,0.0,0.0,0.0,0.0,0.0,0.0,0.0,0.0,0.0,0.0,-2.9203,-3.0421,-3.1451,-3.1959,-3.2542,-3.3195,-3.4491,-3.5131,-3.5131,-3.5909,-3.6562,-3.7027,-3.7027,-3.7259,-3.768,-3.768,-3.768,-3.768,-3.768,-3.7433,-3.7027,-3.7027,-3.6257,-3.5087,-3.4588,-3.4006,-3.3472,-3.3955,-3.374,0.0,0.0,-3.2308,-3.1798,-3.1768,-3.1871,-3.2061,-3.2466,-3.3408,-3.4807,-3.6829,-3.7699,-3.821,-3.8964,-3.9816,-4.0496,-4.0767,-4.1564,-4.2541,-4.3567,-4.445,-4.543,-4.6613,-4.6928,-4.7193,-4.7885,-4.8796,-4.9607,-5.0121,-5.0999,-5.1812,-5.2359,-5.2266,-5.2247,-5.239,-5.2086,-5.1977,-5.2175,-5.1977,-5.1831,-5.1758,-5.1831,-5.1794,-5.1573,-5.1573,-5.1573,-5.1573,-5.1573,-5.1573,-5.152,-5.1815,-5.1977,-5.1977,-5.2266,-5.2409,-5.2409,-5.2921,-5.3516,-5.4168,-5.4641,-5.5355,-5.6116,-5.6116,-5.6245,-5.6401,-5.6401,-5.6401,-5.6401,0.0,0.0,0.0,0.0,0.0,0.0,0.0,0.0,0.0,0.0,0.0,0.0,0.0,0.0,0.0,0.0,0.0,0.0,0.0,-2.8263,-2.9377,-3.1408,-3.1509,-3.1828,-3.2527,-3.379,-3.4443,-3.4443,-3.5691,-3.6315,-3.6344,-3.6344,-3.6344,-3.6359,-3.6359,-3.6359,-3.6359,-3.6359,-3.6359,-3.6344,-3.6344,-3.5575,-3.4443,-3.4428,-3.3911,-3.3222,-3.3222,0.0,0.0,0.0,-3.2623,-3.2117,-3.233,-3.2773,-3.3156,-3.2659,-3.3217,-3.4462,-3.6464,-3.7461,-3.8208,-3.9465,-4.0655,-4.1786,-4.2608,-4.3403,-4.4168,-4.5046,-4.5994,-4.6666,-4.6699,-4.7406,-4.7984,-4.8001,-4.9226,-5.0171,-5.0205,-5.1464,-5.2393,-5.2409,-5.2373,-5.2373,-5.2409,-5.2211,-5.2175,-5.239,-5.2194,-5.2175,-5.2338,-5.2211,-5.1993,-5.1794,-5.1778,-5.1778,-5.1778,-5.1778,-5.1961,-5.2373,-5.239,-5.2373,-5.2373,-5.2373,-5.2409,-5.2409,-5.2409,-5.2817,-5.3416,-5.3449,-5.4232,-5.5414,-5.5414,-5.5826,-5.6401,-5.6401,-5.6401,-5.6401,0.0,0.0,0.0,0.0,0.0,0.0,0.0,0.0,0.0,0.0,0.0,0.0,0.0,0.0,0.0,0.0,0.0,0.0,0.0,-2.7579,-2.89,-2.961,-3.0843,-3.1596,-3.1814,-3.2669,-3.3151,-3.3151,-3.3554,-3.4008,-3.4448,-3.4448,-3.4913,-3.5712,-3.5712,-3.5712,-3.5712,-3.5712,-3.5198,-3.4448,-3.4448,-3.392,-3.3097,-3.2507,-3.2166,-3.193,0.0,0.0,0.0,0.0,-3.2932,-3.2823,-3.2862,-3.3027,-3.3318,-3.37,-3.4841,-3.6216,-3.7209,-3.9007,-4.0778,-4.1488,-4.2696,-4.3799,-4.4075,-4.4805,-4.5522,-4.593,-4.6105,-4.6225,-4.6443,-4.6626,-4.6793,-4.6903,-4.8346,-4.9657,-5.0137,-5.1032,-5.1862,-5.2359,-5.2409,-5.2409,-5.2409,-5.2211,-5.2175,-5.2373,-5.2211,-5.2139,-5.2211,-5.2139,-5.203,-5.1815,-5.1941,-5.1941,-5.1778,-5.1778,-5.1851,-5.2013,-5.2013,-5.2158,-5.239,-5.2283,-5.2266,-5.2409,-5.2852,-5.3196,-5.3483,-5.4359,-5.4978,-5.5443,-5.5901,-5.6199,-5.6401,-5.6401,-5.6401,-5.6401,0.0,0.0,0.0,0.0,0.0,0.0,0.0,0.0,0.0,0.0,0.0,0.0,0.0,0.0,0.0,0.0,0.0,-2.4008,0.0,0.0,-2.7465,-2.7929,-2.9145,-2.9929,-3.0132,-3.0845,-3.1311,-3.1529,-3.1995,-3.2431,-3.2853,-3.3053,-3.359,-3.4341,-3.4341,-3.4341,-3.4341,-3.4341,-3.3667,-3.2584,-3.2584,-3.1975,-3.1057,-3.0493,-3.0475,0.0,0.0,0.0,0.0,0.0,-3.3103,-3.3372,-3.3439,-3.3524,-3.3793,-3.4877,-3.6007,-3.7254,-3.875,-4.0553,-4.2239,-4.315,-4.4285,-4.5193,-4.5259,-4.5733,-4.6274,-4.6438,-4.6048,-4.5751,-4.5962,-4.612,-4.6133,-4.5879,-4.7563,-4.9077,-4.956,-5.0475,-5.1439,-5.2293,-5.2409,-5.2409,-5.2409,-5.2266,-5.2283,-5.239,-5.2283,-5.2211,-5.2211,-5.2139,-5.203,-5.1904,-5.1977,-5.1977,-5.1904,-5.1904,-5.1941,-5.1997,-5.1997,-5.2158,-5.239,-5.2283,-5.2283,-5.2409,-5.2852,-5.3162,-5.3483,-5.4328,-5.4978,-5.5443,-5.5854,-5.6172,-5.6401,-5.6401,-5.6401,-5.6401,0.0,0.0,0.0,0.0,0.0,0.0,0.0,0.0,0.0,0.0,0.0,0.0,0.0,0.0,0.0,0.0,0.0,0.0,0.0,0.0,0.0,-2.6436,-2.6698,-2.707,-2.7637,-2.8385,-2.9067,-2.9652,-3.0864,-3.1447,-3.1461,-3.1995,-3.2251,-3.2266,-3.2266,-3.2266,-3.2266,-3.2297,-3.168,-3.0734,-3.0734,-2.9857,-2.8554,-2.855,0.0,0.0,0.0,0.0,0.0,-3.2366,-3.3095,-3.3713,-3.4057,-3.4282,-3.4691,-3.6039,-3.6721,-3.7715,-4.0939,-4.195,-4.2584,-4.4383,-4.5354,-4.589,-4.6058,-4.6241,-4.6422,-4.6518,-4.5829,-4.5211,-4.519,-4.5782,-4.5934,-4.4956,-4.6879,-4.8543,-4.8662,-4.9887,-5.1162,-5.2279,-5.2409,-5.2409,-5.2409,-5.2409,-5.2409,-5.2409,-5.2409,-5.2409,-5.2409,-5.2211,-5.2102,-5.2102,-5.1941,-5.1904,-5.2102,-5.2102,-5.2211,-5.2373,-5.2373,-5.239,-5.2409,-5.2373,-5.2373,-5.2409,-5.239,-5.2764,-5.3349,-5.3416,-5.42,-5.5355,-5.5414,-5.5826,-5.6401,-5.6401,-5.6401,-5.6401,0.0,0.0,0.0,0.0,0.0,0.0,0.0,0.0,0.0,0.0,0.0,0.0,0.0,0.0,0.0,0.0,0.0,0.0,0.0,0.0,0.0,0.0,0.0,0.0,0.0,0.0,0.0,0.0,0.0,-2.8066,-2.8134,-2.8267,-2.8645,-2.9211,-2.9279,-2.9292,-2.9292,-2.9418,-2.9043,-2.837,0.0,-2.8137,-2.7774,0.0,0.0,0.0,0.0,0.0,-3.0839,-3.1622,-3.2399,-3.3262,-3.4519,-3.5344,-3.6023,-3.6961,-3.8416,-4.0009,-4.1417,-4.2935,-4.4318,-4.5306,-4.6083,-4.654,-4.6189,-4.6125,-4.6012,-4.5526,-4.4586,-4.3851,-4.376,-4.4078,-4.4493,-4.4756,-4.6236,-4.7898,-4.956,-5.0125,-5.0872,-5.2243,-5.2409,-5.2409,-5.2409,-5.2409,-5.2409,-5.2409,-5.2409,-5.2409,-5.2409,-5.2338,-5.223,-5.2102,-5.2194,-5.2194,-5.2102,-5.2247,-5.2266,-5.2175,-5.2175,-5.223,-5.239,-5.2086,-5.2122,-5.2373,-5.2247,-5.2373,-5.2729,-5.3731,-5.4359,-5.4765,-5.5769,-5.6245,-5.6401,-5.6401,-5.6401,-5.6401,0.0,0.0,0.0,0.0,0.0,0.0,0.0,0.0,0.0,0.0,0.0,0.0,0.0,0.0,0.0,0.0,0.0,0.0,0.0,0.0,0.0,0.0,0.0,0.0,0.0,0.0,0.0,0.0,0.0,0.0,0.0,-2.6957,-2.7295,-2.7662,-2.7817,-2.7854,-2.7802,-2.7895,0.0,0.0,0.0,0.0,0.0,0.0,0.0,0.0,0.0,0.0,-3.0708,-3.1493,-3.2482,-3.358,-3.4813,-3.575,-3.6657,-3.7984,-3.9715,-4.1485,-4.2774,-4.4156,-4.5403,-4.6099,-4.6342,-4.633,-4.5881,-4.5422,-4.49,-4.4369,-4.3484,-4.2809,-4.2738,-4.3263,-4.3678,-4.3631,-4.5363,-4.7158,-4.8344,-4.9376,-5.0475,-5.1746,-5.221,-5.2409,-5.2409,-5.2409,-5.2409,-5.2409,-5.2409,-5.2409,-5.2409,-5.2318,-5.2247,-5.2247,-5.2247,-5.2247,-5.2247,-5.2338,-5.2338,-5.2247,-5.2247,-5.2283,-5.2373,-5.2158,-5.2194,-5.2373,-5.2283,-5.2464,-5.2921,-5.3992,-5.4579,-5.4948,-5.5986,-5.6401,-5.6401,-5.6401,-5.6401,-5.6401,0.0,0.0,0.0,0.0,0.0,0.0,0.0,0.0,0.0,0.0,0.0,0.0,0.0,0.0,0.0,0.0,0.0,0.0,0.0,0.0,0.0,0.0,0.0,0.0,0.0,0.0,0.0,0.0,0.0,0.0,0.0,0.0,0.0,0.0,0.0,0.0,0.0,0.0,0.0,0.0,0.0,0.0,0.0,0.0,0.0,0.0,0.0,0.0,-3.0824,-3.1682,-3.2846,-3.4117,-3.504,-3.5961,-3.707,-3.9035,-4.0794,-4.2432,-4.4286,-4.5289,-4.5953,-4.6619,-4.6295,-4.5698,-4.5289,-4.4429,-4.3589,-4.3202,-4.2577,-4.2074,-4.2035,-4.2832,-4.3228,-4.2447,-4.4582,-4.6404,-4.6586,-4.8446,-5.0159,-5.1184,-5.1962,-5.2409,-5.2409,-5.2409,-5.2409,-5.2409,-5.2409,-5.2409,-5.2409,-5.2247,-5.2211,-5.2373,-5.2247,-5.2211,-5.2409,-5.2409,-5.2409,-5.2409,-5.2409,-5.2409,-5.2409,-5.2338,-5.2338,-5.2409,-5.2445,-5.2817,-5.3449,-5.4232,-5.4887,-5.5461,-5.6144,-5.6401,-5.6383,-5.6328,-5.6328,-5.6328,0.0,0.0,0.0,0.0,0.0,0.0,0.0,0.0,0.0,0.0,0.0,0.0,0.0,0.0,0.0,0.0,0.0,0.0,0.0,0.0,0.0,0.0,0.0,0.0,0.0,-2.3198,-2.3346,-2.3449,-2.3687,0.0,0.0,0.0,0.0,0.0,0.0,0.0,0.0,0.0,0.0,0.0,0.0,0.0,0.0,0.0,0.0,0.0,0.0,-2.9651,-3.074,0.0,-3.2474,-3.3599,-3.5509,-3.6983,-3.8355,-3.9865,-4.1774,-4.3589,-4.4528,-4.5289,-4.5874,-4.6188,-4.6006,-4.5505,-4.4348,-4.3896,-4.3404,-4.2373,-4.213,-4.2031,-4.1745,-4.2061,-4.2615,-4.3305,-4.4615,-4.6036,-4.7515,-4.9094,-5.0422,-5.1216,-5.1962,-5.2409,-5.2409,-5.2409,-5.2409,-5.2409,-5.2409,-5.2409,-5.2409,-5.239,-5.2338,-5.2409,-5.239,-5.2338,-5.2409,-5.2409,-5.2409,-5.2409,-5.2409,-5.2409,-5.239,-5.205,-5.2086,-5.2409,-5.2644,-5.2992,-5.3483,-5.4734,-5.5296,-5.5461,-5.6144,-5.6401,-5.6373,-5.6088,-5.5975,-5.5947,0.0,0.0,0.0,0.0,0.0,0.0,0.0,0.0,0.0,0.0,0.0,0.0,0.0,0.0,0.0,0.0,0.0,0.0,0.0,0.0,0.0,0.0,0.0,0.0,0.0,-2.297,-2.3045,-2.3201,0.0,-2.3385,-2.3545,-2.3625,-2.3668,-2.3696,-2.3839,-2.394,-2.3982,0.0,0.0,0.0,-2.4151,-2.4193,0.0,0.0,0.0,0.0,0.0,-2.9646,-3.0746,-3.1269,-3.2189,-3.3535,-3.5649,-3.7274,-3.8683,-4.0075,-4.2019,-4.3864,-4.4593,-4.503,-4.5404,-4.5827,-4.5114,-4.4103,-4.3435,-4.2847,-4.2293,-4.1754,-4.1766,-4.1805,-4.1719,-4.1928,-4.2417,-4.3348,-4.42,-4.5307,-4.6984,-4.828,-4.9475,-5.0585,-5.1363,-5.1995,-5.234,-5.2409,-5.2409,-5.2409,-5.2409,-5.2409,-5.2409,-5.2409,-5.2409,-5.2409,-5.2409,-5.2409,-5.2409,-5.2409,-5.2409,-5.2409,-5.2409,-5.2409,-5.239,-5.2086,-5.2122,-5.2409,-5.2767,-5.3128,-5.3516,-5.4857,-5.5385,-5.5461,-5.6144,-5.6401,-5.6373,-5.6032,-5.6003,-5.6106,0.0,0.0,0.0,0.0,0.0,0.0,0.0,0.0,-1.7902,-1.7902,-1.7902,-1.7963,0.0,0.0,0.0,0.0,0.0,0.0,0.0,0.0,0.0,0.0,0.0,0.0,0.0,0.0,0.0,-2.3297,-2.3326,0.0,0.0,0.0,0.0,0.0,-2.3861,-2.3903,-2.3839,-2.3839,0.0,0.0,0.0,-2.413,0.0,0.0,0.0,0.0,0.0,-2.9335,-3.0555,-3.093,-3.1841,-3.3168,-3.5307,-3.6896,-3.8314,-3.9888,-4.177,-4.3539,-4.4383,-4.474,-4.4902,-4.5162,-4.4073,-4.2851,-4.2494,-4.1849,-4.1314,-4.1429,-4.1538,-4.1648,-4.178,-4.192,-4.2291,-4.3172,-4.3816,-4.4784,-4.6309,-4.7452,-4.863,-5.0038,-5.085,-5.1597,-5.2343,-5.2409,-5.2409,-5.2409,-5.2409,-5.2409,-5.2409,-5.2409,-5.2409,-5.2409,-5.2409,-5.2409,-5.2409,-5.2409,-5.2409,-5.2409,-5.2409,-5.2409,-5.2373,-5.2175,-5.2247,-5.2551,-5.3094,-5.3466,-5.383,-5.5087,-5.5607,-5.5682,-5.6199,-5.6401,-5.6373,-5.6032,-5.6032,-5.6134,0.0,0.0,0.0,0.0,0.0,0.0,0.0,0.0,-1.7902,-1.7902,-1.7902,-1.7929,0.0,0.0,0.0,0.0,0.0,0.0,0.0,0.0,0.0,0.0,0.0,0.0,0.0,0.0,0.0,-2.3297,-2.348,0.0,0.0,0.0,0.0,0.0,0.0,-2.3882,-2.3982,-2.3982,0.0,0.0,0.0,0.0,0.0,0.0,0.0,0.0,0.0,-2.8992,-3.0004,-3.0674,-3.1173,-3.1882,-3.4118,-3.5727,-3.7179,-3.9262,-4.0932,-4.2435,-4.3714,-4.4512,-4.4707,-4.3626,-4.3215,-4.2769,-4.1537,-4.1289,-4.1339,-4.1543,-4.1582,-4.1648,-4.178,-4.1723,-4.2002,-4.311,-4.3896,-4.4892,-4.6283,-4.7667,-4.8938,-5.0072,-5.085,-5.1597,-5.2343,-5.2409,-5.2409,-5.2409,-5.2409,-5.2409,-5.2409,-5.2409,-5.2409,-5.2409,-5.2409,-5.2409,-5.2409,-5.2409,-5.2409,-5.2409,-5.2409,-5.2409,-5.2373,-5.2175,-5.2373,-5.2903,-5.3648,-5.4279,-5.4844,-5.5872,-5.63,-5.63,-5.6373,-5.6401,-5.6373,-5.6032,-5.5775,-5.5531,0.0,0.0,0.0,0.0,0.0,0.0,0.0,0.0,-1.7781,-1.7781,-1.7842,0.0,0.0,0.0,0.0,0.0,0.0,0.0,0.0,0.0,0.0,0.0,0.0,0.0,0.0,0.0,-2.2217,-2.2807,-2.2914,0.0,0.0,0.0,0.0,0.0,0.0,-2.3717,-2.376,-2.394,0.0,0.0,0.0,0.0,0.0,0.0,0.0,0.0,0.0,0.0,-2.9984,-3.0451,-3.0953,-3.1632,-3.3228,-3.434,-3.5604,-3.8481,-3.9951,-4.0978,-4.2402,-4.2619,-4.2441,-4.2416,-4.2038,-4.1572,-4.1182,-4.1128,-4.1229,-4.1635,-4.174,-4.1827,-4.1973,-4.1952,-4.2339,-4.3681,-4.3895,-4.4599,-4.6586,-4.7185,-4.811,-4.9805,-5.0408,-5.1098,-5.231,-5.2409,-5.2409,-5.2409,-5.2409,-5.2409,-5.2409,-5.2409,-5.2409,-5.2409,-5.2409,-5.2409,-5.2409,-5.2409,-5.2409,-5.2409,-5.2409,-5.2409,-5.2373,-5.2175,-5.2409,-5.2938,-5.3549,-5.4119,-5.4672,-5.5682,-5.6088,-5.6116,-5.63,-5.6401,-5.6346,-5.5833,-5.5689,-5.5631,0.0,0.0,0.0,0.0,0.0,0.0,0.0,0.0,0.0,0.0,0.0,0.0,0.0,0.0,0.0,0.0,0.0,0.0,0.0,0.0,0.0,0.0,0.0,0.0,0.0,0.0,-2.1483,-2.223,-2.2271,-2.2572,0.0,0.0,-2.3152,-2.3131,0.0,0.0,0.0,0.0,0.0,0.0,0.0,0.0,0.0,0.0,0.0,0.0,0.0,0.0,0.0,0.0,0.0,-3.1411,-3.2742,-3.3455,0.0,-3.7633,-3.8918,-3.9631,-4.1132,-4.1167,-4.0887,-4.1344,-4.1105,-4.0771,-4.0823,-4.0957,-4.1209,-4.1736,-4.1909,-4.1998,-4.2082,-4.2103,-4.2576,0.0,-4.4025,-4.4581,-4.6801,-4.6951,-4.7529,-4.9365,-4.9721,-5.0408,-5.1911,-5.225,-5.2409,-5.2409,-5.2409,-5.2409,-5.2409,-5.2409,-5.2409,-5.2409,-5.2409,-5.2409,-5.2409,-5.2409,-5.2409,-5.2409,-5.2409,-5.2409,-5.239,-5.223,-5.2499,-5.3076,-5.3499,-5.404,-5.4645,-5.5537,-5.5918,-5.5947,-5.6273,-5.6401,-5.6346,-5.5822,-5.5746,-5.5775,0.0,0.0,0.0,0.0,0.0,0.0,0.0,0.0,0.0,0.0,0.0,0.0,0.0,0.0,0.0,0.0,0.0,0.0,0.0,0.0,0.0,0.0,0.0,0.0,0.0,0.0,-2.1475,-2.161,-2.1744,-2.1803,-2.1818,-2.2017,-2.2091,-2.2028,0.0,0.0,0.0,0.0,0.0,0.0,0.0,0.0,0.0,0.0,0.0,0.0,0.0,0.0,0.0,0.0,0.0,0.0,0.0,-3.3304,-3.3876,-3.6774,-3.7844,-3.8474,-4.0066,-4.0755,-4.0848,-4.0268,-4.0523,-4.0785,-4.0307,-4.0724,-4.1363,-4.188,-4.2055,-4.2103,-4.2103,-4.2103,-4.2576,-4.4058,-4.4301,-4.4959,-4.6827,-4.7157,-4.7596,-4.8685,-4.8879,-4.9505,-5.1057,-5.1913,-5.2409,-5.2409,-5.2409,-5.2409,-5.2409,-5.2409,-5.2409,-5.2409,-5.2409,-5.2409,-5.2409,-5.2409,-5.2409,-5.2409,-5.2409,-5.2409,-5.2409,-5.2409,-5.2764,-5.3416,-5.3748,-5.4316,-5.5053,-5.566,-5.5918,-5.5947,-5.6273,-5.6401,-5.6373,-5.6032,-5.589,-5.5815,0.0,0.0,0.0,0.0,0.0,0.0,0.0,0.0,0.0,0.0,0.0,0.0,0.0,0.0,0.0,0.0,0.0,0.0,0.0,0.0,0.0,0.0,0.0,0.0,0.0,0.0,0.0,-2.1182,-2.122,-2.1481,-2.194,-2.1998,-2.2017,-2.1994,-2.2106,-2.2144,0.0,0.0,0.0,0.0,0.0,0.0,-2.4534,0.0,0.0,0.0,0.0,0.0,0.0,0.0,0.0,0.0,0.0,0.0,0.0,-3.6002,-3.681,-3.7259,-3.8337,-3.8782,-3.8975,-3.9312,-3.9836,-4.038,-4.0696,-4.1186,-4.1692,-4.1962,-4.2163,-4.229,-4.2246,-4.2351,-4.289,-4.4288,-4.4577,-4.5223,-4.6925,-4.739,-4.8043,-4.9389,-5.0589,-5.148,-5.1979,-5.2269,-5.2409,-5.2409,-5.2409,-5.2409,-5.2409,-5.2409,-5.2409,-5.2409,-5.2409,-5.2409,-5.2409,-5.2409,-5.2409,-5.2409,-5.2409,-5.2409,-5.2409,-5.2886,-5.3196,-5.3416,-5.3992,-5.4411,-5.4714,-5.5366,-5.5648,-5.5677,-5.6189,-5.6401,-5.6373,-5.6032,-5.5918,-5.5815,0.0,0.0,0.0,0.0,0.0,0.0,0.0,0.0,0.0,0.0,0.0,0.0,0.0,0.0,0.0,0.0,0.0,0.0,0.0,0.0,0.0,0.0,0.0,0.0,0.0,0.0,0.0,-2.0628,-2.07,-2.0917,-2.1291,-2.1403,-2.1421,-2.1403,-2.1529,-2.1741,0.0,0.0,0.0,0.0,0.0,0.0,-2.4732,0.0,0.0,0.0,0.0,0.0,0.0,0.0,0.0,0.0,0.0,0.0,0.0,0.0,-3.6317,-3.6605,-3.7329,-3.7695,-3.8028,-3.8897,-3.9519,-4.0157,-4.092,-4.1475,-4.1905,-4.203,-4.2267,-4.2452,-4.2387,-4.2799,-4.349,-4.4578,-4.5086,-4.5777,-4.7084,-4.7498,-4.8118,-4.937,-5.0975,-5.1947,-5.1947,-5.2202,-5.2409,-5.2409,-5.2409,-5.2409,-5.2409,-5.2409,-5.2409,-5.2409,-5.2409,-5.2409,-5.2409,-5.2409,-5.2409,-5.2409,-5.2409,-5.2409,-5.2409,-5.3111,-5.3382,-5.3449,-5.4104,-5.4443,0.0,-5.5083,-5.5324,-5.5354,-5.5879,-5.6049,-5.6021,-5.5689,-5.5631,-5.566,0.0,0.0,0.0,0.0,0.0,0.0,0.0,0.0,0.0,0.0,0.0,0.0,0.0,0.0,0.0,0.0,0.0,0.0,0.0,0.0,0.0,0.0,0.0,0.0,0.0,-1.9744,-1.9848,-2.0041,-2.0218,-2.0268,-2.0212,-2.0454,-2.0569,-2.0562,-2.0767,-2.1265,-2.205,-2.286,-2.3531,-2.4063,-2.4299,-2.4774,0.0,0.0,0.0,0.0,0.0,0.0,0.0,0.0,0.0,0.0,0.0,0.0,0.0,0.0,0.0,0.0,0.0,-3.7359,-3.7899,-3.8867,-3.9514,-4.0127,-4.104,-4.1648,0.0,-4.21,-4.2371,-4.257,-4.2524,-4.333,-4.4225,-4.4895,-4.5687,-4.6489,-4.7287,-4.7618,-4.8056,-4.8823,-5.0294,-5.1251,-5.1214,-5.1913,-5.2409,-5.2409,-5.2409,-5.2409,-5.2409,-5.2409,-5.2409,-5.2409,-5.2409,-5.2409,-5.2409,-5.2409,-5.2409,-5.2409,-5.239,-5.239,-5.2409,-5.3128,-5.3449,-5.3483,-5.42,-5.4537,-5.4575,-5.49,-5.5022,-5.5022,-5.5383,-5.5502,-5.5472,-5.5144,-5.5234,-5.5413,0.0,0.0,0.0,0.0,0.0,0.0,0.0,0.0,0.0,0.0,0.0,0.0,0.0,0.0,0.0,0.0,0.0,0.0,0.0,0.0,0.0,0.0,0.0,0.0,0.0,-2.0078,-2.02,-2.0302,-2.0354,-2.0686,-2.1253,-2.1323,-2.1604,-2.2085,-2.2283,-2.2574,-2.2908,-2.3103,-2.3279,-2.3471,-2.4126,-2.4539,0.0,0.0,0.0,0.0,-2.7271,-2.8225,0.0,0.0,0.0,0.0,0.0,0.0,0.0,0.0,-3.644,-3.6496,-3.6728,0.0,-3.7554,-3.8903,-3.9547,-4.0147,0.0,-4.1888,-4.2079,-4.2103,-4.2371,-4.2589,-4.257,-4.3372,-4.4245,-4.4962,-4.5755,-4.6585,-4.7433,-4.8685,-4.9393,-4.9005,-5.0824,-5.1881,-5.1251,-5.1913,-5.2409,-5.2409,-5.2409,-5.2409,-5.2409,-5.2409,-5.2409,-5.2409,-5.2409,-5.2409,-5.2409,-5.2409,-5.2409,-5.2409,-5.2247,-5.2247,-5.2445,-5.3466,-5.3878,-5.3847,-5.5026,-5.5289,-5.49,-5.5234,-5.5234,-5.5022,-5.5383,-5.5502,-5.5502,-5.5413,-5.5443,-5.5443,0.0,0.0,0.0,0.0,0.0,0.0,0.0,0.0,0.0,0.0,0.0,0.0,0.0,0.0,0.0,0.0,0.0,0.0,0.0,0.0,0.0,0.0,0.0,0.0,0.0,-2.0148,-2.027,-2.0354,-2.075,-2.1163,-2.1608,-2.203,-2.2445,-2.2857,-2.3394,-2.3683,-2.3769,-2.418,-2.4344,-2.4356,-2.4873,0.0,0.0,0.0,0.0,0.0,-2.7936,-2.8895,0.0,-3.0649,-3.1273,-3.1972,0.0,0.0,0.0,0.0,-3.6391,-3.6748,-3.6826,-3.7211,-3.7875,-3.9027,-3.9776,-4.0544,-4.1669,-4.2019,-4.2124,-4.2264,-4.245,-4.2629,-4.2668,-4.3465,-4.4381,-4.5077,-4.5952,-4.6802,-4.759,-4.8754,-4.9522,-4.9511,-5.0874,-5.1815,-5.1749,-5.2123,-5.2409,-5.2409,-5.2409,-5.2409,-5.2409,-5.2409,-5.2409,-5.2409,-5.2409,-5.2409,-5.2409,-5.2409,-5.2338,-5.2283,-5.2247,-5.2247,-5.2302,-5.3615,-5.4104,-5.3977,-5.5182,-5.5425,-5.4992,-5.5022,-5.493,-5.4776,-5.4961,-5.5053,-5.5053,-5.5053,-5.5053,-5.5022,0.0,0.0,0.0,0.0,0.0,0.0,0.0,0.0,0.0,0.0,0.0,0.0,0.0,0.0,0.0,0.0,0.0,0.0,0.0,0.0,0.0,0.0,0.0,0.0,0.0,0.0,0.0,-2.0545,-2.1276,-2.1755,-2.1992,-2.2825,-2.3321,-2.3535,-2.4329,-2.4661,-2.4689,-2.5419,-2.5715,-2.5672,-2.5842,0.0,0.0,0.0,0.0,0.0,0.0,0.0,0.0,-3.1523,-3.1893,-3.2123,-3.3016,0.0,0.0,0.0,0.0,0.0,-3.7046,-3.7657,-3.8497,-3.9174,-4.0097,-4.1079,-4.1905,-4.2103,-4.2205,-4.2463,-4.2548,-4.2645,-4.283,-4.3716,-4.4636,-4.5256,-4.6265,-4.7203,-4.7892,-4.8625,-4.9335,-5.002,-5.0847,-5.1581,-5.2156,-5.2348,-5.2409,-5.2409,-5.2409,-5.2409,-5.2409,-5.2409,-5.2409,-5.2409,-5.2409,-5.2445,-5.2535,-5.2535,-5.2499,-5.2393,-5.2535,-5.2499,-5.2357,-5.378,-5.4296,-5.4089,-5.5169,-5.5443,-5.5096,-5.4776,-5.462,-5.4575,-5.4512,-5.4512,-5.4512,-5.4512,-5.4512,-5.4512,0.0,0.0,0.0,0.0,0.0,0.0,0.0,0.0,0.0,0.0,0.0,0.0,0.0,0.0,0.0,0.0,0.0,0.0,0.0,0.0,0.0,0.0,0.0,0.0,0.0,0.0,0.0,0.0,0.0,-2.2489,-2.3716,-2.4033,-2.4588,-2.5301,-2.5452,-2.5556,-2.5679,-2.5813,-2.5862,-2.586,-2.5954,0.0,0.0,0.0,0.0,0.0,0.0,0.0,0.0,-3.1615,-3.209,-3.2441,-3.3087,0.0,0.0,0.0,0.0,0.0,-3.722,-3.8048,-3.8993,-3.9441,-4.0321,-4.1245,-4.1946,-4.2187,-4.2308,-4.2463,-4.2548,-4.2689,-4.2991,-4.4199,-4.5248,-4.5523,-4.6741,-4.7914,-4.8699,-4.9495,-5.004,-5.0082,-5.1346,-5.2013,-5.1426,-5.1978,-5.2409,-5.2409,-5.2409,-5.2409,-5.2409,-5.2409,-5.2409,-5.2409,-5.2409,-5.2659,-5.323,-5.3264,-5.3349,-5.3616,-5.3482,-5.3332,-5.323,-5.4134,-5.4624,-5.4813,-5.5815,-5.606,-5.5746,-5.5455,-5.5174,-5.49,-5.4606,-5.4512,-5.4512,-5.4512,-5.4512,-5.4512,0.0,0.0,0.0,0.0,0.0,0.0,0.0,0.0,0.0,0.0,0.0,0.0,0.0,0.0,0.0,0.0,0.0,0.0,0.0,0.0,0.0,0.0,0.0,0.0,0.0,0.0,0.0,0.0,0.0,-2.3456,-2.4167,-2.4795,-2.5373,-2.5883,-2.5936,-2.599,-2.6078,-2.6152,-2.6171,-2.6189,0.0,0.0,0.0,0.0,0.0,0.0,0.0,0.0,0.0,0.0,-3.2232,-3.2527,-3.2913,0.0,0.0,0.0,0.0,0.0,-3.7906,-3.8732,-3.9567,-3.9845,-4.0446,-4.1007,-4.1331,-4.1463,-4.1618,-4.2082,-4.219,-4.2403,-4.2985,-4.3722,-4.4548,-4.5543,-4.6565,-4.7689,-4.8838,-4.9304,-4.9814,-5.0602,-5.1327,-5.1799,-5.1848,-5.2171,-5.2409,-5.2409,-5.2409,-5.2409,-5.2409,-5.2409,-5.2409,-5.2409,-5.2409,-5.2886,-5.391,-5.3943,-5.3943,-5.4008,-5.3845,-5.3681,-5.3516,-5.4183,-5.453,-5.4689,-5.5555,-5.5822,-5.566,-5.5561,-5.5413,-5.5234,-5.49,-5.4776,-5.4745,-5.4575,-5.4512,-5.4512,0.0,0.0,0.0,0.0,0.0,0.0,0.0,0.0,0.0,0.0,0.0,0.0,0.0,0.0,0.0,0.0,0.0,0.0,0.0,0.0,0.0,0.0,0.0,0.0,0.0,0.0,-2.1979,-2.2485,-2.3606,-2.4324,-2.4613,-2.5385,-2.5848,-2.6064,-2.6169,-2.6257,-2.6292,-2.64,-2.6469,-2.6504,0.0,0.0,0.0,0.0,0.0,0.0,0.0,0.0,0.0,0.0,0.0,0.0,0.0,0.0,0.0,-3.5488,-3.6559,-3.7774,-3.8307,-3.9069,-3.9784,-3.9993,-4.0612,-4.1128,-4.0849,-4.0919,-4.1134,-4.1583,-4.1811,-4.2132,-4.2785,-4.3395,-4.432,-4.5761,-4.6595,-4.7595,-4.9072,-4.9248,-4.9778,-5.129,-5.1477,-5.1715,-5.2329,-5.2409,-5.2409,-5.2409,-5.2409,-5.2409,-5.2409,-5.2409,-5.2409,-5.2409,-5.2409,-5.3042,-5.4391,-5.4391,-5.4454,-5.453,-5.4345,-5.4154,-5.3943,-5.4345,-5.4534,-5.4582,-5.5229,-5.5502,-5.5502,-5.5502,-5.5443,-5.5354,-5.5113,-5.4961,-5.4838,-5.4589,-5.4512,-5.4512,0.0,0.0,0.0,0.0,0.0,0.0,0.0,0.0,0.0,0.0,0.0,0.0,0.0,0.0,0.0,0.0,0.0,0.0,0.0,0.0,0.0,0.0,0.0,0.0,0.0,-2.1856,-2.2646,-2.4225,-2.434,-2.4855,-2.5779,-2.5846,-2.6026,-2.6278,-2.6295,-2.6399,-2.6555,-2.6572,-2.6623,-2.6759,-2.7572,0.0,0.0,0.0,0.0,0.0,0.0,0.0,0.0,0.0,0.0,0.0,0.0,0.0,-3.5536,-3.6356,-3.7216,-3.7899,-3.7935,-3.8623,-3.9382,-3.9517,-4.0984,-4.21,-4.1036,-4.1225,-4.1516,-4.1059,-4.1522,-4.2042,-4.2218,-4.3996,-4.5684,-4.6498,-4.7306,-4.8379,-4.9892,-5.0124,-5.0656,-5.2132,-5.2314,-5.2329,-5.2393,-5.2409,-5.2409,-5.2409,-5.2409,-5.2409,-5.2409,-5.2409,-5.2409,-5.2409,-5.2409,-5.3042,-5.4391,-5.4391,-5.4857,-5.5786,-5.5514,-5.5217,-5.4913,-5.4961,-5.4944,-5.4974,-5.5354,-5.5502,-5.5502,-5.5502,-5.5324,-5.5022,-5.5022,-5.4807,-5.4543,-5.4512,-5.4512,-5.4512,0.0,0.0,0.0,0.0,0.0,0.0,0.0,0.0,0.0,0.0,0.0,0.0,0.0,0.0,0.0,0.0,0.0,0.0,0.0,0.0,0.0,0.0,0.0,-2.1548,-2.2735,-2.2714,-2.3264,-2.4406,-2.4936,-2.5511,-2.6096,-2.6096,0.0,-2.6503,-2.6538,-2.664,-2.6792,-2.6875,-2.723,-2.7791,-2.8165,-2.8937,0.0,0.0,0.0,0.0,0.0,0.0,0.0,0.0,-3.3058,-3.3734,-3.4053,-3.5103,-3.6283,-3.6654,-3.7319,-3.8076,-3.8563,-3.9056,-3.9441,-3.9502,-4.0831,-4.1835,-4.0696,-4.0601,-4.0827,-4.1047,-4.1343,-4.1837,-4.278,-4.4084,-4.5269,-4.6028,-4.6773,-4.7973,-4.9923,-5.022,-5.075,-5.2208,-5.2409,-5.2409,-5.2409,-5.2409,-5.2409,-5.2409,-5.2409,-5.2409,-5.2409,-5.2409,-5.2409,-5.2409,-5.2409,-5.3042,-5.4391,-5.4391,-5.5026,-5.6217,-5.589,-5.5601,-5.5294,-5.5113,-5.49,-5.4714,-5.5053,-5.5204,-5.5204,-5.5413,-5.5413,-5.5294,-5.5083,-5.4807,-5.4512,-5.4512,-5.4512,-5.4512,0.0,0.0,0.0,0.0,0.0,0.0,0.0,0.0,0.0,0.0,0.0,0.0,0.0,0.0,0.0,0.0,0.0,0.0,0.0,0.0,0.0,0.0,0.0,-2.21,-2.3362,-2.3585,-2.4053,-2.482,-2.5509,-2.599,-2.6222,0.0,0.0,-2.664,-2.6725,-2.6978,-2.7349,-2.7464,-2.8008,-2.8848,-2.9139,-2.9967,0.0,0.0,0.0,0.0,0.0,0.0,0.0,0.0,-3.3353,-3.4261,-3.4526,-3.5581,-3.6798,-3.7151,-3.7499,-3.7953,-3.8726,-3.9055,-3.9257,-3.9549,-4.0609,-4.138,-4.0695,-4.07,-4.0854,-4.0917,-4.1322,-4.2083,-4.3492,-4.4427,-4.5244,-4.5953,-4.6739,-4.7934,-4.9939,-5.022,-5.075,-5.2208,-5.2409,-5.2409,-5.2409,-5.2409,-5.2409,-5.2409,-5.2409,-5.2409,-5.2409,-5.2409,-5.2409,-5.2409,-5.2409,-5.2973,-5.4232,-5.4359,-5.5026,-5.6245,-5.6134,-5.5861,-5.5502,-5.5144,-5.4807,-5.4512,-5.4838,-5.493,-5.4869,-5.5204,-5.5354,-5.5324,-5.4961,-5.4683,-5.4512,-5.4512,-5.4512,-5.4512,0.0,0.0,0.0,0.0,0.0,0.0,0.0,0.0,0.0,0.0,0.0,0.0,0.0,0.0,0.0,0.0,0.0,0.0,0.0,0.0,0.0,0.0,0.0,-2.2784,-2.36,-2.4334,-2.5035,-2.5703,-2.6043,-2.624,-2.6313,-2.652,0.0,-2.6708,-2.6842,-2.7435,-2.8303,-2.837,-2.8918,-2.978,-3.0576,-3.1043,-3.1299,0.0,0.0,0.0,0.0,0.0,0.0,0.0,-3.3435,-3.4367,-3.5238,-3.6112,-3.7006,-3.7922,-3.7792,-3.7482,-3.8189,-3.8439,-3.8715,-3.9661,-4.0327,-4.0877,-4.1209,-4.1749,-4.1847,-4.0648,-4.1486,-4.2853,-4.423,-4.5111,-4.5857,-4.6586,-4.7448,-4.8514,-4.9988,-5.022,-5.075,-5.2191,-5.2409,-5.2409,-5.2409,-5.2409,-5.2409,-5.2409,-5.2409,-5.2409,-5.2409,-5.2409,-5.2409,-5.2409,-5.2409,-5.2886,-5.3912,-5.4232,-5.4905,-5.5918,-5.6245,-5.6077,-5.5502,-5.5174,-5.4838,-5.4543,-5.4869,-5.4807,-5.4543,-5.4869,-5.4992,-5.4961,-5.4637,-5.4512,-5.4512,-5.4512,-5.4512,-5.4512,0.0,0.0,0.0,0.0,0.0,0.0,0.0,0.0,0.0,0.0,0.0,0.0,0.0,0.0,0.0,0.0,0.0,0.0,0.0,0.0,0.0,0.0,0.0,0.0,0.0,0.0,-2.5902,-2.6043,-2.6259,-2.6418,0.0,0.0,0.0,-2.7006,-2.762,-2.8096,-2.8485,-2.9121,-2.9913,-3.0779,-3.1124,-3.1628,-3.2221,0.0,0.0,0.0,0.0,0.0,0.0,0.0,0.0,0.0,-3.6181,-3.7043,-3.7849,-3.8119,-3.8071,-3.7986,-3.8272,-3.8478,-3.8713,-3.8929,-3.9683,-4.039,-4.0432,-4.1017,-4.1639,-4.181,-4.3009,-4.414,-4.4565,-4.569,-4.6575,-4.6818,-4.7479,-4.8332,-4.9293,-4.9889,-5.0551,-5.1531,-5.2094,-5.2409,-5.2409,-5.2409,-5.2409,-5.2409,-5.2409,-5.2409,-5.2409,-5.2409,-5.2605,-5.3076,-5.3094,-5.3583,-5.4596,-5.4935,-5.5284,-5.5619,-5.5735,-5.5775,-5.5775,-5.5689,-5.5484,-5.5204,-5.5053,-5.493,-5.4838,-5.4683,-5.4652,-5.462,-5.4543,-5.4512,-5.4512,-5.4512,-5.4512,-5.4512,0.0,0.0,0.0,0.0,0.0,0.0,0.0,0.0,0.0,0.0,-1.7925,-1.8461,0.0,0.0,0.0,0.0,0.0,0.0,0.0,0.0,0.0,0.0,0.0,0.0,0.0,-2.5531,-2.6167,0.0,0.0,0.0,0.0,0.0,-2.721,-2.7648,0.0,-2.8862,-2.9567,-3.012,-3.0865,-3.1735,-3.1835,-3.2233,-3.2721,0.0,0.0,0.0,0.0,0.0,0.0,0.0,0.0,0.0,-3.6575,-3.7454,-3.8157,-3.7915,-3.7827,-3.7882,-3.8105,-3.8216,-3.8395,-3.8777,-3.953,-4.0357,-4.0927,-4.1429,-4.1992,-4.2759,-4.3889,-4.4805,-4.5062,-4.6088,-4.6984,-4.7281,-4.7708,-4.8266,-4.9011,-4.9491,-5.0154,-5.1199,-5.1696,-5.2094,-5.2393,-5.2409,-5.2409,-5.2409,-5.2409,-5.2409,-5.2409,-5.2659,-5.2973,-5.3382,-5.3665,-5.4089,-5.4689,-5.5026,-5.5242,-5.5294,-5.5443,-5.5572,-5.5746,-5.5601,-5.5366,-5.5083,-5.49,-5.4807,-5.4776,-5.4589,-5.4512,-5.4512,-5.4512,-5.4512,-5.4512,-5.4512,-5.4512,-5.4512,0.0,0.0,0.0,0.0,0.0,0.0,0.0,0.0,0.0,0.0,-1.7257,-1.7884,0.0,0.0,0.0,0.0,0.0,0.0,0.0,0.0,0.0,0.0,0.0,0.0,0.0,0.0,0.0,0.0,0.0,0.0,0.0,0.0,-2.7699,-2.8539,0.0,-2.9719,-3.1112,-3.1266,-3.1787,-3.2523,-3.2606,-3.2737,-3.2916,-3.2932,0.0,0.0,0.0,0.0,0.0,0.0,0.0,0.0,-3.6699,-3.7508,-3.8088,-3.7542,-3.7342,-3.7397,-3.7841,-3.7843,-3.797,-3.9008,-3.9816,-4.0688,-4.2164,-4.2539,-4.2787,-4.3449,-4.4241,-4.5017,-4.5665,-4.646,-4.7222,-4.7885,-4.8001,-4.8233,-4.8912,-4.9061,-4.9591,-5.0951,-5.1166,-5.1498,-5.2243,-5.231,-5.2343,-5.2464,-5.248,-5.2516,-5.257,-5.3162,-5.3516,-5.3583,-5.4168,-5.4485,-5.4485,-5.4813,-5.497,-5.4961,-5.5294,-5.5443,-5.5413,-5.5144,-5.4869,-5.4543,-5.4543,-5.4543,-5.4512,-5.4512,-5.4512,-5.4512,-5.4512,-5.4512,-5.4512,-5.4512,-5.4512,-5.4512,0.0,0.0,0.0,0.0,0.0,0.0,0.0,0.0,0.0,0.0,0.0,0.0,0.0,0.0,0.0,0.0,0.0,0.0,0.0,0.0,0.0,0.0,0.0,0.0,0.0,0.0,0.0,0.0,0.0,0.0,0.0,0.0,0.0,-2.9516,0.0,-3.0814,-3.123,-3.1977,-3.2464,-3.274,-3.287,-3.2932,-3.3013,-3.3152,-3.3168,0.0,0.0,0.0,0.0,0.0,0.0,0.0,-3.765,-3.8047,-3.8157,-3.8054,-3.7667,-3.7481,-3.8225,-3.8148,-3.8058,-3.894,-4.016,-4.1389,-4.2299,-4.2936,-4.34,-4.3565,-4.4655,-4.5599,-4.5765,-4.6874,-4.7819,-4.7968,-4.8001,-4.8067,-4.8216,-4.8746,-4.9226,-4.9541,-5.0088,-5.0734,-5.1481,-5.1547,-5.2008,-5.3094,-5.3162,-5.3416,-5.3943,-5.4104,-5.4422,-5.4948,-5.5117,-5.5224,-5.5259,-5.5555,-5.5319,-5.4606,-5.4961,-5.4961,-5.4714,-5.5174,-5.5204,-5.49,-5.49,-5.4745,-5.4512,-5.4512,-5.4512,-5.4512,-5.4512,-5.4512,-5.4512,-5.4512,-5.4512,-5.4512,0.0,0.0,0.0,0.0,0.0,0.0,0.0,0.0,0.0,0.0,0.0,0.0,0.0,0.0,0.0,0.0,0.0,0.0,0.0,0.0,0.0,0.0,0.0,0.0,0.0,0.0,0.0,0.0,0.0,0.0,0.0,0.0,0.0,-3.0483,0.0,-3.1488,-3.2008,-3.2497,-3.2771,-3.2902,-3.2963,-3.306,-3.3191,-3.3615,-3.3805,-3.3872,-3.4297,0.0,0.0,0.0,0.0,0.0,0.0,0.0,-3.8207,-3.795,-3.7844,-3.79,-3.8237,-3.8326,-3.8551,-3.9505,-4.0581,-4.1579,-4.2324,-4.3069,-4.3598,-4.3598,-4.4489,-4.5367,-4.5715,-4.6709,-4.7587,-4.7934,-4.8001,-4.8001,-4.8001,-4.8332,-4.8713,-4.9061,-4.9458,-4.9972,-5.0701,-5.0767,-5.1342,-5.2757,-5.2874,-5.3324,-5.4342,-5.4703,-5.5056,-5.5385,-5.5711,-5.5815,-5.5689,-5.5689,-5.5366,-5.4745,-5.4745,-5.4652,-5.4512,-5.4869,-5.493,-5.4745,-5.4745,-5.4652,-5.4512,-5.4512,-5.4512,-5.4512,-5.4512,-5.4512,-5.4512,-5.4512,-5.4512,-5.4512,0.0,0.0,0.0,0.0,0.0,0.0,0.0,0.0,0.0,0.0,0.0,0.0,0.0,0.0,0.0,0.0,0.0,0.0,0.0,0.0,0.0,0.0,0.0,0.0,0.0,0.0,0.0,0.0,-2.8488,-2.8923,-2.8979,-2.9687,0.0,-3.1421,0.0,-3.202,-3.2807,-3.2821,-3.2902,-3.3013,-3.3172,-3.3319,-3.355,-3.4247,-3.4616,-3.4834,-3.5369,-3.5744,-3.6061,-3.6761,0.0,0.0,0.0,0.0,-3.8223,-3.7774,-3.7929,-3.8235,-3.8121,-3.8471,-3.9083,-4.0124,-4.0895,-4.1579,-4.2324,-4.3069,-4.3598,-4.3598,-4.4191,-4.4951,-4.5649,-4.6394,-4.7139,-4.7885,-4.8001,-4.8001,-4.8001,-4.8001,-4.8233,-4.8845,-4.8995,-4.931,-4.9955,-5.0107,-5.0727,-5.2158,-5.2259,-5.2868,-5.4269,-5.4986,-5.5384,-5.5384,-5.6045,-5.6245,-5.5901,-5.566,-5.5383,-5.4992,-5.4652,-5.4512,-5.4512,-5.4512,-5.4512,-5.4512,-5.4512,-5.4512,-5.4512,-5.4512,-5.4512,-5.4512,-5.4512,-5.4512,-5.4512,-5.4512,-5.4512,-5.4512,0.0,0.0,0.0,0.0,0.0,0.0,0.0,0.0,0.0,0.0,-2.1038,-2.1149,0.0,0.0,0.0,0.0,0.0,0.0,0.0,0.0,0.0,0.0,0.0,0.0,0.0,0.0,0.0,0.0,-2.9366,-3.0115,-3.0829,-3.0951,-3.1491,-3.2331,-3.2515,-3.2666,-3.2823,-3.2934,-3.2979,-3.3066,-3.3827,-3.4143,-3.4249,-3.5042,-3.5364,-3.538,-3.5488,-3.5974,-3.6619,-3.6893,-3.7398,0.0,0.0,0.0,-3.8289,-3.8285,-3.8015,-3.7829,-3.8368,-3.8725,-3.9197,-4.0157,-4.0895,-4.1579,-4.2324,-4.3069,-4.3598,-4.3598,-4.4191,-4.4951,-4.5649,-4.6394,-4.7139,-4.7885,-4.8001,-4.8001,-4.8001,-4.8001,-4.8034,-4.815,-4.8632,-4.8996,-4.9244,-4.9706,-5.06,-5.2018,-5.2131,-5.2693,-5.3974,-5.4812,-5.5213,-5.5213,-5.5971,-5.6245,-5.5901,-5.5861,-5.5572,-5.4992,-5.4652,-5.4512,-5.4512,-5.4512,-5.4512,-5.4512,-5.4512,-5.4512,-5.4512,-5.4512,-5.4512,-5.4512,-5.4512,-5.4512,-5.4512,-5.4512,-5.4512,-5.4512,0.0,0.0,0.0,0.0,0.0,0.0,0.0,0.0,0.0,0.0,0.0,-2.1556,0.0,0.0,0.0,0.0,0.0,0.0,0.0,0.0,0.0,0.0,0.0,0.0,0.0,0.0,0.0,0.0,-3.0215,-3.1039,-3.1441,-3.1962,-3.2336,-3.2556,-3.2771,-3.2886,-3.2918,-3.2963,-3.3277,-3.3773,-3.4146,-3.4409,-3.4689,-3.568,-3.595,-3.5864,-3.6486,-3.7002,-3.7395,-3.7513,-3.7764,-3.8035,-3.8271,0.0,0.0,0.0,-3.8281,-3.8198,-3.8606,-3.8839,-3.9125,-3.9631,-4.0326,-4.1011,-4.174,-4.271,-4.3504,-4.3588,-4.4127,-4.4708,-4.5097,-4.5781,-4.6527,-4.7255,-4.7736,-4.8001,-4.8001,-4.8001,-4.8001,-4.8001,-4.8528,-4.8942,-4.8981,-4.9528,-5.0484,-5.1877,-5.1986,-5.2565,-5.3939,-5.4322,-5.4518,-5.4518,-5.4884,-5.5196,-5.5514,-5.5319,-5.5161,-5.4992,-5.4652,-5.4512,-5.4512,-5.4512,-5.4512,-5.4512,-5.4512,-5.4512,-5.4512,-5.4512,-5.4512,-5.4512,-5.4512,-5.4512,-5.4512,-5.4512,-5.4512,-5.4512,0.0,0.0,0.0,0.0,0.0,0.0,0.0,0.0,0.0,0.0,0.0,0.0,0.0,0.0,0.0,0.0,0.0,0.0,0.0,0.0,0.0,0.0,0.0,0.0,0.0,0.0,0.0,-2.9359,-3.0845,-3.1615,-3.1649,-3.259,-3.2916,-3.2705,-3.2884,-3.2995,-3.3075,-3.3088,-3.3586,-3.4387,-3.4438,-3.469,-3.5153,-3.6076,-3.6266,-3.6167,-3.718,-3.7595,-3.7739,-3.7949,-3.8018,-3.8035,-3.8256,-3.8354,0.0,0.0,0.0,-3.8523,-3.8728,-3.8851,-3.9014,-3.9362,-3.9886,-4.0504,-4.1183,-4.241,-4.3428,-4.3535,-4.417,-4.4682,-4.4649,-4.5125,-4.581,-4.6697,-4.7478,-4.7944,-4.7912,-4.8111,-4.8163,-4.8033,-4.8668,-4.9067,-4.8914,-4.9588,-5.0509,-5.1548,-5.161,-5.2137,-5.3333,-5.3617,-5.3724,-5.3724,-5.3894,-5.4287,-5.4902,-5.4487,-5.447,-5.4817,-5.4406,-5.4322,-5.4512,-5.4512,-5.4512,-5.4512,-5.4512,-5.4512,-5.4512,-5.4512,-5.4512,-5.4512,-5.4512,-5.4512,-5.4512,-5.4512,-5.4512,-5.4512,0.0,0.0,0.0,0.0,0.0,0.0,0.0,0.0,0.0,0.0,0.0,0.0,0.0,0.0,-2.2497,-2.2565,0.0,0.0,0.0,0.0,0.0,0.0,0.0,0.0,0.0,0.0,0.0,0.0,-3.1191,-3.1631,-3.1729,-3.265,-3.3039,-3.2979,-3.3073,-3.315,-3.3277,-3.3352,-3.3849,-3.4599,-3.4793,-3.5225,-3.578,-3.6096,-3.6159,-3.6194,-3.6878,-3.7147,-3.7243,-3.7879,-3.8051,-3.8052,-3.8302,-3.8336,-3.8323,0.0,0.0,0.0,-3.8653,-3.8719,-3.8901,-3.9687,-4.0027,-4.0357,-4.0992,-4.2293,-4.3413,-4.3392,-4.4397,-4.5125,-4.4592,-4.4658,-4.5183,-4.6503,-4.7335,-4.7791,-4.7713,-4.8382,-4.8637,-4.8049,-4.9053,-4.9512,-4.8944,-5.0028,-5.0793,-5.0855,-5.0873,-5.1132,-5.179,-5.2529,-5.2965,-5.2965,-5.3653,-5.4019,-5.4055,-5.348,-5.3559,-5.4337,-5.3749,-5.3822,-5.4512,-5.4512,-5.4512,-5.4512,-5.4512,-5.4512,-5.4512,-5.4512,-5.4512,-5.4512,-5.4512,-5.4512,-5.4512,-5.4512,-5.4512,-5.4512,0.0,0.0,0.0,0.0,0.0,0.0,0.0,0.0,0.0,0.0,0.0,0.0,0.0,-2.2565,-2.2659,-2.2725,-2.3406,0.0,0.0,0.0,0.0,0.0,0.0,0.0,0.0,0.0,0.0,0.0,0.0,-3.1167,-3.1182,-3.1567,-3.2036,-3.2575,-3.3084,-3.3319,-3.3403,-3.3939,-3.4609,-3.5322,-3.5421,-3.5722,-3.6087,-3.6501,-3.6172,-3.5649,-3.6719,-3.7052,-3.7034,-3.7414,-3.7739,-3.8035,-3.8254,-3.799,-3.7621,-3.7664,-3.806,-3.8496,-3.8654,-3.908,-3.9553,-3.9985,-4.0428,-4.0953,-4.165,-4.2393,-4.3133,-4.3717,-4.4534,-4.5084,-4.5022,-4.5151,-4.5312,-4.5414,-4.635,-4.7107,-4.706,-4.8043,-4.852,-4.7869,-4.9371,-5.0198,-4.9558,-5.0614,-5.1393,-5.1393,-5.1393,-5.147,-5.169,-5.1958,-5.2118,-5.2118,-5.2386,-5.2684,-5.2981,-5.2902,-5.2991,-5.3271,-5.3363,-5.3546,-5.3822,-5.4287,-5.4512,-5.4512,-5.4512,-5.4512,-5.4512,-5.4512,-5.4512,-5.4512,-5.4512,-5.4512,-5.4512,-5.4512,-5.4512,-5.4512,0.0,0.0,0.0,0.0,0.0,0.0,0.0,0.0,0.0,0.0,0.0,0.0,0.0,0.0,-2.3393,-2.3772,-2.4443,-2.5227,-2.6167,-2.6241,0.0,0.0,0.0,0.0,0.0,0.0,0.0,0.0,0.0,0.0,0.0,-3.0844,-3.1592,-3.27,-3.3201,-3.3597,-3.3902,-3.4446,-3.5248,-3.615,-3.5792,-3.5972,-3.6493,-3.6446,-3.6071,-3.5686,-3.6525,-3.6803,-3.6818,-3.7145,-3.7525,-3.7934,-3.8222,-3.7975,-3.7585,-3.7645,-3.8058,-3.8577,-3.8974,-3.9481,-4.0058,-4.0661,-4.0958,-4.1301,-4.1913,-4.2447,-4.2956,-4.352,-4.4294,-4.4923,-4.5161,-4.5319,-4.5288,-4.4961,-4.6022,-4.6811,-4.6646,-4.7743,-4.8366,-4.7719,-4.9039,-4.994,-4.9764,-5.0673,-5.1405,-5.1672,-5.169,-5.169,-5.169,-5.169,-5.169,-5.169,-5.169,-5.1813,-5.2033,-5.2057,-5.2148,-5.2294,-5.2524,-5.277,-5.3028,-5.3787,-5.4132,-5.4149,-5.4391,-5.4512,-5.4512,-5.4512,-5.4512,-5.4512,-5.4512,-5.4512,-5.4512,-5.4512,-5.4512,-5.4512,0.0,0.0,0.0,0.0,0.0,0.0,0.0,0.0,0.0,0.0,0.0,0.0,0.0,0.0,0.0,-2.5753,-2.5765,-2.6137,-2.7069,-2.7136,0.0,0.0,0.0,0.0,0.0,0.0,0.0,0.0,0.0,0.0,0.0,0.0,-3.1799,-3.3375,-3.3444,-3.3989,-3.4867,-3.4867,-3.5733,-3.6991,-3.5802,-3.6031,-3.6969,-3.5908,-3.58,-3.625,-3.6288,-3.6388,-3.6574,-3.7209,-3.7494,-3.7707,-3.8213,-3.8349,-3.8305,-3.8348,-3.8462,-3.8729,0.0,0.0,0.0,-4.1662,-4.1633,-4.136,-4.1742,-4.2438,-4.2939,-4.2765,-4.3713,-4.4649,-4.4947,-4.4992,-4.5051,-4.5252,-4.6402,-4.7062,-4.6477,-4.7544,-4.8164,-4.7562,-4.8023,-4.8731,-4.9486,-5.01,-5.0798,-5.1565,-5.1637,-5.1654,-5.1654,-5.1672,-5.169,-5.169,-5.169,-5.1564,-5.1281,-5.0955,-5.1025,-5.1465,-5.1227,-5.1494,-5.2188,-5.3011,-5.3356,-5.3408,-5.4132,-5.446,-5.4477,-5.4494,-5.4512,-5.4512,-5.4512,-5.4512,-5.4512,-5.4512,-5.4512,-5.4512,0.0,0.0,0.0,0.0,0.0,0.0,0.0,0.0,0.0,0.0,0.0,0.0,0.0,0.0,-2.561,-2.653,-2.6631,-2.7017,-2.7924,-2.7977,-2.8054,-2.825,-2.8814,0.0,0.0,0.0,0.0,0.0,0.0,0.0,0.0,0.0,0.0,0.0,-3.2609,-3.4051,-3.6466,-3.6466,-3.6752,-3.7108,-3.6327,-3.6206,-3.6438,-3.5652,-3.5094,-3.4849,-3.5981,-3.6353,-3.6478,-3.7206,-3.7749,-3.8043,-3.7655,-3.7929,-3.8291,-3.7882,-3.8588,-3.9575,-3.9813,0.0,0.0,0.0,0.0,0.0,-4.2791,-4.2757,-4.2857,-4.3385,-4.3664,-4.3971,-4.4587,-4.4707,-4.4779,-4.504,-4.5877,-4.6435,-4.6285,-4.7417,-4.8017,-4.736,-4.832,-4.8962,-4.8731,-4.9284,-4.9703,-4.9959,-5.0513,-5.0834,-5.0834,-5.1369,-5.169,-5.169,-5.1513,-5.1376,-5.1298,-5.0955,-5.0762,-5.0728,-5.1153,-5.139,-5.1442,-5.2201,-5.2515,-5.2546,-5.277,-5.3184,-5.3753,-5.4287,-5.4512,-5.4512,-5.4512,-5.4512,-5.4512,-5.4512,-5.4512,-5.4512,0.0,0.0,0.0,0.0,0.0,0.0,0.0,0.0,0.0,0.0,0.0,0.0,0.0,0.0,0.0,-2.7393,-2.7504,-2.7767,-2.8322,-2.8367,-2.8367,-2.8327,-2.8815,-2.886,0.0,0.0,0.0,0.0,0.0,0.0,0.0,0.0,0.0,0.0,0.0,-3.5172,-3.755,-3.755,-3.7598,-3.7566,-3.6601,-3.6417,-3.6651,-3.5926,-3.5552,-3.5528,-3.6446,-3.6812,-3.6949,-3.736,-3.7916,-3.838,-3.808,-3.8193,-3.846,-3.8521,-3.9179,-4.0063,0.0,0.0,-4.2304,-4.2304,0.0,0.0,-4.2614,-4.2393,-4.2418,-4.303,-4.3066,-4.3233,-4.3996,-4.4139,-4.4284,-4.4756,-4.5228,-4.5688,-4.6147,-4.7068,-4.7565,-4.7155,-4.7844,-4.8342,-4.8328,-4.8626,-4.8978,-4.9275,-4.9721,-5.0013,-5.0013,-5.0762,-5.1191,-5.1191,-5.1361,-5.1359,-5.1079,-5.0901,-5.0602,-5.0235,-5.0668,-5.0807,-5.0683,-5.1395,-5.1722,-5.174,-5.205,-5.2477,-5.2942,-5.3373,-5.3925,-5.4512,-5.4512,-5.4512,-5.4512,-5.4512,-5.4512,-5.4512,0.0,0.0,0.0,0.0,0.0,0.0,0.0,0.0,0.0,0.0,0.0,0.0,0.0,0.0,0.0,0.0,-2.8286,-2.8389,-2.8519,-2.8598,0.0,0.0,-2.875,-2.8714,0.0,0.0,0.0,0.0,0.0,0.0,0.0,0.0,0.0,0.0,0.0,0.0,-3.8209,-3.8209,-3.8245,-3.8178,-3.6773,-3.6651,-3.7217,-3.6497,-3.6574,-3.7115,-3.7265,-3.7475,-3.7646,-3.7628,-3.8051,-3.8668,-3.9052,-3.8884,-3.8747,-3.9806,-4.01,0.0,0.0,0.0,0.0,-4.2304,-4.2231,0.0,-4.1723,-4.1615,-4.1703,-4.2079,-4.2141,-4.2335,-4.3048,-4.3191,-4.3444,-4.4174,-4.4368,-4.4782,-4.5881,-4.6418,-4.6766,-4.6855,-4.6855,-4.7176,-4.7984,-4.8074,-4.8359,-4.899,-4.9115,-4.9204,-4.9293,-4.9995,-5.037,-5.037,-5.1155,-5.132,-5.0761,-5.0822,-5.0592,-5.008,-5.0051,-5.004,-5.0028,-5.0683,-5.0994,-5.1028,-5.1653,-5.1981,-5.2067,-5.2067,-5.2942,-5.4253,-5.4253,-5.4253,-5.4253,-5.4253,-5.4253,-5.4253,0.0,0.0,0.0,0.0,0.0,0.0,0.0,0.0,0.0,0.0,0.0,0.0,0.0,0.0,0.0,0.0,-2.844,-2.8742,-2.9404,-2.9467,-2.9701,-3.0237,-3.0316,-3.001,-2.9322,0.0,0.0,0.0,0.0,0.0,0.0,0.0,0.0,0.0,0.0,0.0,-3.8209,-3.8209,-3.8239,-3.8216,-3.7328,-3.7081,-3.7145,-3.6517,-3.6356,-3.6554,-3.709,-3.738,-3.7559,-3.8173,-3.8461,-3.8646,-3.9494,-3.9286,-3.9018,-4.0462,-4.092,-4.1125,-4.2058,-4.2304,-4.2304,-4.2304,-4.1809,0.0,-4.1313,-4.1162,-4.108,-4.1225,-4.1123,-4.1035,-4.1162,-4.1252,-4.156,-4.2304,-4.2823,-4.356,-4.4751,-4.5005,-4.532,-4.5963,-4.6034,-4.6355,-4.7158,-4.7212,-4.7283,-4.7444,-4.8056,-4.8675,-4.9257,-4.9436,-4.9525,-4.9525,-5.0316,-5.0677,-5.0553,-5.0988,-5.0999,-5.063,-5.0443,-5.0206,-5.0011,-5.0149,-5.0218,-5.0235,-5.0373,-5.0787,-5.1291,-5.1291,-5.1856,-5.2666,-5.2666,-5.2666,-5.2666,-5.2666,-5.2666,-5.2666,0.0,0.0,0.0,0.0,0.0,0.0,0.0,0.0,0.0,0.0,0.0,0.0,0.0,0.0,0.0,0.0,0.0,0.0,0.0,0.0,-3.045,-3.0794,-3.0826,-3.066,-3.0218,-3.0228,0.0,0.0,0.0,0.0,0.0,0.0,0.0,0.0,0.0,-3.6866,-3.7649,-3.7621,-3.7789,-3.8058,-3.7431,-3.7232,-3.7261,-3.6929,-3.681,-3.6902,-3.7614,-3.7883,-3.7994,-3.8614,-3.8907,-3.9115,-3.9438,-3.9455,-3.9589,-4.089,-4.1234,-4.1356,-4.2096,-4.2304,-4.2103,-4.1295,-4.0799,0.0,0.0,-4.037,-4.0416,-4.0731,-4.077,-4.0718,-4.065,-4.0752,-4.0963,-4.1332,-4.1851,-4.2336,-4.2698,-4.3819,-4.4745,-4.516,-4.5213,-4.5374,-4.5766,-4.6159,-4.6569,-4.6962,-4.7354,-4.7747,-4.8139,-4.8532,-4.8746,-4.8746,-4.9513,-5.0029,-5.0314,-5.0553,-5.0717,-5.082,-5.0537,-5.0331,-5.0206,-5.0051,-5.0011,-5.0011,-5.0011,-5.0218,-5.0562,-5.0562,-5.0787,-5.1183,-5.1895,-5.2188,-5.2188,-5.2188,-5.2188,-5.2188,-2.1092,0.0,0.0,0.0,0.0,0.0,0.0,0.0,0.0,0.0,0.0,0.0,-2.8511,-2.8774,-2.9186,-2.9738,0.0,0.0,-3.1032,-3.1138,-3.1254,-3.1383,-3.1376,-3.1301,-3.1182,-3.1103,0.0,0.0,0.0,0.0,0.0,0.0,0.0,0.0,0.0,-3.7021,-3.7093,-3.7181,-3.7523,-3.7929,-3.7547,-3.7541,-3.7699,-3.7668,-3.7698,-3.7774,-3.8237,-3.8391,-3.8476,-3.8969,-3.932,-3.9617,-3.9709,-3.9809,-4.0182,-4.1428,-4.1533,-4.1383,-4.2098,-4.2194,-4.1717,-4.0249,-3.9772,-3.9698,0.0,0.0,0.0,-4.0658,-4.076,-4.0716,-4.0652,-4.0636,-4.062,-4.0586,-4.102,-4.1192,-4.0836,-4.272,-4.4196,-4.4319,-4.4371,-4.4468,-4.4696,-4.5287,-4.598,-4.6717,-4.6838,-4.691,-4.7002,-4.7627,-4.7966,-4.7966,-4.8693,-4.9261,-4.9652,-4.9894,-5.0198,-5.0529,-5.0384,-5.0331,-5.0302,-5.0109,-5.0011,-5.0011,-5.0011,-5.0011,-5.0011,-5.0011,-5.0011,-5.0131,-5.1291,-5.1774,-5.1774,-5.1774,-5.1774,-5.1774,-2.2974,-2.3578,0.0,0.0,0.0,0.0,0.0,0.0,0.0,0.0,0.0,-2.9685,-2.9639,-3.0439,-3.1015,-3.1156,-3.1136,-3.1389,-3.2087,-3.2187,-3.252,-3.3193,-3.3084,-3.2739,-3.2153,-3.2028,-3.196,0.0,0.0,0.0,0.0,0.0,0.0,0.0,-3.6969,-3.6988,-3.7044,-3.7753,-3.8126,-3.8264,-3.82,-3.8432,-3.8838,-3.8948,-3.9076,-3.9083,-3.8595,-3.8391,-3.8532,-3.9286,-3.9569,-3.9834,-4.1244,-4.0901,-4.0403,-4.2551,-4.232,-4.1516,-4.2121,-4.1791,-4.1022,-4.012,-3.935,-3.905,-3.9869,0.0,-4.0332,-4.1285,0.0,-4.044,-4.044,0.0,0.0,-3.948,-3.9983,-4.033,-4.03,-4.1542,-4.2718,-4.3377,-4.3554,-4.4023,-4.5021,-4.5206,-4.5459,-4.5896,-4.6259,-4.6608,-4.6967,-4.7087,-4.7122,-4.7122,-4.7913,-4.8235,-4.8059,-4.9185,-4.9661,-4.9478,-4.9866,-5.0068,-5.0051,-4.9993,-5.0011,-5.0011,-5.0011,-5.0011,-5.0011,-5.0011,-5.0011,-5.0028,-5.0183,-5.0252,-5.0252,-5.0252,-5.0252,-5.0252,-2.3989,-2.4585,0.0,0.0,0.0,0.0,0.0,0.0,0.0,0.0,-2.8685,-2.9139,-2.9586,-3.0081,-3.0773,-3.1775,-3.1879,-3.2178,-3.2897,-3.2967,0.0,-3.3364,-3.3332,-3.3168,-3.288,-3.2719,-3.2634,0.0,-3.3486,0.0,0.0,0.0,0.0,-3.5563,-3.6054,-3.629,-3.6408,-3.7216,-3.7794,-3.8216,-3.8687,-3.8948,-3.9029,-3.8832,-3.8764,-3.8788,-3.8504,-3.8391,-3.8448,-3.8887,-3.9551,-4.0234,-4.0167,-4.061,-4.1273,-4.1842,-4.1985,-4.1861,-4.1557,-4.1319,-4.0961,-4.0113,-3.9675,-3.9686,-4.0593,-4.0794,-4.0821,-4.0892,0.0,0.0,0.0,0.0,0.0,0.0,-3.9917,-4.0188,-3.9949,-4.1297,-4.2423,-4.2687,-4.3177,-4.3795,-4.4499,-4.4347,-4.4656,-4.5713,-4.5978,-4.6341,-4.6967,-4.6998,-4.6998,-4.6998,-4.7342,-4.7665,-4.8034,-4.8571,-4.8922,-4.9143,-4.9596,-4.9743,-4.9593,-4.989,-5.0011,-5.0011,-5.0011,-5.0011,-5.0011,-5.0011,-5.0011,-5.0011,-5.0011,-5.0011,-5.0011,-5.0011,-5.0011,-5.0011,-2.5532,0.0,-2.6334,-2.7179,-2.7241,0.0,0.0,-2.8259,-2.8264,-2.8259,-2.8744,-2.9279,-2.9834,-3.0462,-3.1335,-3.2567,-3.2745,-3.3003,-3.3467,-3.3518,-3.3511,-3.3492,-3.3367,-3.3335,-3.344,-3.3178,-3.318,0.0,0.0,0.0,0.0,0.0,0.0,0.0,-3.543,-3.5876,-3.6232,-3.7067,-3.771,-3.82,-3.879,-3.8982,-3.8905,-3.8722,-3.8572,-3.8391,-3.8391,-3.8391,-3.8448,-3.8738,-3.9499,-4.0217,-3.9482,-4.0217,-4.1296,-4.1063,-4.1332,-4.1603,-4.1162,-4.1126,-4.105,-4.041,-4.028,-4.0544,-4.1459,-4.1474,-4.1262,-4.1107,-4.0812,0.0,0.0,0.0,-3.9583,-3.9608,0.0,-4.0104,-4.0021,-4.1152,-4.2006,-4.1946,-4.2776,-4.3411,-4.3597,-4.3532,-4.4012,-4.523,-4.5513,-4.5952,-4.6645,-4.6873,-4.6998,-4.6998,-4.6998,-4.7219,-4.7648,-4.7844,-4.8083,-4.8334,-4.8899,-4.9174,-4.9163,-4.951,-4.9804,-5.0011,-5.0011,-5.0011,-5.0011,-5.0011,-5.0011,-5.0011,-5.0011,-5.0011,-5.0011,-5.0011,-5.0011,-5.0011,-2.8061,-2.7482,-2.721,-2.8017,-2.816,-2.8187,-2.8286,-2.834,-2.8358,-2.8209,-2.9836,-3.0969,-3.0869,-3.2607,-3.3796,-3.384,-3.3986,-3.3973,-3.3788,-3.379,-3.383,-3.3979,-3.3547,-3.3446,-3.3781,-3.333,-3.3543,-3.4465,0.0,0.0,0.0,0.0,0.0,0.0,-3.5668,-3.6127,-3.6933,-3.7854,-3.8265,-3.8304,-3.8329,-3.8372,-3.8479,-3.9119,-3.8963,-3.8391,-3.8391,-3.8391,-3.8504,-3.9162,-3.9394,-3.9551,-4.0217,-4.0102,-3.9843,-4.074,-4.0599,-4.0332,-4.1171,-4.1282,-4.1195,-4.117,-4.1123,-4.133,-4.2332,-4.1918,-4.1591,-4.2601,-4.158,-4.0537,-4.0635,-4.0019,-3.952,0.0,-3.9664,0.0,0.0,-4.0935,-4.1034,-4.1034,-4.2163,-4.2772,-4.2384,-4.305,-4.3667,-4.4042,-4.4778,-4.5407,-4.5824,-4.6569,-4.6998,-4.6998,-4.6998,-4.6772,-4.627,-4.6966,-4.7107,-4.6675,-4.7417,-4.8131,-4.8821,-4.881,-4.924,-5.0011,-5.0011,-5.0011,-5.0011,-5.0011,-5.0011,-5.0011,-5.0011,-5.0011,-5.0011,-5.0011,-5.0011,-5.0011,-2.8891,-2.8352,-2.7888,-2.821,-2.8237,-2.8223,-2.8286,-2.8313,-2.8562,-2.9178,-2.986,-3.0905,-3.2448,-3.3267,-3.4136,-3.5258,-3.5404,-3.5381,-3.5324,-3.4783,-3.4702,-3.5217,-3.404,-3.3659,-3.4312,-3.3617,-3.3388,-3.3707,-3.3628,0.0,0.0,0.0,0.0,0.0,-3.6198,-3.6626,-3.6895,-3.7875,-3.8287,-3.8295,-3.8295,-3.8546,-3.8925,-3.8805,-3.86,-3.8391,-3.8391,-3.8391,-3.842,-3.8667,-3.9065,-3.9413,-3.9199,-3.9672,-4.029,-4.0076,-4.0336,-4.0637,-4.0407,-4.0473,-4.0587,-4.0473,-4.0563,-4.0851,-4.1696,-4.1693,-4.1456,-4.1328,-4.0956,-4.0472,-3.9996,-3.9764,-3.9637,0.0,0.0,-3.9849,0.0,-4.0223,-4.0488,-4.1056,-4.1756,-4.2343,-4.2716,-4.2496,-4.2796,-4.3974,-4.4525,-4.5097,-4.5749,-4.6551,-4.6998,-4.6998,-4.6998,-4.6911,-4.6731,-4.679,-4.6664,-4.6331,-4.6952,-4.7269,-4.7372,-4.7844,-4.8482,-4.9189,-4.9189,-4.9528,-5.0011,-5.0011,-5.0011,-5.0011,-5.0011,-5.0011,-5.0011,-5.0011,-5.0011,-5.0011,-2.9676,-2.9401,-2.9104,-2.916,-2.9146,-2.9146,-2.9183,-2.9197,-2.9444,-3.0147,-3.0743,-3.1725,-3.3348,-3.4096,-3.4919,-3.6019,-3.6133,-3.6142,-3.6135,-3.5594,-3.5479,-3.5977,-3.4868,-3.4514,-3.5042,-3.4164,-3.3687,-3.3687,-3.3629,-3.3849,0.0,0.0,0.0,0.0,-3.6968,-3.7405,-3.7699,-3.8372,-3.8539,-3.8329,-3.8329,-3.8589,-3.8871,-3.8516,-3.8532,-3.8655,-3.8476,-3.8391,-3.8391,-3.8391,-3.8706,-3.9038,-3.8544,-3.9092,-3.9809,-3.9378,-3.9716,-4.0185,-4.0077,-4.0178,-4.0345,-4.055,-4.0795,-4.1112,-4.1454,-4.1483,-4.1307,-4.0888,-4.077,-4.056,-4.0081,-4.0083,-4.0212,0.0,0.0,-3.9826,0.0,-4.0121,-4.0416,-4.0673,-4.1235,-4.1849,-4.2473,-4.2282,-4.2535,-4.3557,-4.4363,-4.499,-4.5356,-4.6409,-4.6998,-4.6998,-4.6998,-4.6957,-4.6865,-4.6684,-4.6405,-4.6062,-4.641,-4.6595,-4.6631,-4.7096,-4.7707,-4.8396,-4.8396,-4.8689,-4.92,-4.9476,-4.9579,-4.9614,-4.989,-5.0011,-5.0011,-5.0011,-5.0011,-5.0011,-3.0532,-3.0692,-3.0804,-3.075,-3.0787,-3.0808,-3.079,-3.0833,-3.0918,-3.1093,-3.2441,-3.3458,-3.3673,-3.5159,-3.6172,-3.6205,-3.6329,-3.6375,-3.6302,-3.6219,-3.6219,-3.63,-3.5983,-3.5853,-3.5975,-3.4981,-3.4486,-3.4503,-3.4577,-3.4648,0.0,0.0,0.0,0.0,-3.8007,-3.847,-3.9197,-3.9258,-3.8959,-3.8391,-3.8391,-3.842,-3.842,-3.8391,-3.8722,-3.9125,-3.86,-3.8391,-3.8391,-3.8391,-3.8391,-3.8391,-3.8391,-3.8391,-3.8476,-3.875,-3.886,-3.9082,-4.0192,-4.0387,-4.0491,-4.1284,-4.1732,-4.1922,-4.1633,-4.1311,-4.1132,-4.1326,-4.1012,-4.0747,-4.0901,-4.0994,-4.1155,0.0,0.0,-3.9889,-3.9889,-4.0545,-4.0738,-3.9898,-4.0613,-4.1309,-4.1679,-4.2375,-4.2807,-4.2849,-4.4277,-4.4996,-4.4607,-4.611,-4.6989,-4.6998,-4.6998,-4.6865,-4.6613,-4.659,-4.6308,-4.5811,-4.5786,-4.6048,-4.6544,-4.6544,-4.6958,-4.7638,-4.7638,-4.7655,-4.7741,-4.8448,-4.8741,-4.881,-4.9597,-4.989,-4.9907,-4.9976,-5.0011,-5.0011,-3.1351,-3.202,-3.2265,-3.1628,-3.107,-3.0769,-3.085,-3.1351,-3.1969,-3.2754,-3.3816,-3.4961,-3.6188,-3.6702,-3.722,-3.7775,-3.7855,-3.7843,-3.7851,-3.7199,-3.7159,-3.7812,-3.6579,-3.6169,-3.6787,-3.5908,-3.5652,-3.6112,-3.6184,-3.6763,-3.7793,0.0,0.0,0.0,-3.9606,-3.9458,-3.9197,-3.9258,-3.8959,-3.8391,-3.8391,-3.8655,-3.8952,-3.8544,-3.8722,-3.9125,-3.86,-3.8391,-3.8391,-3.8391,-3.8391,-3.8391,-3.8391,-3.8464,-3.8644,-3.9125,-3.9385,-3.968,-4.039,-4.0317,-4.0212,-4.0834,-4.0785,-4.0681,-4.0872,-4.0896,-4.0886,-4.0871,-4.0868,-4.0951,-4.128,-4.145,-4.1437,-4.1192,-4.0363,-3.9747,-3.9747,-3.997,-4.0049,-3.9841,-4.0326,-4.1061,-4.2052,-4.1744,-4.2023,-4.329,-4.3999,-4.4447,-4.4593,-4.5885,-4.6737,-4.6985,-4.6998,-4.6865,-4.6613,-4.6405,-4.6137,-4.5786,-4.5598,-4.5562,-4.5707,-4.5707,-4.6121,-4.6889,-4.6889,-4.72,-4.7707,-4.7896,-4.7965,-4.7982,-4.8189,-4.8303,-4.8441,-4.9579,-5.0011,-5.0011,-3.224,-3.2719,-3.2914,-3.2447,-3.2337,-3.2353,-3.2464,-3.2477,-3.2844,-3.3898,-3.4771,-3.5776,-3.7019,-3.7817,-3.8553,-3.925,-3.9039,-3.8885,-3.8843,-3.8093,-3.7863,-3.8318,-3.7476,-3.7195,-3.7669,-3.6818,-3.6655,-3.7266,-3.7344,-3.7881,-3.8903,0.0,0.0,0.0,-4.0661,-4.0462,-4.0071,-3.9555,-3.9166,-3.8816,-3.8532,-3.8767,0.0,-3.9003,-3.9239,-3.9722,-3.9414,-3.8926,-3.844,-3.8764,-3.8667,-3.8391,-3.8464,-3.8711,-3.9017,-3.9463,-3.9859,-4.0235,-4.0594,-4.0521,-4.0401,-4.0734,-4.0749,-4.0736,-4.0773,-4.0981,-4.1141,-4.1106,-4.128,-4.1542,-4.1806,-4.1764,-4.1421,-4.0606,-4.0649,-4.0663,-4.0323,-4.0604,-4.0842,-4.0818,-4.1048,-4.1612,-4.2674,-4.2043,-4.2126,-4.3461,-4.4068,-4.4454,-4.4678,-4.5842,-4.659,-4.6784,-4.6919,-4.6865,-4.6613,-4.6471,-4.6186,-4.5811,-4.5649,-4.5511,-4.5397,-4.5397,-4.5638,-4.6069,-4.6069,-4.631,-4.6707,-4.7052,-4.7234,-4.7241,-4.7551,-4.7689,-4.782,-4.8683,-4.901,-4.901,-3.2995,-3.3013,-3.3062,-3.3214,-3.3898,-3.4503,-3.4784,-3.4129,-3.3987,-3.5015,-3.5813,-3.6579,-3.7366,-3.8765,-3.9878,-4.0432,-3.9962,-3.9581,-3.9418,-3.8881,-3.8471,-3.8316,-3.8363,-3.8391,-3.8391,-3.7649,-3.7541,-3.8131,-3.8198,-3.8498,-3.9027,0.0,0.0,0.0,-4.1264,-4.1236,-4.1082,-3.9902,-3.9425,-3.9348,-3.8786,-3.8974,-3.9635,-3.9635,-4.0008,-4.0496,-4.0594,-3.98,-3.8764,-3.9424,-3.9136,-3.8566,-3.8707,-3.9062,-3.9489,-3.9808,-4.0292,-4.0744,-4.0966,-4.0943,-4.0919,-4.099,-4.1265,-4.1429,-4.1144,-4.1398,-4.1702,-4.1702,-4.1978,-4.2232,-4.2348,-4.2039,-4.1413,-4.0351,-4.1224,-4.1782,-4.1086,-4.16,-4.2032,-4.2038,-4.1993,0.0,-4.3156,-4.2605,-4.2525,-4.3351,-4.407,-4.4532,-4.4683,-4.5789,-4.6483,-4.6558,-4.6811,-4.6842,-4.659,-4.6542,-4.6259,-4.5811,-4.576,-4.5624,-4.5397,-4.5397,-4.5397,-4.5397,-4.5397,-4.5397,-4.5449,-4.6138,-4.6458,-4.6527,-4.7138,-4.7396,-4.7396,-4.7396,-4.7396,-4.7414,-3.2995,-3.3042,-3.3286,-3.39,-3.4217,-3.4892,-3.635,-3.6424,-3.6595,-3.7411,-3.8272,-3.9124,-3.9812,-4.0134,-4.0367,-4.048,-4.0383,-4.0099,-3.9499,-3.9369,-3.9044,-3.8409,-3.8395,-3.8391,-3.8391,-3.8206,-3.8337,-3.8836,-3.8894,-3.9171,-3.9655,-3.986,-4.0381,-4.1129,-4.1129,-4.0887,-4.0429,-3.9715,-3.9445,-3.9467,-3.934,-3.9703,-4.0318,-4.0318,-4.0383,-4.0577,-4.1207,-4.0867,-4.014,-4.027,-3.9865,-3.9311,-3.9471,-3.9528,-3.9671,-4.0285,-4.0885,-4.1428,-4.1917,-4.1709,-4.149,-4.1938,-4.177,-4.1609,-4.197,-4.2116,-4.2174,-4.2174,-4.2217,-4.2354,-4.2676,-4.2375,-4.2129,-4.2184,-4.16,-4.1085,-4.0941,-4.1077,-4.1322,-4.1642,-4.1401,-4.1501,-4.2258,-4.1913,-4.1994,-4.2865,-4.3092,-4.3481,-4.4103,-4.537,-4.6352,-4.6892,-4.6753,-4.6637,-4.659,-4.6161,-4.5887,-4.5786,-4.5589,-4.545,-4.5397,-4.5397,-4.5397,-4.5397,-4.5397,-4.5397,-4.5414,-4.5552,-4.5604,-4.5621,-4.5742,-4.5793,-4.5793,-4.5793,-4.5793,-4.5983,-3.2995,-3.3364,-3.3802,-3.4234,-3.5093,-3.6144,-3.7381,-3.798,-3.8247,-3.8136,-3.8502,-3.9165,-4.023,-4.0785,-4.1209,-4.1565,-4.1257,-4.0948,-4.0623,-3.991,-3.936,-3.8974,-3.8602,-3.8391,-3.8391,-3.8363,-3.86,-3.9095,-3.9141,-3.9377,-3.9852,-4.0303,-4.0735,-4.1089,-4.1176,-4.127,-4.1319,-4.0347,-4.015,-4.0512,-4.017,-4.0445,-4.1077,-4.1077,-4.129,-4.1646,-4.1986,-4.1889,-4.1549,-4.1177,-4.0607,-4.004,-4.0186,-4.0376,-4.0595,-4.1003,-4.1499,-4.198,-4.2228,-4.2124,-4.198,-4.2246,-4.2124,-4.198,-4.2246,-4.2308,-4.2308,-4.2308,-4.2308,-4.2286,-4.219,-4.2193,-4.2099,-4.182,-4.1796,-4.1786,-4.159,-4.1956,-4.2312,-4.2509,-4.2137,-4.2016,-4.238,-4.1647,-4.1591,-4.2712,-4.2443,-4.2869,-4.4345,-4.4965,-4.5661,-4.6514,-4.6593,-4.6471,-4.6186,-4.5938,-4.5727,-4.5572,-4.5459,-4.5397,-4.5397,-4.5397,-4.5397,-4.5397,-4.5397,-4.5397,-4.5397,-4.5397,-4.5397,-4.5397,-4.5397,-4.5397,-4.5397,-4.5397,-4.5397,-4.5518,-3.3247,-3.3798,-3.4392,-3.4863,-3.6212,-3.7503,-3.8267,-3.9154,-3.9487,-3.893,-3.8836,-3.9303,-4.0588,-4.1379,-4.2019,-4.2554,-4.2116,-4.1758,-4.1612,-4.0575,-3.9813,-3.9522,-3.8926,-3.8553,-3.8391,-3.8391,-3.8574,-3.8999,-3.9119,-3.9328,-3.968,-4.0419,-4.09,-4.1076,-4.1389,-4.176,-4.2137,-4.1079,-4.0978,-4.1493,-4.0945,-4.116,-4.1792,-4.1792,-4.2148,-4.2602,-4.2602,-4.2602,-4.2522,-4.1986,-4.1322,-4.0767,-4.1092,-4.1393,-4.1681,-4.1808,-4.2191,-4.2519,-4.2361,-4.2308,-4.2308,-4.2308,-4.2308,-4.2308,-4.2308,-4.2308,-4.2308,-4.2308,-4.2308,-4.2195,-4.19,-4.205,-4.201,-4.1404,-4.2044,-4.2516,-4.2264,-4.2758,-4.3177,-4.3212,-4.2772,-4.2453,-4.2435,-4.1463,-4.132,-4.2526,-4.1987,-4.2418,-4.4297,-4.4557,-4.5095,-4.608,-4.6302,-4.6242,-4.5881,-4.5757,-4.5624,-4.5485,-4.5423,-4.5397,-4.5397,-4.5397,-4.5397,-4.5397,-4.5397,-4.5397,-4.5397,-4.5397,-4.5397,-4.5397,-4.5397,-4.5397,-4.5397,-4.5397,-4.5397,-4.5397,-3.4016,-3.4277,-3.4878,-3.6474,-3.7489,-3.8353,-3.917,-3.9926,-4.0607,-4.1186,-4.1251,-4.1543,-4.2291,-4.2439,-4.2522,-4.2586,-4.2538,-4.2261,-4.1644,-4.1482,-4.0834,-3.957,-3.9441,-3.9072,-3.8408,-3.8391,-3.8363,-3.8294,-3.8796,-3.8979,-3.8924,-3.9467,-4.0179,-4.1029,-4.1771,-4.1926,-4.1577,-4.1466,-4.1461,-4.159,-4.1529,-4.1889,-4.2505,-4.2505,-4.2554,-4.2602,-4.2602,-4.2602,-4.2586,-4.2522,-4.2067,-4.1634,-4.2451,-4.2594,-4.25,-4.2591,-4.2966,-4.3233,-4.2483,-4.2308,-4.2308,-4.2308,-4.2308,-4.2308,-4.2308,-4.2308,-4.2308,-4.2308,-4.2308,-4.2376,-4.2643,-4.2469,-4.235,-4.2592,-4.2454,-4.2344,-4.2304,-4.2376,-4.2454,-4.2562,-4.2066,-4.1687,-4.1633,-4.1165,-4.1185,-4.1945,-4.1739,-4.2035,-4.3032,-4.4157,-4.5187,-4.608,-4.5893,-4.5881,-4.6072,-4.5653,-4.5537,-4.576,-4.5511,-4.5397,-4.5397,-4.5397,-4.5397,-4.5397,-4.5397,-4.5397,-4.5397,-4.5397,-4.5397,-4.5397,-4.5397,-4.5397,-4.5397,-4.5397,-4.5397,-4.5397,-3.5115,-3.5941,-3.6798,-3.7583,-3.8739,-3.9833,-4.0594,-4.0948,-4.1403,-4.2116,-4.184,-4.1871,-4.2522,-4.2602,-4.2602,-4.2602,-4.2602,-4.2489,-4.2229,-4.1808,-4.1353,-4.0785,-4.0348,-3.9946,-3.9654,-3.925,-3.9184,-3.9462,-3.9143,-3.9172,-3.9467,-4.0136,-4.0966,-4.1891,-4.1818,-4.1927,-4.2119,-4.172,-4.1806,-4.2213,-4.2213,-4.2344,-4.2602,-4.2602,-4.2602,-4.2602,-4.2602,-4.2602,-4.2618,-4.2943,-4.2839,-4.2684,-4.3039,-4.325,-4.3306,-4.2869,-4.2987,-4.307,-4.2292,-4.2184,-4.2308,-4.2308,-4.2308,-4.2308,-4.2308,-4.2308,-4.2308,-4.2308,-4.2308,-4.2331,-4.2494,-4.2456,-4.2378,-4.2277,-4.2218,-4.2113,-4.1913,-4.1888,-4.1913,-4.1963,-4.1502,-4.1162,-4.1145,-4.089,-4.0825,-4.1099,-4.1162,-4.203,-4.3938,-4.4071,-4.4693,-4.6059,-4.5874,-4.581,-4.5906,-4.5578,-4.5432,-4.5563,-4.5432,-4.5397,-4.5397,-4.5397,-4.5397,-4.5397,-4.5397,-4.5397,-4.5397,-4.5397,-4.5397,-4.5397,-4.5397,-4.5397,-4.5397,-4.5397,-4.5397,-4.5397,-3.6417,-3.7476,-3.8429,-3.8815,-3.9957,-4.1004,-4.1525,-4.1774,-4.2067,-4.2538,-4.2197,-4.2067,-4.2554,-4.2602,-4.2602,-4.2602,-4.2602,-4.2602,-4.2602,-4.2164,-4.1823,-4.1612,-4.111,-4.0707,-4.0496,-4.0027,-3.9997,-4.0369,-3.9893,-3.9884,-4.0319,-4.102,-4.1723,-4.2469,-4.1966,-4.2088,-4.2548,-4.2101,-4.218,-4.2602,-4.2602,-4.2602,-4.2602,-4.2602,-4.2602,-4.2602,-4.2602,-4.268,-4.2851,-4.3202,-4.3486,-4.3735,-4.3893,-4.409,-4.4147,-4.3688,-4.3447,-4.3187,-4.2457,-4.2218,-4.2205,-4.2287,-4.2308,-4.2308,-4.2308,-4.2308,-4.2308,-4.2308,-4.2308,-4.2308,-4.2308,-4.2376,-4.232,-4.1959,-4.1969,-4.1931,-4.1631,-4.1604,-4.1653,-4.1753,-4.1324,-4.1076,-4.1189,-4.0977,-4.0872,-4.0962,-4.1053,-4.205,-4.4218,-4.3873,-4.4327,-4.5828,-4.5729,-4.566,-4.566,-4.5477,-4.5397,-4.5397,-4.5397,-4.5397,-4.5397,-4.5397,-4.5397,-4.5397,-4.5397,-4.5397,-4.5397,-4.5397,-4.5397,-4.5397,-4.5397,-4.5397,-4.5397,-4.5397,-4.5397,-4.5397,-3.7893,-3.8626,-3.9396,-4.0307,-4.1093,-4.1579,-4.1596,-4.2164,-4.2586,-4.2602,-4.2586,-4.2586,-4.2602,-4.2602,-4.2602,-4.2602,-4.2602,-4.2602,-4.2602,-4.2586,-4.2294,-4.1628,-4.1596,-4.1255,-4.0513,-4.048,-4.048,-4.051,-4.1013,-4.1281,-4.1293,-4.1829,-4.2194,-4.2406,-4.2406,-4.2482,-4.2586,-4.2586,-4.2586,-4.2602,-4.2602,-4.2602,-4.2602,-4.2602,-4.2602,-4.2602,-4.2602,-4.2912,-4.3306,-4.3306,-4.3927,-4.4773,-4.5303,-4.5285,-4.5121,-4.5316,-4.4671,-4.3757,-4.3244,-4.2515,-4.1977,-4.2228,-4.2308,-4.2308,-4.2308,-4.2308,-4.2308,-4.2308,-4.2308,-4.2308,-4.2308,-4.2308,-4.2207,-4.1938,-4.1895,-4.1827,-4.1626,-4.1604,-4.1731,-4.2154,-4.1727,-4.1526,-4.1861,-4.1594,-4.1526,-4.1861,-4.17,-4.2062,-4.3159,-4.3514,-4.4193,-4.5288,-4.5318,-4.5296,-4.5296,-4.5368,-4.5397,-4.5397,-4.5397,-4.5397,-4.5397,-4.5397,-4.5397,-4.5397,-4.5397,-4.5397,-4.5397,-4.5397,-4.5397,-4.5397,-4.5397,-4.5397,-4.5397,-4.5397,-4.5397,-4.5397,-3.9679,-4.0319,-4.0896,-4.1205,-4.1824,-4.2294,-4.2294,-4.2457,-4.2602,-4.2602,-4.2602,-4.2602,-4.2602,-4.2602,-4.2602,-4.2602,-4.2602,-4.2602,-4.2602,-4.2602,-4.2489,-4.2294,-4.2294,-4.2149,-4.1923,-4.1468,-4.1468,-4.1923,-4.151,-4.1579,-4.2059,-4.223,-4.2398,-4.2539,-4.2539,-4.2562,-4.2602,-4.2602,-4.2602,-4.2602,-4.2602,-4.2602,-4.2602,-4.2602,-4.2602,-4.2618,-4.2974,-4.3171,-4.3396,-4.4042,-4.444,-4.4818,-4.5494,-4.5529,-4.5207,-4.4781,-4.4652,-4.4378,-4.3165,-4.2921,-4.2878,-4.243,-4.2308,-4.2308,-4.2308,-4.2308,-4.2246,-4.2061,-4.2019,-4.1998,-4.1866,-4.1657,-4.1525,-4.1436,-4.1318,-4.1198,-4.1129,-4.1129,-4.118,-4.1293,-4.1151,-4.1098,-4.1208,-4.1262,-4.1478,-4.2009,-4.2162,-4.2667,-4.369,-4.3636,-4.4185,-4.5526,-4.5449,-4.5444,-4.5625,-4.5485,-4.5397,-4.5397,-4.5397,-4.5397,-4.5397,-4.5397,-4.5397,-4.5397,-4.5397,-4.5397,-4.5397,-4.5397,-4.5397,-4.5397,-4.5397,-4.5397,-4.5397,-4.5397,-4.5397,-4.5397,-4.0931,-4.1484,-4.197,-4.197,-4.2311,-4.2602,-4.2602,-4.2602,-4.2602,-4.2602,-4.2602,-4.2602,-4.2602,-4.2602,-4.2602,-4.2602,-4.2602,-4.2602,-4.2602,-4.2602,-4.2602,-4.2602,-4.2602,-4.2602,-4.2602,-4.2197,-4.218,-4.2602,-4.2059,-4.2009,-4.2468,-4.2468,-4.2502,-4.2602,-4.2602,-4.2602,-4.2602,-4.2602,-4.2602,-4.2602,-4.2602,-4.2602,-4.2602,-4.2602,-4.2602,-4.2649,-4.3141,-4.3426,-4.3693,-4.444,-4.4835,-4.5052,-4.5503,-4.5537,-4.5337,-4.4966,-4.4881,-4.462,-4.3471,-4.3262,-4.318,-4.2483,-4.2308,-4.2267,-4.2166,-4.2145,-4.2082,-4.1849,-4.1784,-4.174,-4.1626,-4.1453,-4.1323,-4.1232,-4.1071,-4.0942,-4.0704,-4.0799,-4.086,-4.0803,-4.081,-4.0849,-4.1036,-4.0996,-4.1165,-4.1617,-4.1785,-4.2441,-4.3653,-4.3797,-4.4378,-4.5564,-4.5474,-4.5485,-4.5649,-4.5485,-4.5397,-4.5397,-4.5397,-4.5397,-4.5397,-4.5397,-4.5397,-4.5397,-4.5397,-4.5397,-4.5397,-4.5397,-4.5397,-4.5397,-4.5397,-4.5397,-4.5397,-4.5397,-4.5397,-4.5397,-4.1677,-4.218,-4.2602,-4.2602,-4.2602,-4.2602,-4.2602,-4.2602,-4.2602,-4.2602,-4.2602,-4.2602,-4.2602,-4.2602,-4.2602,-4.2602,-4.2602,-4.2602,-4.2602,-4.2602,-4.2602,-4.2602,-4.2602,-4.2602,-4.2602,-4.2602,-4.2602,-4.2602,-4.2602,-4.2602,-4.2602,-4.2602,-4.2602,-4.2602,-4.2602,-4.2602,-4.2602,-4.2602,-4.2602,-4.2602,-4.2602,-4.2602,-4.2602,-4.2602,-4.2602,-4.2665,-4.3171,-4.3634,-4.4088,-4.4597,-4.5042,-4.5397,-4.5397,-4.5397,-4.5432,-4.5727,-4.5324,-4.4684,-4.4149,-4.3613,-4.3062,-4.2492,-4.2302,-4.2205,-4.1934,-4.1892,-4.1827,-4.1609,-4.1582,-4.156,-4.156,-4.156,-4.1453,-4.1209,-4.1163,-4.0954,-4.0412,-4.0631,-4.0784,-4.0602,-4.0591,-4.0782,-4.1192,-4.0863,-4.0699,-4.0919,-4.0918,-4.1574,-4.3136,-4.3914,-4.4665,-4.5372,-4.5397,-4.5397,-4.5397,-4.5397,-4.5397,-4.5397,-4.5397,-4.5397,-4.5397,-4.5397,-4.5397,-4.5397,-4.5397,-4.5397,-4.5397,-4.5397,-4.5397,-4.5397,-4.5397,-4.5397,-4.5397,-4.5397,-4.5397,-4.5397,-4.2344,-4.2489,-4.2602,-4.2602,-4.2602,-4.2602,-4.2602,-4.2602,-4.2602,-4.2602,-4.2602,-4.2602,-4.2602,-4.2602,-4.2602,-4.2602,-4.2602,-4.2602,-4.2602,-4.2602,-4.2602,-4.2602,-4.2602,-4.2602,-4.2602,-4.2602,-4.2602,-4.2602,-4.2602,-4.2602,-4.2602,-4.2602,-4.2602,-4.2602,-4.2602,-4.2602,-4.2602,-4.2602,-4.2602,-4.2602,-4.2602,-4.2602,-4.2602,-4.2602,-4.2602,-4.2711,-4.3532,-4.3914,-4.4117,-4.4961,-4.53,-4.5397,-4.5397,-4.5397,-4.5432,-4.5727,-4.5815,-4.5723,-4.5188,-4.464,-4.4035,-4.3123,-4.2334,-4.1758,-4.1692,-4.1653,-4.1587,-4.1363,-4.13,-4.1249,-4.1105,-4.1059,-4.1035,-4.0989,-4.071,-4.0583,-4.0728,-4.0583,-4.0419,-4.0375,-4.0629,-4.0753,-4.057,-4.07,-4.0902,-4.1121,-4.1121,-4.1783,-4.3276,-4.3541,-4.4167,-4.5372,-4.5397,-4.5397,-4.5397,-4.5397,-4.5397,-4.5397,-4.5397,-4.5397,-4.5397,-4.5397,-4.5397,-4.5397,-4.5397,-4.5397,-4.5397,-4.5397,-4.5397,-4.5397,-4.5397,-4.5397,-4.5397,-4.5397,-4.5397,-4.5397,-4.2602,-4.2602,-4.2602,-4.2602,-4.2602,-4.2602,-4.2602,-4.2602,-4.2602,-4.2602,-4.2602,-4.2602,-4.2602,-4.2602,-4.2602,-4.2602,-4.2602,-4.2602,-4.2602,-4.2602,-4.2602,-4.2602,-4.2602,-4.2602,-4.2602,-4.2602,-4.2602,-4.2602,-4.2602,-4.2602,-4.2602,-4.2602,-4.2602,-4.2602,-4.2602,-4.2602,-4.2602,-4.2602,-4.2602,-4.2602,-4.2602,-4.2602,-4.2602,-4.2602,-4.2743,-4.2988,-4.3739,-4.4145,-4.4429,-4.5167,-4.5397,-4.5397,-4.5397,-4.5397,-4.5432,-4.5727,-4.5912,-4.5887,-4.5358,-4.4746,-4.3988,-4.2723,-4.1991,-4.156,-4.1453,-4.1431,-4.1363,-4.1111,-4.1065,-4.1018,-4.0918,-4.0912,-4.0912,-4.0912,-4.0937,-4.0832,-4.036,-4.0546,-4.0383,-3.9513,-4.0146,-4.0461,-4.0028,-4.0541,-4.0948,-4.1053,-4.1059,-4.1737,-4.3225,-4.3312,-4.3935,-4.5345,-4.5397,-4.5397,-4.5397,-4.5397,-4.5397,-4.5397,-4.5397,-4.5397,-4.5397,-4.5397,-4.5397,-4.5397,-4.5397,-4.5397,-4.5397,-4.5397,-4.5397,-4.5397,-4.5397,-4.5397,-4.5397,-4.5397,-4.5397,-4.5397,-4.2602,-4.2602,-4.2602,-4.2602,-4.2602,-4.2602,-4.2602,-4.2602,-4.2602,-4.2602,-4.2602,-4.2602,-4.2602,-4.2602,-4.2602,-4.2602,-4.2602,-4.2602,-4.2602,-4.2602,-4.2602,-4.2602,-4.2602,-4.2602,-4.2602,-4.2602,-4.2602,-4.2602,-4.2602,-4.2602,-4.2602,-4.2602,-4.2602,-4.2602,-4.2602,-4.2602,-4.2602,-4.2602,-4.2602,-4.2602,-4.2602,-4.2602,-4.2602,-4.2602,-4.2881,-4.3366,-4.3839,-4.4299,-4.4763,-4.5247,-4.5397,-4.5397,-4.5397,-4.5397,-4.5432,-4.5727,-4.576,-4.5647,-4.5281,-4.453,-4.3471,-4.1906,-4.1515,-4.1431,-4.1209,-4.114,-4.1111,-4.0942,-4.0912,-4.0912,-4.0912,-4.0847,-4.0847,-4.1012,-4.123,-4.1024,-3.9952,-4.0401,-4.0263,-3.8694,-3.9504,-4.0045,-3.9636,-4.0328,-4.0817,-4.0817,-4.0817,-4.1395,-4.2755,-4.2995,-4.3726,-4.5111,-4.5319,-4.5397,-4.5397,-4.5397,-4.5397,-4.5397,-4.5397,-4.5397,-4.5397,-4.5397,-4.5397,-4.5397,-4.5397,-4.5397,-4.5397,-4.5397,-4.5397,-4.5397,-4.5397,-4.5397,-4.5397,-4.5397,-4.5397,-4.5397,-4.2602,-4.2602,-4.2602,-4.2602,-4.2602,-4.2602,-4.2602,-4.2602,-4.2602,-4.2602,-4.2602,-4.2602,-4.2602,-4.2602,-4.2602,-4.2602,-4.2602,-4.2602,-4.2602,-4.2602,-4.2602,-4.2602,-4.2602,-4.2602,-4.2602,-4.2602,-4.2602,-4.2602,-4.2602,-4.2602,-4.2602,-4.2602,-4.2602,-4.2602,-4.2602,-4.2602,-4.2602,-4.2602,-4.2602,-4.2602,-4.2602,-4.2602,-4.2602,-4.2602,-4.2881,-4.3366,-4.3839,-4.4299,-4.4763,-4.5247,-4.5397,-4.5397,-4.5397,-4.5397,-4.5432,-4.5727,-4.5649,-4.5529,-4.5922,-4.4813,-4.3177,-4.1638,-4.1134,-4.0989,-4.0965,-4.0942,-4.0942,-4.0912,-4.0912,-4.0912,-4.0912,-4.0607,-4.0662,-4.1445,-4.0366,-3.9749,-4.0664,-3.9943,-3.9216,-3.8942,-3.9391,-3.9688,-3.961,-4.0079,-4.0387,-4.0387,-4.0387,-4.0612,-4.1131,-4.2089,-4.3037,-4.3924,-4.4894,-4.5397,-4.5397,-4.5397,-4.5397,-4.5397,-4.5397,-4.5397,-4.5397,-4.5397,-4.5397,-4.5397,-4.5397,-4.5397,-4.5397,-4.5397,-4.5397,-4.5397,-4.5397,-4.5397,-4.5397,-4.5397,-4.5397,-4.5397,-4.2602,-4.2602,-4.2602,-4.2602,-4.2602,-4.2602,-4.2602,-4.2602,-4.2602,-4.2602,-4.2602,-4.2602,-4.2602,-4.2602,-4.2602,-4.2602,-4.2602,-4.2602,-4.2602,-4.2602,-4.2602,-4.2602,-4.2602,-4.2602,-4.2602,-4.2602,-4.2602,-4.2602,-4.2602,-4.2602,-4.2602,-4.2602,-4.2602,-4.2602,-4.2602,-4.2602,-4.2602,-4.2602,-4.2602,-4.2618,-4.2881,-4.2974,-4.2988,-4.3262,-4.3634,-4.41,-4.4299,-4.468,-4.5096,-4.5344,-4.5397,-4.5397,-4.5397,-4.5397,-4.5423,-4.5537,-4.5598,-4.5476,-4.4786,-4.3965,-4.2964,-4.1423,-4.0965,-4.0912,-4.0912,-4.0912,-4.0912,-4.0912,-4.0912,-4.0823,-4.0624,-4.0429,-4.037,-4.0552,-4.0126,-3.9834,-3.9918,-3.9656,-3.9285,-3.875,-3.9034,-3.9365,-3.9584,-4.0028,-4.0305,-4.0305,-4.0305,-4.0434,-4.0795,-4.1491,-4.2164,-4.2706,-4.4487,-4.5397,-4.5397,-4.5397,-4.5397,-4.5397,-4.5397,-4.5397,-4.5397,-4.5397,-4.5397,-4.5397,-4.5397,-4.5397,-4.5397,-4.5397,-4.5397,-4.5397,-4.5397,-4.5397,-4.5397,-4.5397,-4.5397,-4.5397,-4.2602,-4.2602,-4.2602,-4.2602,-4.2602,-4.2602,-4.2602,-4.2602,-4.2602,-4.2602,-4.2602,-4.2602,-4.2602,-4.2602,-4.2602,-4.2602,-4.2602,-4.2602,-4.2602,-4.2602,-4.2602,-4.2602,-4.2602,-4.2602,-4.2602,-4.2602,-4.2602,-4.2602,-4.2602,-4.2602,-4.2602,-4.2602,-4.2602,-4.2602,-4.2602,-4.2602,-4.2602,-4.2602,-4.2649,-4.2789,-4.3155,-4.3366,-4.3515,-4.3856,-4.4288,-4.4708,-4.4708,-4.4998,-4.5397,-4.5397,-4.5397,-4.5397,-4.5397,-4.5397,-4.5397,-4.5397,-4.5537,-4.5346,-4.3654,-4.3189,-4.2827,-4.1291,-4.0912,-4.0912,-4.0912,-4.0912,-4.0912,-4.0912,-4.0912,-4.0793,-4.0362,-4.0213,-4.0054,-3.9817,-3.9918,-3.9809,-3.9246,-3.9399,-3.9261,-3.8488,-3.8655,-3.9023,-3.9401,-3.9773,-4.0037,-4.0121,-4.0121,-4.0222,-4.0384,-4.0939,-4.1508,-4.2021,-4.3978,-4.506,-4.5121,-4.5311,-4.5397,-4.5397,-4.5397,-4.5397,-4.5397,-4.5397,-4.5397,-4.5397,-4.5397,-4.5397,-4.5397,-4.5397,-4.5397,-4.5397,-4.5397,-4.5397,-4.538,-4.5207,-4.5121,-4.513,-4.2602,-4.2602,-4.2602,-4.2602,-4.2602,-4.2602,-4.2602,-4.2602,-4.2602,-4.2602,-4.2602,-4.2602,-4.2602,-4.2602,-4.2602,-4.2602,-4.2602,-4.2602,-4.2602,-4.2602,-4.2602,-4.2602,-4.2602,-4.2602,-4.2602,-4.2602,-4.2602,-4.2602,-4.2602,-4.2602,-4.2602,-4.2602,-4.2602,-4.2602,-4.2602,-4.2602,-4.2602,-4.2602,-4.2851,-4.3246,-4.3276,-4.3545,-4.3943,-4.4001,-4.4288,-4.4708,-4.4708,-4.4998,-4.5397,-4.5397,-4.5397,-4.5397,-4.5397,-4.5397,-4.5397,-4.5397,-4.5423,-4.5096,-4.3603,-4.3189,-4.2827,-4.1291,-4.0912,-4.0912,-4.0912,-4.0912,-4.0912,-4.0912,-4.0912,-4.0793,-4.0362,-3.9952,-3.9792,-4.0263,-3.9344,-3.8821,-3.9648,-3.9043,-3.8488,-3.8391,-3.8436,-3.86,-3.9023,-3.9077,-3.9249,-3.961,-3.9662,-3.9487,-3.9143,-4.0221,-4.135,-4.2421,-4.335,-4.3989,-4.4397,-4.5061,-4.5397,-4.5397,-4.5397,-4.5397,-4.5397,-4.5397,-4.5397,-4.5397,-4.5397,-4.5397,-4.5397,-4.5397,-4.5397,-4.5397,-4.5397,-4.5397,-4.5311,-4.463,-4.438,-4.4294,-4.2602,-4.2602,-4.2602,-4.2602,-4.2602,-4.2602,-4.2602,-4.2602,-4.2602,-4.2602,-4.2602,-4.2602,-4.2602,-4.2602,-4.2602,-4.2602,-4.2602,-4.2602,-4.2602,-4.2602,-4.2602,-4.2602,-4.2602,-4.2602,-4.2602,-4.2602,-4.2602,-4.2602,-4.2602,-4.2602,-4.2602,-4.2602,-4.2602,-4.2602,-4.2602,-4.2602,-4.2634,-4.2912,-4.3141,-4.3336,-4.391,-4.4271,-4.4457,-4.4752,-4.4988,-4.5123,-4.5123,-4.5247,-4.5397,-4.5397,-4.5397,-4.5397,-4.5397,-4.5397,-4.5397,-4.5397,-4.5096,-4.4492,-4.3483,-4.3189,-4.2827,-4.1291,-4.0912,-4.0912,-4.0912,-4.0912,-4.084,-4.0583,-4.051,-4.0313,-3.9635,-3.9355,-3.9216,-3.9183,-3.8717,-3.8528,-3.8887,-3.8623,-3.8391,-3.8391,-3.8391,-3.856,-3.8942,-3.8996,-3.9061,-3.9222,-3.9249,-3.9169,-3.8996,-3.9658,-4.0501,-4.1496,-4.2006,-4.2715,-4.3603,-4.3914,-4.4027,-4.4027,-4.4027,-4.4027,-4.4027,-4.4027,-4.4027,-4.4027,-4.4027,-4.4027,-4.4027,-4.4027,-4.4027,-4.4027,-4.4027,-4.4027,-4.3992,-4.3724,-4.3621,-4.3586,-4.2602,-4.2602,-4.2602,-4.2602,-4.2602,-4.2602,-4.2602,-4.2602,-4.2602,-4.2602,-4.2602,-4.2602,-4.2602,-4.2602,-4.2602,-4.2602,-4.2602,-4.2602,-4.2602,-4.2602,-4.2602,-4.2602,-4.2602,-4.2602,-4.2602,-4.2602,-4.2602,-4.2602,-4.2602,-4.2602,-4.2602,-4.2602,-4.2602,-4.2602,-4.2743,-4.282,-4.2851,-4.3323,-4.3604,-4.381,-4.444,-4.479,-4.4944,-4.5274,-4.5397,-4.5397,-4.5397,-4.5397,-4.5397,-4.5397,-4.5397,-4.5397,-4.5397,-4.5397,-4.5397,-4.5397,-4.4889,-4.4138,-4.3396,-4.3017,-4.2516,-4.1222,-4.0912,-4.0912,-4.0912,-4.0912,-4.0793,-4.0362,-4.0305,-4.0037,-3.9158,-3.8996,-3.8876,-3.8476,-3.8391,-3.8391,-3.8391,-3.8391,-3.8391,-3.8391,-3.8391,-3.8504,-3.8794,-3.8805,-3.8805,-3.8805,-3.8805,-3.8805,-3.8805,-3.9071,-3.961,-4.0451,-4.0722,-4.135,-4.2465,-4.2948,-4.3189,-4.3189,-4.3189,-4.3189,-4.3189,-4.3189,-4.3189,-4.3189,-4.3189,-4.3189,-4.3189,-4.3189,-4.3189,-4.3189,-4.3189,-4.3189,-4.3172,-4.2913,-4.2827,-4.2792,-4.2602,-4.2602,-4.2602,-4.2602,-4.2602,-4.2602,-4.2602,-4.2602,-4.2602,-4.2602,-4.2602,-4.2602,-4.2602,-4.2602,-4.2602,-4.2602,-4.2602,-4.2602,-4.2602,-4.2602,-4.2602,-4.2602,-4.2602,-4.2602,-4.2602,-4.2602,-4.2602,-4.2602,-4.2602,-4.2602,-4.2602,-4.2602,-4.2602,-4.2618,-4.308,-4.3306,-4.3336,-4.3781,-4.4271,-4.4708,-4.4708,-4.4971,-4.5397,-4.5397,-4.5397,-4.5397,-4.5397,-4.5397,-4.5397,-4.5397,-4.5397,-4.5397,-4.5397,-4.5397,-4.5397,-4.5397,-4.4872,-4.4138,-4.3379,-4.2603,-4.1826,-4.1084,-4.0912,-4.0912,-4.0912,-4.0912,-4.0776,-4.0362,-4.0288,-4.0037,-3.9158,-3.8996,-3.886,-3.8448,-3.8391,-3.8391,-3.8391,-3.8391,-3.8391,-3.8391,-3.8391,-3.8391,-3.8391,-3.8391,-3.8391,-3.8391,-3.8391,-3.8391,-3.8391,-3.8408,-3.8777,-3.9584,-3.961,-4.002,-4.0894,-4.2413,-4.3172,-4.3172,-4.3172,-4.3172,-4.3172,-4.3172,-4.3172,-4.3172,-4.3172,-4.3172,-4.3172,-4.3172,-4.3172,-4.3172,-4.3172,-4.3172,-4.3086,-4.2292,-4.1974,-4.1895,-4.2602,-4.2602,-4.2602,-4.2602,-4.2602,-4.2602,-4.2602,-4.2602,-4.2602,-4.2602,-4.2602,-4.2602,-4.2602,-4.2602,-4.2602,-4.2602,-4.2602,-4.2602,-4.2602,-4.2602,-4.2602,-4.2602,-4.2602,-4.2602,-4.2602,-4.2602,-4.2602,-4.2602,-4.2602,-4.2602,-4.2602,-4.2602,-4.2602,-4.2618,-4.308,-4.3306,-4.3366,-4.4157,-4.4569,-4.4735,-4.5069,-4.5291,-4.5397,-4.5397,-4.5397,-4.5397,-4.5397,-4.5397,-4.5397,-4.5397,-4.5397,-4.5397,-4.5397,-4.5397,-4.5294,-4.4785,-4.4121,-4.3362,-4.2568,-4.1809,-4.1188,-4.0963,-4.0912,-4.0912,-4.0912,-4.0912,-4.0686,-3.9961,-3.9808,-3.9549,-3.8738,-3.8588,-3.8532,-3.842,-3.8391,-3.8391,-3.8391,-3.8391,-3.8391,-3.8391,-3.8391,-3.8391,-3.8391,-3.8391,-3.8391,-3.8391,-3.8655,-3.8821,-3.8821,-3.9088,-3.9497,-4.007,-4.0096,-4.0345,-4.0894,-4.136,-4.1585,-4.1585,-4.1585,-4.1585,-4.1585,-4.1585,-4.1585,-4.1585,-4.1585,-4.1585,-4.1585,-4.1585,-4.1585,-4.1585,-4.1585,-4.1585,-4.1567,-4.1326,-4.124,-4.1205,-4.2602,-4.2602,-4.2602,-4.2602,-4.2602,-4.2602,-4.2602,-4.2602,-4.2602,-4.2602,-4.2602,-4.2602,-4.2602,-4.2602,-4.2602,-4.2602,-4.2602,-4.2602,-4.2602,-4.2602,-4.2602,-4.2602,-4.2602,-4.2602,-4.2602,-4.2602,-4.2602,-4.2602,-4.2602,-4.2602,-4.2602,-4.2602,-4.2711,-4.2912,-4.3383,-4.3575,-4.3634,-4.4569,-4.4889,-4.4735,-4.522,-4.5397,-4.5397,-4.5397,-4.5397,-4.5397,-4.5397,-4.5397,-4.5397,-4.5397,-4.5397,-4.5397,-4.5397,-4.519,-4.4889,-4.4432,-4.3552,-4.262,-4.2137,-4.1464,-4.0912,-4.0912,-4.0776,-4.0655,-4.0655,-4.0517,-4.0187,-3.948,-3.9365,-3.9169,-3.8532,-3.8391,-3.8391,-3.8391,-3.8391,-3.8391,-3.8391,-3.8391,-3.8391,-3.8391,-3.8391,-3.8391,-3.8391,-3.8391,-3.8391,-3.8391,-3.8628,-3.8849,-3.8996,-3.9249,-3.9653,-4.028,-4.0305,-4.0485,-4.0912,-4.0912,-4.0912,-4.0912,-4.0912,-4.0912,-4.0912,-4.0912,-4.0912,-4.0912,-4.0912,-4.0912,-4.0912,-4.0912,-4.0912,-4.0912,-4.0912,-4.0912,-4.0912,-4.0912,-4.0912,-4.0912,-4.2602,-4.2602,-4.2602,-4.2602,-4.2602,-4.2602,-4.2602,-4.2602,-4.2602,-4.2602,-4.2602,-4.2602,-4.2602,-4.2602,-4.2602,-4.2602,-4.2602,-4.2602,-4.2602,-4.2602,-4.2602,-4.2602,-4.2602,-4.2602,-4.2602,-4.2602,-4.2602,-4.2602,-4.2602,-4.2602,-4.2602,-4.2602,-4.2851,-4.3306,-4.3768,-4.3972,-4.4059,-4.4961,-4.5096,-4.4735,-4.522,-4.5397,-4.5397,-4.5397,-4.5397,-4.5397,-4.5397,-4.5397,-4.5397,-4.5397,-4.5397,-4.5397,-4.5397,-4.4889,-4.4294,-4.4225,-4.3172,-4.1999,-4.1905,-4.1412,-4.0912,-4.0912,-4.0583,-4.0305,-4.0355,-4.0028,-3.9584,-3.9142,-3.9034,-3.8914,-3.8476,-3.8391,-3.8391,-3.8391,-3.8391,-3.8391,-3.8391,-3.8391,-3.8391,-3.8391,-3.8363,-3.8363,-3.8363,-3.8335,-3.8335,-3.842,-3.842,-3.86,-3.9023,-3.9034,-3.9451,-4.0263,-4.0305,-4.0485,-4.0912,-4.0912,-4.0912,-4.0912,-4.0912,-4.0912,-4.0912,-4.0912,-4.0912,-4.0912,-4.0912,-4.0912,-4.0912,-4.0912,-4.0912,-4.0912,-4.0912,-4.0912,-4.0912,-4.0912,-4.0912,-4.0912,-4.2602,-4.2602,-4.2602,-4.2602,-4.2602,-4.2602,-4.2602,-4.2602,-4.2602,-4.2602,-4.2602,-4.2602,-4.2602,-4.2602,-4.2602,-4.2602,-4.2602,-4.2602,-4.2602,-4.2602,-4.2602,-4.2602,-4.2602,-4.2602,-4.2602,-4.2602,-4.2602,-4.2602,-4.2602,-4.2602,-4.2602,-4.2602,-4.2851,-4.3306,-4.3396,-4.3663,-4.403,-4.4597,-4.479,-4.4735,-4.522,-4.5397,-4.5397,-4.5397,-4.5397,-4.5397,-4.5397,-4.5397,-4.5397,-4.5397,-4.5397,-4.5397,-4.5397,-4.4889,-4.419,-4.3603,-4.2758,-4.1878,-4.1309,-4.1032,-4.0912,-4.0912,-4.0583,-4.0362,-4.068,-4.0704,-4.0402,-3.9636,-3.9454,-3.9259,-3.8516,-3.8391,-3.8391,-3.8391,-3.8391,-3.8391,-3.8391,-3.8391,-3.8391,-3.8391,-3.8177,-3.8017,-3.8017,-3.777,-3.7857,-3.8423,-3.8479,-3.8783,-3.9428,-3.9454,-3.9731,-4.028,-4.0305,-4.0485,-4.0912,-4.0912,-4.0912,-4.0912,-4.0912,-4.0912,-4.0912,-4.0912,-4.0912,-4.0912,-4.0912,-4.0912,-4.0912,-4.0912,-4.0912,-4.0912,-4.0912,-4.0912,-4.0912,-4.0912,-4.0912,-4.0912,-4.2602,-4.2602,-4.2602,-4.2602,-4.2602,-4.2602,-4.2602,-4.2602,-4.2602,-4.2602,-4.2602,-4.2602,-4.2602,-4.2602,-4.2602,-4.2602,-4.2602,-4.2602,-4.2602,-4.2602,-4.2602,-4.2602,-4.2602,-4.2602,-4.2602,-4.2602,-4.2602,-4.2602,-4.2602,-4.2602,-4.2602,-4.282,-4.305,-4.3306,-4.3545,-4.3634,-4.3693,-4.4412,-4.4569,-4.4429,-4.5123,-4.5397,-4.5397,-4.5397,-4.5397,-4.5397,-4.5397,-4.5397,-4.5397,-4.5397,-4.5397,-4.5328,-4.4992,-4.4354,-4.3621,-4.2844,-4.2085,-4.1395,-4.1015,-4.0912,-4.0847,-4.0655,-4.0583,-4.0534,-4.0328,-4.0112,-3.9825,-3.9152,-3.9034,-3.8898,-3.8476,-3.8391,-3.8391,-3.8391,-3.8391,-3.8391,-3.8391,-3.8391,-3.8391,-3.8391,-3.8103,-3.7915,-3.7915,-3.7902,-3.8046,-3.8427,-3.8634,-3.9001,-3.9584,-3.9808,-4.0129,-4.0558,-4.06,-4.0697,-4.0912,-4.0912,-4.0912,-4.0912,-4.0912,-4.0912,-4.0912,-4.0912,-4.0912,-4.0912,-4.0912,-4.0912,-4.0912,-4.0912,-4.0912,-4.0912,-4.0912,-4.0912,-4.0912,-4.0912,-4.0912,-4.0912,-4.2602,-4.2602,-4.2602,-4.2602,-4.2602,-4.2602,-4.2602,-4.2602,-4.2602,-4.2602,-4.2602,-4.2602,-4.2602,-4.2602,-4.2602,-4.2602,-4.2602,-4.2602,-4.2602,-4.2602,-4.2602,-4.2602,-4.2602,-4.2602,-4.2602,-4.2602,-4.2602,-4.2602,-4.2602,-4.2602,-4.2602,-4.308,-4.3306,-4.3306,-4.3693,-4.3663,-4.3366,-4.4214,-4.4373,-4.4088,-4.5015,-4.5397,-4.5397,-4.5397,-4.5397,-4.5397,-4.5397,-4.5397,-4.5397,-4.5397,-4.5311,-4.5113,-4.4501,-4.3707,-4.2861,-4.2206,-4.1481,-4.0912,-4.0912,-4.0912,-4.0799,-4.0404,-4.0534,-4.0566,-3.9705,-3.9339,-3.9077,-3.86,-3.8504,-3.8476,-3.8391,-3.8391,-3.8391,-3.8391,-3.8391,-3.8391,-3.8391,-3.8391,-3.8391,-3.8391,-3.8046,-3.777,-3.7682,-3.7902,-3.8119,-3.8262,-3.8567,-3.8963,-3.9411,-3.9808,-4.0246,-4.0662,-4.0662,-4.0728,-4.0823,-4.0823,-4.0823,-4.0823,-4.0823,-4.0864,-4.0912,-4.0912,-4.0912,-4.0912,-4.0912,-4.0912,-4.0912,-4.0912,-4.0912,-4.0912,-4.0912,-4.0912,-4.0912,-4.0912,-4.0912,-4.0912,-4.2602,-4.2602,-4.2602,-4.2602,-4.2602,-4.2602,-4.2602,-4.2602,-4.2602,-4.2602,-4.2602,-4.2602,-4.2602,-4.2602,-4.2602,-4.2602,-4.2602,-4.2602,-4.2602,-4.2602,-4.2602,-4.2602,-4.2602,-4.2602,-4.2602,-4.2602,-4.2602,-4.2602,-4.2602,-4.2602,-4.2602,-4.308,-4.3306,-4.3306,-4.3366,-4.3366,-4.3336,-4.3869,-4.4059,-4.4088,-4.5015,-4.5397,-4.5397,-4.5397,-4.5397,-4.5397,-4.5397,-4.5397,-4.5397,-4.5397,-4.4992,-4.4432,-4.4328,-4.3327,-4.2154,-4.2026,-4.1481,-4.0912,-4.0912,-4.0912,-4.0799,-4.0404,-4.0355,-4.0163,-3.9276,-3.9635,-3.9893,-3.9077,-3.8914,-3.8805,-3.8448,-3.8391,-3.8391,-3.8391,-3.8391,-3.8391,-3.8391,-3.8391,-3.8391,-3.8391,-3.7844,-3.7268,-3.6723,-3.6723,-3.7013,-3.7663,-3.778,-3.8092,-3.8772,-3.8881,-3.9166,-3.9765,-3.9765,-4.0037,-4.0558,-4.0558,-4.0558,-4.0558,-4.0558,-4.068,-4.0912,-4.0912,-4.0912,-4.0912,-4.0912,-4.0912,-4.0912,-4.0912,-4.0912,-4.0912,-4.0912,-4.0912,-4.0912,-4.0912,-4.0912,-4.0912,-4.2602,-4.2602,-4.2602,-4.2602,-4.2602,-4.2602,-4.2602,-4.2602,-4.2602,-4.2602,-4.2602,-4.2602,-4.2602,-4.2602,-4.2602,-4.2602,-4.2602,-4.2602,-4.2602,-4.2602,-4.2602,-4.2602,-4.2602,-4.2602,-4.2602,-4.2602,-4.2602,-4.2602,-4.2602,-4.2602,-4.2602,-4.308,-4.3171,-4.2912,-4.3185,-4.3306,-4.3336,-4.3781,-4.4145,-4.4457,-4.514,-4.5397,-4.5397,-4.5397,-4.5397,-4.5397,-4.5397,-4.5397,-4.5328,-4.4923,-4.4561,-4.4156,-4.3293,-4.2568,-4.1905,-4.1516,-4.117,-4.0912,-4.0912,-4.0912,-4.0799,-4.0404,-4.0478,-4.0345,-3.9265,-3.9355,-3.9487,-3.8821,-3.8655,-3.86,-3.842,-3.8234,-3.8103,-3.8103,-3.796,-3.7844,-3.7844,-3.7844,-3.7801,-3.7642,-3.7492,-3.7254,-3.68,-3.6907,-3.7148,-3.7474,-3.7738,-3.8026,-3.8351,-3.8914,-3.9315,-3.9594,-3.9935,-4.0229,-4.051,-4.051,-4.0534,-4.0607,-4.0607,-4.0655,-4.0793,-4.0793,-4.084,-4.0912,-4.0912,-4.0912,-4.0912,-4.0912,-4.0912,-4.0912,-4.0912,-4.0912,-4.0912,-4.0912,-4.0912,-4.0912]}]]